[[{"header":{"parameterUnit":"m.s-1","parameterCategory":1,"la1":30.6,"la2":29.2853,"lo1":-89.7004,"lo2":-87.6739,"dy":0.0162,"dx":0.0183,"nx":112,"ny":82,"refTime":"2023-07-17T00:00:00:Z","depth":0,"parameterNumber":2,"parameterNumberName":"U-component_of_WINDS"},"data":[0.0,0.0,0.0,0.0,0.0,0.0,0.0,0.0,0.0,0.0,0.0,0.0,0.0,0.0,0.0,0.0,0.0,0.0,0.0,0.0,0.0,0.0,0.0,0.0,0.0,0.0,0.0,0.0,0.0,0.0,0.0,0.0,0.0,0.0,0.0,0.0,0.0,0.0,0.0,0.0,0.0,0.0,0.0,0.0,0.0,0.0,0.0,0.0,0.0,0.0,0.0,0.0,0.0,0.0,0.0,0.0,0.0,0.0,0.0,0.0,0.0,0.0,0.0,0.0,0.0,0.0,0.0,0.0,0.0,0.0,0.0,0.0,0.0,0.0,0.0,0.0,0.0,0.0,0.0,0.0,0.0,0.0,0.0,0.0,0.0,0.0,0.0,0.0,0.0,0.0,-2.1694,-2.3289,-2.5682,-2.71,-2.697,-2.5826,-2.4492,-2.3046,0.0,0.0,0.0,0.0,0.0,0.0,0.0,0.0,0.0,0.0,0.0,0.0,0.0,0.0,0.0,0.0,0.0,0.0,0.0,0.0,0.0,0.0,0.0,0.0,0.0,0.0,0.0,0.0,0.0,0.0,0.0,0.0,0.0,0.0,0.0,0.0,0.0,0.0,0.0,0.0,0.0,0.0,0.0,0.0,0.0,0.0,0.0,0.0,0.0,0.0,0.0,0.0,0.0,0.0,0.0,0.0,0.0,0.0,0.0,0.0,0.0,0.0,0.0,0.0,0.0,0.0,0.0,0.0,0.0,0.0,0.0,0.0,0.0,0.0,0.0,0.0,0.0,0.0,0.0,0.0,0.0,0.0,0.0,0.0,0.0,0.0,0.0,0.0,0.0,0.0,0.0,0.0,0.0,0.0,0.0,0.0,0.0,0.0,0.0,0.0,0.0,0.0,0.0,0.0,-2.218,-2.5219,-2.6927,-2.7576,-2.688,-2.6126,-2.4829,-2.287,0.0,0.0,0.0,0.0,0.0,0.0,0.0,0.0,0.0,0.0,0.0,0.0,0.0,0.0,0.0,0.0,0.0,0.0,0.0,0.0,0.0,0.0,0.0,0.0,0.0,0.0,0.0,0.0,0.0,0.0,0.0,0.0,0.0,0.0,0.0,0.0,0.0,0.0,0.0,0.0,0.0,0.0,0.0,0.0,0.0,0.0,0.0,0.0,0.0,0.0,0.0,0.0,0.0,0.0,0.0,0.0,0.0,0.0,0.0,0.0,0.0,0.0,0.0,0.0,0.0,0.0,0.0,0.0,0.0,0.0,0.0,0.0,0.0,0.0,0.0,0.0,0.0,0.0,0.0,0.0,0.0,0.0,0.0,0.0,0.0,0.0,0.0,0.0,0.0,0.0,0.0,0.0,0.0,0.0,0.0,0.0,0.0,0.0,0.0,0.0,0.0,0.0,0.0,-2.2169,-2.3836,-2.6087,-2.7203,-2.7595,-2.7171,-2.6174,-2.4843,-2.3146,-2.0627,0.0,0.0,0.0,0.0,0.0,0.0,0.0,0.0,0.0,0.0,0.0,0.0,0.0,0.0,0.0,0.0,0.0,0.0,0.0,0.0,0.0,0.0,0.0,0.0,0.0,0.0,0.0,0.0,0.0,0.0,0.0,0.0,0.0,0.0,0.0,0.0,0.0,0.0,0.0,0.0,0.0,0.0,0.0,0.0,0.0,0.0,0.0,0.0,0.0,0.0,0.0,0.0,0.0,0.0,0.0,0.0,0.0,0.0,0.0,0.0,0.0,0.0,0.0,0.0,0.0,0.0,0.0,0.0,0.0,0.0,0.0,0.0,0.0,0.0,0.0,0.0,0.0,0.0,0.0,0.0,0.0,0.0,0.0,0.0,0.0,0.0,0.0,0.0,0.0,0.0,0.0,0.0,0.0,0.0,0.0,0.0,0.0,0.0,0.0,0.0,0.0,0.0,-2.3961,-2.5231,-2.6434,-2.7136,-2.7448,-2.7361,-2.612,-2.4777,-2.3386,-2.0843,0.0,0.0,0.0,0.0,0.0,0.0,0.0,0.0,0.0,0.0,0.0,0.0,0.0,0.0,0.0,0.0,0.0,0.0,0.0,0.0,0.0,0.0,0.0,0.0,0.0,0.0,0.0,0.0,0.0,0.0,0.0,0.0,0.0,0.0,0.0,0.0,0.0,0.0,0.0,0.0,0.0,0.0,0.0,0.0,0.0,0.0,0.0,0.0,0.0,0.0,0.0,0.0,0.0,0.0,0.0,0.0,0.0,0.0,0.0,0.0,0.0,0.0,0.0,0.0,0.0,0.0,0.0,0.0,0.0,0.0,0.0,0.0,0.0,0.0,0.0,0.0,0.0,0.0,0.0,0.0,0.0,0.0,0.0,0.0,0.0,0.0,0.0,0.0,0.0,0.0,0.0,0.0,0.0,0.0,0.0,0.0,0.0,0.0,0.0,0.0,0.0,0.0,-2.4253,-2.5619,-2.6347,-2.6899,-2.7233,-2.7192,-2.5982,-2.4669,-2.3371,-2.0843,0.0,0.0,0.0,0.0,0.0,0.0,0.0,0.0,0.0,0.0,0.0,0.0,0.0,0.0,0.0,0.0,0.0,0.0,0.0,0.0,0.0,0.0,0.0,0.0,0.0,0.0,0.0,0.0,0.0,0.0,0.0,0.0,0.0,0.0,0.0,0.0,0.0,0.0,0.0,0.0,0.0,0.0,0.0,0.0,0.0,0.0,0.0,0.0,0.0,0.0,0.0,0.0,0.0,0.0,0.0,0.0,0.0,0.0,0.0,0.0,0.0,0.0,0.0,0.0,0.0,0.0,0.0,0.0,0.0,0.0,0.0,0.0,0.0,0.0,0.0,0.0,0.0,0.0,0.0,0.0,0.0,0.0,0.0,0.0,0.0,0.0,0.0,0.0,0.0,0.0,0.0,0.0,0.0,0.0,0.0,0.0,0.0,0.0,0.0,0.0,0.0,0.0,-2.44,-2.5692,0.0,-2.7085,-2.7155,-2.7067,-2.5888,-2.4543,-2.3155,0.0,0.0,0.0,0.0,0.0,0.0,0.0,0.0,0.0,0.0,0.0,0.0,0.0,0.0,0.0,0.0,0.0,0.0,0.0,0.0,0.0,0.0,0.0,0.0,0.0,0.0,0.0,0.0,0.0,0.0,0.0,0.0,0.0,0.0,0.0,0.0,0.0,0.0,0.0,0.0,0.0,0.0,0.0,0.0,0.0,0.0,0.0,0.0,0.0,0.0,0.0,0.0,0.0,0.0,0.0,0.0,0.0,0.0,0.0,0.0,0.0,0.0,0.0,0.0,0.0,0.0,0.0,0.0,0.0,0.0,0.0,0.0,0.0,0.0,0.0,0.0,0.0,0.0,0.0,0.0,0.0,0.0,0.0,0.0,0.0,0.0,0.0,0.0,0.0,0.0,0.0,0.0,0.0,0.0,0.0,0.0,0.0,0.0,0.0,0.0,0.0,0.0,-2.3023,-2.441,-2.5649,0.0,-2.7104,-2.7041,-2.6951,-2.5754,-2.4393,-2.2997,0.0,0.0,0.0,0.0,0.0,0.0,0.0,0.0,0.0,0.0,0.0,0.0,0.0,0.0,0.0,0.0,0.0,0.0,0.0,0.0,0.0,0.0,0.0,0.0,0.0,0.0,0.0,0.0,0.0,0.0,0.0,0.0,0.0,0.0,0.0,0.0,0.0,0.0,0.0,0.0,0.0,0.0,0.0,0.0,0.0,0.0,0.0,0.0,0.0,0.0,0.0,0.0,0.0,0.0,0.0,0.0,0.0,0.0,0.0,0.0,0.0,0.0,0.0,0.0,0.0,0.0,0.0,0.0,0.0,0.0,0.0,0.0,0.0,0.0,0.0,0.0,0.0,0.0,0.0,0.0,0.0,0.0,0.0,0.0,0.0,0.0,0.0,0.0,0.0,0.0,0.0,0.0,0.0,0.0,0.0,0.0,0.0,0.0,0.0,0.0,0.0,0.0,-2.2979,-2.4294,-2.5516,-2.6846,-2.6873,-2.6806,-2.682,-2.5564,-2.4273,0.0,0.0,0.0,0.0,0.0,0.0,0.0,0.0,0.0,0.0,0.0,0.0,0.0,0.0,0.0,0.0,0.0,0.0,0.0,0.0,0.0,0.0,0.0,0.0,0.0,0.0,0.0,0.0,0.0,0.0,0.0,0.0,0.0,0.0,0.0,0.0,0.0,0.0,0.0,0.0,0.0,0.0,0.0,0.0,0.0,0.0,0.0,0.0,0.0,0.0,0.0,0.0,0.0,0.0,0.0,0.0,0.0,0.0,0.0,0.0,0.0,0.0,0.0,0.0,0.0,0.0,0.0,0.0,0.0,0.0,0.0,0.0,0.0,0.0,0.0,0.0,0.0,0.0,0.0,0.0,0.0,0.0,0.0,0.0,0.0,0.0,0.0,0.0,0.0,0.0,0.0,0.0,0.0,0.0,0.0,0.0,0.0,0.0,0.0,0.0,0.0,0.0,0.0,-2.2834,-2.4197,-2.5596,-2.73,-2.7082,-2.6968,-2.7391,-2.5825,-2.4273,-2.2975,0.0,0.0,0.0,0.0,0.0,0.0,0.0,0.0,0.0,0.0,0.0,0.0,0.0,0.0,0.0,0.0,0.0,0.0,0.0,0.0,0.0,0.0,0.0,0.0,0.0,0.0,0.0,0.0,0.0,0.0,0.0,0.0,0.0,0.0,0.0,0.0,0.0,0.0,0.0,0.0,0.0,0.0,0.0,0.0,0.0,0.0,0.0,0.0,0.0,0.0,0.0,0.0,0.0,0.0,0.0,0.0,0.0,0.0,0.0,0.0,0.0,0.0,0.0,0.0,0.0,0.0,0.0,0.0,0.0,0.0,0.0,0.0,0.0,0.0,0.0,0.0,0.0,0.0,0.0,0.0,0.0,0.0,0.0,0.0,0.0,0.0,0.0,0.0,0.0,0.0,0.0,0.0,0.0,0.0,0.0,0.0,0.0,0.0,0.0,0.0,0.0,0.0,-2.2702,-2.4103,-2.5578,-2.7492,-2.7157,-2.7041,-2.7652,-2.5926,-2.4375,-2.336,0.0,0.0,0.0,0.0,0.0,0.0,0.0,0.0,0.0,0.0,0.0,0.0,0.0,0.0,0.0,0.0,0.0,0.0,0.0,0.0,0.0,0.0,0.0,0.0,0.0,0.0,0.0,0.0,0.0,0.0,0.0,0.0,0.0,0.0,0.0,0.0,0.0,0.0,0.0,0.0,0.0,0.0,0.0,0.0,0.0,0.0,0.0,0.0,0.0,0.0,0.0,0.0,0.0,0.0,0.0,0.0,0.0,0.0,0.0,0.0,0.0,0.0,0.0,0.0,0.0,0.0,0.0,0.0,0.0,0.0,0.0,0.0,0.0,0.0,0.0,0.0,0.0,0.0,0.0,0.0,0.0,0.0,0.0,0.0,0.0,0.0,0.0,0.0,0.0,0.0,0.0,0.0,0.0,0.0,0.0,0.0,0.0,0.0,0.0,0.0,0.0,0.0,-2.2591,-2.4003,-2.5578,-2.7579,-2.7258,-2.7128,-2.7739,-2.6071,-2.4679,-2.3958,0.0,0.0,0.0,0.0,0.0,0.0,0.0,0.0,0.0,0.0,0.0,0.0,0.0,0.0,0.0,0.0,0.0,0.0,0.0,0.0,0.0,0.0,0.0,0.0,0.0,0.0,0.0,0.0,0.0,0.0,0.0,0.0,0.0,0.0,0.0,0.0,0.0,0.0,0.0,0.0,0.0,0.0,0.0,0.0,0.0,0.0,0.0,0.0,0.0,0.0,0.0,0.0,0.0,0.0,0.0,0.0,0.0,0.0,0.0,0.0,-2.6064,0.0,0.0,0.0,0.0,0.0,0.0,0.0,0.0,0.0,0.0,0.0,0.0,0.0,0.0,0.0,0.0,0.0,0.0,0.0,0.0,0.0,0.0,0.0,0.0,0.0,0.0,0.0,0.0,0.0,0.0,0.0,0.0,0.0,0.0,0.0,0.0,0.0,0.0,0.0,0.0,0.0,-2.2649,-2.4056,-2.5807,-2.8216,-2.7911,-2.7781,-2.8419,-2.7186,-2.5662,-2.3992,-2.1946,0.0,0.0,0.0,0.0,0.0,0.0,0.0,0.0,0.0,0.0,0.0,0.0,0.0,0.0,0.0,0.0,0.0,0.0,0.0,0.0,0.0,0.0,0.0,0.0,0.0,0.0,0.0,0.0,0.0,0.0,0.0,0.0,0.0,0.0,0.0,0.0,0.0,0.0,0.0,0.0,0.0,0.0,0.0,0.0,0.0,0.0,0.0,0.0,0.0,0.0,0.0,0.0,0.0,0.0,0.0,0.0,0.0,0.0,0.0,0.0,-2.786,0.0,0.0,0.0,0.0,0.0,0.0,0.0,0.0,0.0,0.0,0.0,0.0,0.0,0.0,0.0,0.0,0.0,0.0,0.0,0.0,0.0,0.0,0.0,0.0,0.0,0.0,0.0,0.0,0.0,0.0,0.0,0.0,0.0,0.0,0.0,0.0,0.0,0.0,0.0,0.0,-2.3151,-2.4515,-2.621,-2.8462,-2.8115,-2.7956,-2.8651,-2.7547,-2.6239,-2.4902,-2.296,0.0,0.0,0.0,0.0,0.0,0.0,0.0,0.0,0.0,0.0,0.0,0.0,0.0,0.0,0.0,0.0,0.0,0.0,0.0,0.0,0.0,0.0,0.0,0.0,0.0,0.0,0.0,0.0,0.0,0.0,0.0,0.0,0.0,0.0,0.0,0.0,0.0,0.0,0.0,0.0,0.0,0.0,0.0,0.0,0.0,0.0,0.0,0.0,0.0,0.0,0.0,0.0,0.0,-3.5587,-3.5908,-3.6467,-3.6479,-3.6469,-3.6327,-3.3909,-3.2108,-3.0916,0.0,0.0,0.0,0.0,0.0,0.0,0.0,0.0,0.0,0.0,0.0,0.0,0.0,0.0,0.0,0.0,0.0,0.0,0.0,0.0,0.0,0.0,0.0,0.0,0.0,-2.4709,-2.4182,0.0,0.0,0.0,0.0,0.0,0.0,0.0,0.0,0.0,0.0,0.0,0.0,-2.3673,-2.5096,-2.6675,-2.8505,-2.8303,-2.8203,-2.8665,-2.775,-2.6762,-2.5861,-2.4004,-2.2435,0.0,0.0,0.0,0.0,0.0,0.0,0.0,0.0,0.0,0.0,0.0,0.0,0.0,0.0,0.0,0.0,0.0,0.0,0.0,0.0,0.0,0.0,0.0,0.0,0.0,0.0,0.0,0.0,0.0,0.0,0.0,0.0,-2.3868,-2.4713,0.0,0.0,0.0,0.0,0.0,0.0,0.0,0.0,0.0,0.0,0.0,0.0,0.0,0.0,-3.6583,-3.6572,-3.7207,-3.8475,-3.8856,-3.9357,-3.9961,-4.0546,-4.0767,-4.0719,-3.9771,0.0,-3.3751,-3.3751,0.0,0.0,0.0,0.0,0.0,0.0,0.0,0.0,0.0,0.0,0.0,0.0,0.0,0.0,0.0,0.0,0.0,0.0,0.0,0.0,0.0,0.0,-2.685,-2.7373,-2.74,-2.7188,0.0,-2.4859,-2.3017,-2.2313,-2.1695,0.0,0.0,0.0,0.0,0.0,0.0,0.0,-2.3789,-2.5527,-2.7198,-2.8564,-2.9102,-2.9189,-2.8752,-2.8549,-2.7706,-2.5919,-2.4394,-2.327,-2.2579,-2.0077,0.0,0.0,0.0,0.0,0.0,0.0,0.0,0.0,0.0,0.0,0.0,0.0,0.0,0.0,0.0,0.0,0.0,0.0,0.0,0.0,0.0,0.0,0.0,0.0,0.0,0.0,0.0,0.0,0.0,-2.3901,-2.5657,-2.6816,-2.7391,-2.7846,0.0,0.0,0.0,0.0,0.0,0.0,0.0,0.0,0.0,-3.6465,-3.7582,-3.8667,-3.9703,-3.9946,-4.0519,-4.1373,-4.1438,-4.1783,-4.2363,-4.2663,-4.2789,-4.2774,-4.2489,-4.1083,-3.8886,-3.7306,-3.6026,-3.4924,0.0,0.0,0.0,0.0,-3.1097,-3.0902,-3.0902,-3.0835,0.0,0.0,0.0,0.0,0.0,0.0,0.0,0.0,0.0,0.0,0.0,0.0,0.0,-2.9087,-2.9025,-2.8895,-2.8749,-2.7809,-2.6437,0.0,-2.3789,-2.3067,-2.223,0.0,0.0,0.0,0.0,0.0,-2.5386,-2.6562,-2.7795,-2.9073,-2.9421,-2.9479,-2.9232,-2.8884,-2.813,-2.6847,-2.5422,-2.4175,-2.3117,-2.152,-2.0006,0.0,0.0,0.0,0.0,0.0,0.0,0.0,0.0,0.0,0.0,0.0,0.0,0.0,0.0,0.0,0.0,0.0,0.0,0.0,0.0,0.0,0.0,0.0,0.0,0.0,0.0,0.0,0.0,-2.6104,-2.7644,-2.9304,-2.9926,-3.0484,0.0,0.0,0.0,0.0,0.0,0.0,-3.5671,-3.6788,-3.8116,-3.9719,-4.095,-4.1938,-4.2681,-4.317,-4.3697,-4.4267,-4.4013,-4.4205,-4.4761,-4.4761,-4.4761,-4.4764,-4.4382,-4.3959,-4.3279,-4.0672,-3.8744,-3.7417,-3.6722,-3.5912,-3.5021,-3.4359,-3.3898,-3.3602,-3.3602,-3.3545,-3.3413,-3.3244,0.0,-3.1124,-3.0955,0.0,0.0,0.0,0.0,-3.021,-3.0392,-3.067,-3.0948,-3.101,-3.0872,-3.0736,-3.061,-3.0328,-2.934,0.0,-2.595,-2.5282,-2.4205,0.0,0.0,0.0,0.0,-2.5723,-2.6881,-2.7695,-2.8551,-2.9494,-2.974,-2.9798,-2.961,-2.9015,-2.8321,-2.7547,-2.615,-2.4867,-2.3815,-2.2771,-2.1327,-1.9487,0.0,0.0,0.0,0.0,0.0,0.0,0.0,0.0,0.0,0.0,0.0,0.0,0.0,0.0,0.0,0.0,0.0,0.0,0.0,0.0,0.0,0.0,0.0,0.0,0.0,0.0,0.0,0.0,0.0,-3.2238,-3.2906,0.0,0.0,0.0,0.0,-3.5979,-3.668,-3.8003,-4.0059,-4.0237,-4.1257,-4.3379,-4.4172,-4.4901,-4.5581,-4.5931,-4.6458,-4.7197,-4.6781,-4.6977,-4.7688,-4.7688,-4.7688,-4.7609,-4.6281,-4.5697,-4.5491,-4.3358,-4.1652,-4.0324,-3.9582,-3.8685,-3.7732,-3.7046,-3.6599,-3.6292,-3.6292,-3.6292,-3.6184,-3.5568,-3.4383,-3.3136,-3.249,-3.2244,0.0,0.0,-3.2224,-3.2399,-3.3045,-3.3033,-3.3035,-3.3634,-3.3562,-3.3305,-3.3305,-3.2317,-3.0823,0.0,-2.8427,-2.7916,-2.6332,0.0,-2.5962,-2.5741,-2.6257,-2.6924,-2.7565,-2.8739,-2.9523,-2.9581,-3.0161,-3.0277,-2.9639,-2.8915,-2.8222,-2.7533,-2.6071,-2.5161,-2.5105,-2.3237,-2.2137,-2.2025,-2.0252,0.0,0.0,0.0,0.0,0.0,0.0,0.0,0.0,0.0,0.0,0.0,0.0,0.0,0.0,0.0,0.0,0.0,0.0,0.0,0.0,0.0,0.0,0.0,0.0,0.0,0.0,0.0,0.0,-3.3839,-3.4906,0.0,-3.6495,-3.7796,-3.8715,-3.8974,-4.0046,-4.1454,-4.3168,-4.3265,-4.4253,-4.6407,-4.673,-4.7184,-4.7864,-4.7746,-4.7837,-4.8093,-4.7686,-4.764,-4.7893,-4.7893,-4.7893,-4.7877,-4.7372,-4.6882,-4.6392,-4.5634,-4.4259,-4.2537,-4.1825,-4.1185,-4.0556,-3.99,-3.9406,-3.9031,-3.8585,-3.8431,-3.8262,-3.7153,-3.6153,-3.526,-3.4583,-3.4104,-3.3752,-3.3744,-3.3748,-3.3826,-3.4048,-3.3895,-3.3707,-3.3924,-3.3742,-3.3499,-3.3499,-3.3125,-3.2587,-3.1884,-3.0387,-2.8991,-2.8207,-2.808,-2.7986,-2.7704,-2.7881,-2.8231,-2.8841,-2.932,-2.9784,-3.019,-3.0467,-3.051,-3.0248,-2.9522,-2.8742,-2.7996,-2.6958,-2.5972,-2.5127,-2.4385,-2.3431,-2.2222,-2.1538,-2.0665,0.0,0.0,0.0,0.0,0.0,0.0,0.0,0.0,0.0,0.0,0.0,0.0,0.0,0.0,0.0,0.0,0.0,0.0,0.0,0.0,0.0,0.0,0.0,0.0,0.0,0.0,-3.3922,-3.6108,-3.7159,-3.81,-3.9067,-4.0414,-4.1338,-4.1565,-4.2893,-4.4221,-4.5435,-4.5726,-4.6633,-4.8301,-4.8592,-4.8933,-4.9386,-4.9277,-4.9219,-4.9219,-4.878,-4.8573,-4.8573,-4.8573,-4.8573,-4.8573,-4.8335,-4.7956,-4.7482,-4.7261,-4.6218,-4.467,-4.3737,-4.301,-4.2381,-4.1944,-4.1546,-4.1135,-4.0709,-4.0213,-3.9674,-3.8816,-3.7908,-3.7092,-3.6645,-3.603,-3.5522,-3.5508,-3.5354,-3.5183,-3.5183,-3.4941,-3.4681,-3.4688,-3.4415,-3.4173,-3.4173,-3.3993,-3.3829,-3.3829,-3.2063,-3.0408,-2.9876,-2.9584,-2.9353,-2.9057,-2.9,-2.9232,-2.9871,-2.9943,-3.0103,-3.0554,-3.0598,-3.0568,-3.0507,-2.978,-2.91,-2.8482,-2.7499,-2.6525,-2.5626,-2.5231,-2.4416,-2.3178,-2.267,-2.196,-2.0978,0.0,0.0,0.0,0.0,0.0,0.0,0.0,0.0,0.0,0.0,0.0,0.0,0.0,0.0,0.0,0.0,0.0,0.0,0.0,0.0,0.0,0.0,0.0,-3.2696,-3.4684,-3.6887,-3.91,-3.9753,-4.0541,-4.1933,-4.2512,-4.3071,-4.3767,-4.5079,-4.6196,-4.6941,-4.7686,-4.8398,-4.9058,-4.9807,-5.0179,-5.0212,-5.0492,-5.0653,-5.0653,-5.0176,-4.9908,-4.9908,-4.9892,-4.9876,-4.9844,-4.9205,-4.8904,-4.8841,-4.8193,-4.7498,-4.6708,-4.5317,-4.4106,-4.3176,-4.3176,-4.2942,-4.2633,-4.2633,-4.174,-4.0551,-4.0536,-3.9628,-3.8569,-3.8554,-3.8061,-3.7523,-3.7523,-3.7046,-3.6538,-3.6538,-3.6256,-3.6014,-3.5987,-3.5752,-3.5504,-3.5504,-3.4981,-3.4533,-3.4533,-3.3469,-3.2244,-3.1309,-3.063,-3.0073,-2.974,-2.9682,0.0,-3.0583,-3.067,-3.067,-3.067,-3.067,-3.0565,-3.0355,-2.9658,-2.9152,-2.8917,-2.761,-2.6863,-2.6835,-2.5697,-2.5091,-2.5036,-2.3677,-2.2826,-2.2588,0.0,0.0,0.0,0.0,0.0,0.0,0.0,0.0,0.0,0.0,0.0,0.0,0.0,0.0,0.0,0.0,0.0,0.0,0.0,0.0,0.0,0.0,-3.4253,-3.4982,-3.6539,-3.8411,-4.058,-4.1766,-4.2739,-4.3506,-4.456,-4.539,-4.5987,-4.6876,-4.7929,-4.9143,-4.9418,-5.0082,-5.128,-5.1523,-5.1879,-5.243,-5.2211,-5.2125,-5.2109,-5.1144,-5.069,-5.0674,-5.0153,-4.9876,-4.9876,-4.9726,-4.9347,-4.8873,-4.8683,-4.8209,-4.7514,-4.6582,-4.5552,-4.4642,-4.4642,-4.4059,-4.3347,-4.3347,-4.274,-4.1955,-4.1463,-4.0709,-3.9844,-3.9351,-3.8769,-3.8231,-3.8231,-3.7728,-3.7235,-3.7235,-3.6628,-3.5985,-3.6019,-3.5752,-3.5504,-3.5504,-3.5355,-3.522,-3.522,-3.4517,-3.3631,-3.2653,-3.2326,-3.2085,-3.1745,-3.1698,0.0,-3.1961,-3.199,-3.199,-3.199,-3.199,-3.1739,-3.1075,-3.0704,-3.005,-2.8974,-2.8441,-2.7973,-2.7523,-2.7215,-2.6764,-2.6176,-2.4787,-2.4186,0.0,0.0,0.0,0.0,0.0,0.0,0.0,0.0,0.0,0.0,0.0,0.0,0.0,0.0,0.0,0.0,0.0,0.0,0.0,0.0,0.0,0.0,-3.4849,-3.6854,-3.8493,-3.9444,-4.0569,-4.2125,-4.3495,-4.4512,-4.5078,-4.5979,-4.6773,-4.7332,-4.8301,-4.924,-5.0066,-5.0665,-5.1345,-5.2171,-5.2511,-5.2883,-5.3281,-5.2901,-5.2701,-5.2685,-5.181,-5.1259,-5.0999,-5.0548,-5.02,0.0,-4.9876,-4.9694,-4.9331,-4.9331,-4.892,0.0,0.0,0.0,0.0,0.0,-4.4567,-4.4024,-4.4024,-4.3593,-4.291,-4.2232,-4.154,-4.0812,-4.012,-3.9428,-3.8939,-3.8939,-3.8455,-3.7918,-3.792,-3.7156,-3.6406,-3.6408,-3.5937,-3.5504,-3.5504,-3.5504,-3.5504,-3.5504,0.0,0.0,-3.4048,-3.3404,-3.291,-3.2655,-3.2559,-3.2481,-3.2481,-3.2481,-3.2481,-3.2481,-3.2481,-3.2272,-3.1628,-3.1246,0.0,0.0,0.0,-2.8422,-2.7833,-2.7805,0.0,0.0,0.0,-2.574,-2.5881,0.0,0.0,0.0,-2.3892,-2.4001,0.0,0.0,0.0,0.0,0.0,0.0,0.0,0.0,0.0,0.0,0.0,0.0,0.0,0.0,0.0,0.0,-3.7201,-3.962,-4.2241,-4.2837,-4.3234,-4.388,-4.5028,-4.5943,-4.6471,-4.7008,-4.7572,-4.8074,-4.9354,-5.0179,-5.0325,0.0,0.0,0.0,0.0,-5.3483,-5.3524,-5.3126,-5.2941,-5.2941,-5.2381,-5.1812,-5.1211,-5.1094,-5.0627,-5.0042,-4.9963,-4.9876,-4.9876,-4.9876,-4.9552,-4.8936,-4.8155,-4.7233,-4.6195,-4.5209,-4.4795,0.0,-4.4733,0.0,0.0,-4.2925,-4.2263,-4.1586,-4.0863,-4.0136,-3.9598,-3.9598,-3.9128,-3.8613,-3.8606,-3.7886,-3.7116,-3.7119,-3.6396,-3.5714,-3.5714,-3.5714,-3.5714,-3.5714,-3.5714,-3.5648,-3.5469,-3.4224,-3.3176,-3.3033,-3.2826,-3.2698,-3.2698,-3.2698,-3.2698,-3.2698,0.0,0.0,-3.2129,-3.1615,-3.1098,-3.0642,-2.9617,-2.879,-2.8255,-2.8127,-2.7965,-2.7704,-2.7605,-2.7454,-2.7199,-2.7746,-2.8017,-2.799,-2.6769,-2.6226,0.0,0.0,0.0,0.0,0.0,0.0,0.0,0.0,0.0,0.0,0.0,0.0,0.0,0.0,0.0,-3.7334,-3.9857,-4.2059,-4.3218,-4.4937,-4.6096,-4.6245,-4.6478,-4.683,-4.7258,-4.7862,-4.8393,-4.8771,-4.9613,-5.06,-5.1734,-5.2041,0.0,-5.3936,-5.4114,-5.4454,-5.5005,-5.4588,-5.4397,-5.4397,0.0,0.0,-5.2665,-5.1496,-5.0936,-5.0737,-5.0168,-4.9876,-4.9876,-4.9876,-4.9797,-4.956,-4.8175,-4.7401,-4.6959,-4.6602,-4.6005,-4.5403,-4.5403,-4.4979,-4.4317,-4.3639,-4.294,-4.2294,-4.1601,-4.0893,0.0,-4.0305,-3.9833,-3.9298,-3.9305,-3.8542,-3.7798,-3.7824,-3.7421,-3.7045,-3.7045,-3.7045,-3.7045,-3.7045,-3.7045,-3.7011,-3.6963,-3.5622,-3.4501,-3.4365,-3.4151,-3.4051,-3.4051,-3.4051,-3.4051,-3.4051,-3.4051,-3.3667,-3.2801,-3.2625,-3.2208,-3.1364,-3.1078,-3.0895,-3.0783,-3.0103,-2.9868,-3.019,-2.9572,-2.9408,-2.9713,-2.9835,-2.9889,-2.9862,-2.8641,-2.8265,0.0,0.0,0.0,0.0,0.0,0.0,0.0,0.0,0.0,0.0,0.0,-3.3607,0.0,0.0,-3.8112,-3.9587,-4.1612,-4.3433,-4.4556,-4.598,-4.6891,-4.6891,-4.7222,-4.7456,-4.7521,-4.8453,-4.9048,-4.8997,-5.0034,-5.1102,-5.2139,-5.256,-5.3272,-5.4373,-5.4729,-5.5069,-5.5409,-5.4989,-5.4813,-5.4813,-5.3983,-5.3423,-5.3092,-5.2365,-5.1843,-5.1448,-5.0753,-5.0453,-5.0421,-5.0074,-4.9876,-4.9813,-4.9056,-4.8334,-4.7676,-4.7122,-4.6569,-4.6034,-4.5711,-4.5357,-4.491,-4.3932,-4.3393,-4.291,-4.1909,-4.134,-4.0986,-4.0597,-4.0282,-4.001,-4.001,-3.9343,-3.8617,-3.8515,-3.7989,-3.7522,-3.7404,-3.7404,-3.7404,-3.7404,-3.7404,-3.7404,-3.7404,-3.6575,-3.577,-3.5345,-3.4787,-3.4414,-3.4414,-3.4414,-3.4414,-3.4414,-3.4414,-3.4114,-3.3459,-3.2942,-3.2334,-3.156,-3.1485,-3.1485,-3.1485,-3.0978,-3.0738,-3.0894,-3.0403,-3.0215,-3.0405,-3.0703,-3.0853,-3.0839,-3.0527,-3.0112,0.0,0.0,0.0,0.0,0.0,0.0,0.0,0.0,-3.3541,-3.3541,-3.5297,-3.7036,-3.7632,-3.8924,-4.0282,-4.1442,-4.2953,-4.4456,-4.5632,-4.656,-4.7106,-4.7106,-4.7636,-4.7869,-4.7571,-4.878,-4.9456,-4.9102,-5.0411,-5.1539,-5.2365,-5.2997,-5.3725,-5.4567,-5.5134,-5.5409,-5.5409,-5.4989,-5.4813,-5.4771,-5.4316,-5.3818,-5.3297,-5.3171,-5.2791,-5.2191,-5.148,-5.118,-5.1132,-5.0563,-5.0247,-5.0121,-5.0121,-4.9473,-4.8457,-4.7667,-4.715,-4.6806,-4.6212,-4.5803,-4.5403,-4.4348,-4.3824,-4.3408,-4.2309,-4.1899,-4.1637,-4.0905,-4.0709,-4.0682,-4.0555,-3.999,-3.9462,-3.9226,-3.8614,-3.8015,-3.7828,-3.7793,-3.7793,-3.7793,-3.7793,-3.7759,-3.7724,-3.7371,-3.688,-3.6202,-3.5249,-3.4603,-3.4603,-3.4486,-3.4414,-3.4414,-3.4414,-3.4244,-3.3931,-3.3083,-3.237,-3.1878,-3.185,-3.1893,-3.2019,-3.1782,-3.1653,-3.1613,-3.137,-3.1175,-3.1062,-3.1585,-3.1816,-3.1829,-3.2254,-3.1726,-3.2158,-3.184,-3.1887,-3.2479,-3.3056,-3.3644,0.0,0.0,-3.6622,-3.6622,-3.8361,-3.9945,-4.0028,-4.1193,-4.2175,-4.234,-4.4175,-4.5599,-4.5765,-4.699,-4.7885,-4.7885,-4.7951,-4.7935,-4.7721,-4.8849,-4.9526,-4.9297,-5.0485,-5.1766,-5.3126,-5.3249,-5.3896,-5.5264,-5.5377,-5.5409,-5.5409,-5.4989,-5.4813,-5.4771,-5.4316,-5.4055,-5.3976,-5.3376,-5.306,-5.2949,-5.2207,-5.1891,-5.1891,-5.1812,-5.1417,-5.0904,-5.0904,-5.0301,-4.9432,-4.9153,-4.8522,-4.7809,-4.75,-4.6603,-4.5572,-4.5418,-4.4594,-4.3578,-4.3424,-4.2978,-4.237,-4.1658,-4.1461,-4.1326,-4.0666,-4.0351,-4.0161,-3.994,-3.9672,-3.9435,-3.9221,-3.92,-3.92,-3.92,-3.92,-3.9113,-3.8918,-3.8278,-3.7544,-3.6895,-3.5921,-3.529,-3.529,-3.4762,-3.4414,-3.4414,-3.4414,-3.4244,-3.3931,-3.3479,-3.315,-3.308,-3.308,-3.3333,-3.388,-3.352,-3.3615,-3.4181,-3.3741,-3.3501,-3.3515,-3.3582,-3.3609,-3.3609,-3.35,-3.2704,-3.3643,0.0,0.0,0.0,-3.5837,-3.6204,-3.7311,-3.8339,-3.9007,-3.9007,-4.0067,-4.111,-4.1541,-4.2092,-4.2638,0.0,-4.4638,-4.5798,-4.5798,-4.7073,-4.8001,-4.8001,-4.8001,-4.7935,-4.7704,-4.8833,-4.9526,-4.9333,-5.0485,-5.1815,-5.32,-5.3281,-5.3968,-5.5377,-5.5409,-5.5409,-5.5409,-5.4989,-5.4813,-5.4771,-5.4316,-5.4103,-5.4087,-5.3818,-5.3698,-5.3624,-5.2928,-5.2412,-5.2017,-5.2017,-5.1843,-5.1575,-5.1575,-5.1344,-5.0875,-4.9734,-4.8998,-4.8475,-4.7839,-4.7234,-4.6696,-4.6311,-4.5526,-4.4702,-4.4317,-4.3713,-4.3025,-4.2371,-4.1917,-4.1531,-4.1201,-4.0789,-4.0347,-4.0081,-3.9925,-3.9783,-3.946,-3.9723,-3.9993,-3.9993,-4.0307,-4.0368,-3.9765,-3.9313,-3.8745,-3.7937,-3.6741,-3.5909,-3.5909,-3.5677,-3.5372,-3.5009,-3.4475,-3.4198,-3.4411,-3.4073,-3.3978,-3.4365,-3.443,-3.4506,-3.4759,-3.4381,-3.4319,-3.4596,-3.4151,-3.3908,-3.3908,-3.3908,-3.3908,-3.3908,-3.3677,-3.3229,-3.5385,0.0,0.0,-3.7872,-3.8313,-3.863,-3.9827,-4.0612,-4.1034,-4.1006,-4.1541,-4.2158,-4.2688,-4.2787,-4.2969,-4.3499,-4.4671,-4.5566,-4.5765,-4.6891,-4.7769,-4.7984,-4.8001,-4.7935,-4.7787,-4.8884,-4.9526,-4.9368,-5.0521,-5.1815,-5.32,-5.3281,-5.3968,-5.5377,-5.5409,-5.5409,-5.5409,-5.5072,-5.4838,-5.4813,-5.4401,-5.413,-5.4103,-5.4103,-5.4094,-5.4089,-5.3603,-5.3076,-5.2586,-5.2586,-5.2475,-5.2317,-5.2317,-5.2191,-5.185,-5.0458,-4.9702,-4.9238,-4.8507,-4.7952,-4.7527,-4.7034,-4.6419,-4.5741,-4.5095,-4.4524,-4.3967,-4.3134,-4.2541,-4.2111,-4.1914,-4.1484,-4.1003,-4.0629,-4.0557,-4.0434,-4.0036,-4.0337,-4.0666,-4.0666,-4.1055,-4.1144,-4.0441,-4.003,-3.9562,-3.8792,-3.7623,-3.6765,-3.6606,-3.6417,-3.6127,-3.5697,-3.4899,-3.4582,-3.5025,-3.4709,-3.4674,-3.5161,-3.5189,-3.5259,-3.5442,-3.5044,-3.4913,-3.5093,-3.4642,-3.4395,-3.4395,-3.4395,-3.4395,-3.4395,-3.4122,-3.3925,0.0,0.0,-3.9031,-3.9657,-4.0355,-4.1026,-4.1516,-4.2182,-4.2687,-4.2481,-4.3019,-4.3532,-4.3565,-4.3565,-4.3565,-4.3598,-4.4241,-4.497,-4.5698,-4.6444,-4.7206,-4.7918,-4.8001,-4.8001,0.0,-4.8952,-4.9613,-4.9597,-5.0595,-5.1815,-5.32,-5.3281,-5.3968,-5.5377,-5.5409,-5.5409,-5.5409,-5.518,-5.5005,-5.4813,-5.4513,-5.4285,-5.4103,-5.4103,-5.4087,-5.4087,-5.4071,-5.4055,-5.404,-5.404,-5.366,-5.3076,-5.3076,-5.2633,-5.196,-5.1706,-5.1059,-5.0232,-4.9993,-4.8919,-4.7604,-4.7588,-4.7111,-4.6449,-4.5747,-4.555,-4.5239,-4.3929,-4.3552,-4.3383,-4.2741,-4.2533,-4.2431,-4.2049,-4.1938,-4.1827,-4.1438,-4.1377,-4.1354,-4.1354,-4.1407,-4.1255,-4.0858,-4.0212,-3.9648,-3.9252,-3.858,-3.7941,-3.7346,-3.6707,-3.6301,-3.6272,-3.5885,-3.5653,-3.5668,-3.5368,-3.5175,-3.5189,-3.5189,-3.5456,-3.6061,-3.5617,-3.5675,-3.6336,-3.587,-3.5669,-3.5669,-3.5669,-3.5669,-3.5615,-3.5223,-3.5073,-3.9165,0.0,-4.0882,-4.2588,-4.3097,-4.3356,-4.3999,-4.4194,-4.4097,-4.3556,-4.3522,-4.3598,-4.3598,-4.3598,-4.3598,-4.3598,-4.4224,-4.4967,-4.5682,-4.6427,-4.7173,-4.7918,-4.8431,0.0,0.0,0.0,0.0,-4.9613,-5.0595,-5.1815,-5.32,-5.3281,-5.3968,-5.5377,-5.5409,-5.5409,-5.5409,-5.518,-5.5005,-5.4813,-5.4401,-5.4173,-5.4103,-5.4103,-5.4103,-5.4103,-5.4103,-5.4103,-5.4103,-5.4103,-5.3976,-5.3755,-5.3755,-5.3613,-5.3392,-5.3307,-5.2696,-5.1768,-5.0963,-4.9939,-4.8989,-4.8989,-4.8204,-4.7225,-4.7007,-4.632,-4.5494,-4.5064,-4.4288,-4.3559,-4.3319,-4.2934,-4.2529,-4.2242,-4.211,-4.191,-4.1671,-4.1828,-4.2066,-4.2066,-4.2387,-4.238,-4.1558,-4.1229,-4.0632,-3.9397,-3.8638,-3.813,-3.7926,-3.736,-3.6896,-3.6772,-3.6114,-3.5845,-3.6125,-3.5944,-3.5977,-3.6385,-3.6399,-3.6511,-3.6708,-3.6309,-3.6363,-3.6985,-3.6525,-3.651,-3.6875,-3.6875,-3.6875,-3.6862,-3.6054,-3.57,-4.0933,-4.183,-4.2828,-4.4553,-4.5105,-4.5226,-4.537,-4.5215,-4.477,-4.3727,-4.3335,-4.3118,-4.2853,-4.2804,-4.2886,-4.3151,-4.3611,-4.4357,-4.5616,-4.6195,-4.6974,-4.8249,-4.8812,-4.921,0.0,0.0,0.0,-4.999,-5.1043,-5.215,-5.3256,-5.3563,-5.4227,-5.5377,-5.5409,-5.5409,-5.5409,-5.5262,-5.5072,-5.4813,-5.4401,-5.4173,-5.4103,-5.4356,-5.4604,-5.4865,-5.4857,-5.4703,-5.4466,-5.4466,-5.4324,-5.4103,-5.4103,-5.4103,-5.4103,-5.4103,-5.369,-5.2946,-5.1857,-5.0933,-5.0117,-4.9801,-4.9097,-4.826,-4.7751,-4.6996,-4.6205,-4.574,-4.4964,-4.4262,-4.4024,-4.3618,-4.3273,-4.3072,-4.2848,-4.266,-4.247,-4.2752,-4.2985,-4.2761,-4.324,-4.3319,-4.2227,-4.1718,-4.0988,-3.9431,-3.8826,-3.8463,-3.8231,-3.7868,-3.7548,-3.7339,-3.6751,-3.6479,-3.6703,-3.6555,-3.661,-3.6964,-3.6978,-3.7091,-3.7302,-3.6948,-3.7013,-3.7606,-3.7152,-3.7134,-3.7485,-3.7485,-3.7485,-3.7485,-3.6657,-3.6193,-4.2885,-4.4062,-4.4902,-4.5635,-4.6312,-4.657,-4.5669,-4.5303,-4.4687,-4.3122,-4.2601,-4.2175,0.0,0.0,-4.1595,-4.2357,-4.2489,-4.328,-4.5483,-4.5798,-4.6609,0.0,0.0,0.0,0.0,0.0,0.0,-5.0831,0.0,-5.2752,-5.3337,-5.4033,-5.4713,-5.5393,-5.5409,-5.5409,-5.5409,-5.5369,-5.518,-5.4813,-5.4539,-5.4285,-5.4119,-5.4814,-5.547,-5.6149,-5.6167,-5.5809,-5.5134,-5.5102,-5.4751,-5.415,-5.4103,-5.4103,-5.4103,-5.4103,-5.399,-5.3695,-5.2778,-5.1861,-5.0933,-5.0071,-4.9731,-4.9477,-4.8057,-4.7633,-4.7339,-4.6076,-4.5633,-4.5434,-4.4841,-4.4641,-4.4549,-4.4389,-4.4227,-4.4009,-4.3859,-4.4103,-4.4182,-4.3514,-4.3873,-4.3945,-4.2931,-4.1895,-4.0728,-3.9479,-3.9276,-3.8986,-3.8289,-3.8202,-3.8142,-3.7891,-3.7701,-3.7495,-3.7303,-3.7109,-3.6978,-3.6978,-3.7021,-3.7288,-3.7878,-3.756,-3.7634,-3.8228,-3.778,-3.7553,-3.758,-3.758,-3.758,-3.758,-3.7056,-3.6564,-4.413,-4.5246,-4.6413,-4.7158,-4.7073,-4.6735,-4.649,-4.5375,-4.4114,-4.3165,-4.1871,-4.1028,0.0,0.0,0.0,-4.2291,-4.2489,0.0,-4.5483,-4.5798,0.0,-4.8845,0.0,-5.022,-5.0932,-5.2106,0.0,0.0,-5.2501,-5.2963,-5.4065,-5.4308,-5.4713,-5.5393,-5.5409,-5.5409,-5.5409,-5.5262,-5.5113,-5.5031,-5.4581,-5.4354,-5.4343,-5.4842,-5.5193,-5.5395,-5.598,-5.6078,-5.5873,-5.5351,-5.4991,-5.4814,-5.4308,-5.4103,-5.4103,-5.4103,-5.406,-5.3958,-5.3585,-5.2852,-5.1892,-5.0964,-5.0321,-4.9738,-4.867,-4.7988,-4.7538,-4.7194,-4.6388,-4.5541,-4.5372,-4.4957,-4.471,-4.518,-4.4991,-4.4868,-4.5329,-4.5232,-4.499,-4.4825,-4.4419,-4.3946,-4.3522,-4.2691,-4.1744,-4.0768,-4.0191,-3.9465,-3.8347,-3.8202,-3.8066,-3.7701,-3.7625,-3.7457,-3.7109,-3.7017,-3.6978,-3.6978,-3.7414,-3.7737,-3.7892,-3.8098,-3.8394,-3.8849,-3.8622,-3.8583,-3.8844,-3.8844,-3.8756,-3.8553,-3.7802,-3.7316,-4.5771,-4.665,-4.7462,-4.8206,-4.7834,-4.7107,-4.6464,-4.5168,-4.3612,-4.1915,-4.0667,0.0,-3.957,0.0,0.0,0.0,0.0,0.0,-4.4953,-4.5582,-4.6742,0.0,-4.9955,0.0,-5.2092,-5.2937,-5.3609,0.0,-5.376,-5.3867,-5.45,-5.4721,-5.5021,-5.5409,-5.5409,-5.5409,-5.5409,-5.5303,-5.5196,-5.5113,-5.4848,-5.4549,-5.429,-5.4955,-5.5514,-5.5914,0.0,-5.6473,-5.6157,-5.5762,-5.5241,-5.464,-5.4245,-5.4103,-5.4103,-5.4103,-5.4103,-5.4103,-5.399,-5.3609,-5.2907,-5.1573,-5.0878,-5.033,-4.9155,-4.8528,-4.8136,-4.7737,-4.7065,-4.6403,-4.6111,-4.5757,-4.5557,-4.5942,-4.5718,-4.5561,-4.5941,-4.5875,-4.5738,-4.5738,-4.481,-4.3923,-4.3744,-4.2981,-4.2091,-4.1233,-4.0525,-3.9741,-3.8768,-3.8376,-3.8052,-3.7649,-3.7625,-3.7419,-3.7017,-3.6978,-3.7091,-3.7372,-3.7709,-3.8145,-3.8707,-3.8852,-3.9061,-3.9485,-3.9296,-3.9243,-3.9305,-3.9305,-3.9145,-3.8895,-3.8363,-3.7829,-4.7361,-4.7956,-4.8189,-4.8731,-4.8308,-4.7378,-4.5889,-4.4579,-4.2892,-4.0256,0.0,-3.8387,-3.7301,-3.6953,-3.735,-3.9033,0.0,-4.142,-4.4274,-4.5317,-4.6891,-4.9856,-5.0303,-5.1164,-5.3218,-5.3599,-5.4155,-5.5276,-5.5226,-5.5097,-5.4838,-5.5207,-5.5466,-5.5409,-5.5409,-5.5409,-5.5409,-5.5409,-5.5303,-5.5155,-5.5113,-5.4784,-5.4253,-5.5112,-5.5927,-5.674,0.0,0.0,-5.6173,-5.6078,-5.532,-5.4229,-5.4134,-5.4103,-5.4103,-5.4103,-5.4103,-5.4103,-5.4103,-5.4103,-5.3828,-5.2059,-5.1436,-5.1075,-4.9558,-4.9078,-4.8835,-4.7978,-4.7665,-4.7465,-4.688,-4.6665,-4.6619,-4.6711,-4.6421,-4.6143,-4.626,-4.6373,-4.6414,-4.6414,-4.5287,-4.4202,-4.3891,-4.314,-4.2249,-4.1363,-4.0583,-3.99,-3.9392,-3.8667,-3.8052,-3.7649,-3.7625,-3.7419,-3.7017,-3.6978,-3.7245,-3.7864,-3.7976,-3.8552,-3.9732,-3.9648,-3.9728,-3.9996,-3.9818,-3.9584,-3.9305,-3.9305,-3.9118,-3.8801,-3.8639,-3.8148,-4.7648,-4.8359,-4.8697,-4.8193,-4.7547,-4.6599,-4.5139,-4.3025,0.0,0.0,-3.7561,-3.5959,-3.692,-3.6108,-3.6158,-3.8868,0.0,0.0,0.0,0.0,-4.6891,0.0,0.0,0.0,0.0,0.0,0.0,0.0,0.0,0.0,-5.5643,-5.5677,-5.5645,-5.5409,-5.5409,-5.5409,-5.5409,-5.5409,-5.5369,-5.5344,-5.5196,-5.5056,-5.4931,-5.5331,-5.5605,-5.5752,0.0,0.0,-5.6141,-5.5557,-5.5134,-5.4849,-5.4324,-5.4103,-5.4103,-5.4103,-5.4103,-5.4103,-5.4103,-5.4103,-5.3934,-5.2804,-5.2083,-5.1405,-5.0196,-4.943,-4.8908,-4.8522,-4.8035,-4.7573,-4.7465,-4.7019,-4.6742,-4.7296,-4.714,-4.6978,-4.7551,-4.7382,-4.713,-4.713,-4.6459,-4.5603,-4.4674,-4.3941,-4.3113,-4.2087,-4.0887,-4.006,-3.9958,-3.8928,-3.8052,-3.7649,-3.7625,-3.7419,-3.7017,-3.6978,-3.7245,-3.7864,-3.8397,-3.9071,-3.9746,-4.0224,-4.0332,-3.9996,-3.9966,-3.9747,-3.9305,-3.9305,-3.8915,-3.8222,-3.851,-3.8148,-4.7716,-4.8443,-4.8832,-4.8075,-4.7073,-4.5838,-4.4316,0.0,0.0,0.0,-3.6337,-3.4883,-3.4816,0.0,0.0,0.0,0.0,0.0,0.0,0.0,0.0,0.0,0.0,0.0,0.0,0.0,0.0,0.0,0.0,0.0,-5.6126,-5.5886,-5.5685,-5.5409,-5.5409,-5.5409,-5.5409,-5.5409,-5.5409,-5.5409,-5.5303,-5.518,-5.5088,-5.5217,-5.5373,-5.5525,-5.5728,0.0,-5.5604,-5.5228,-5.4881,-5.4561,-5.4229,-5.4103,-5.4103,-5.4103,-5.4103,-5.4103,-5.4103,-5.4103,-5.404,-5.3564,-5.2734,-5.1619,-5.0486,-4.9693,-4.9087,-4.8702,-4.8373,-4.8127,-4.8127,-4.7896,-4.7727,-4.805,-4.7812,-4.7558,-4.7606,-4.7467,-4.7309,-4.7309,-4.6486,-4.5568,-4.4961,-4.3906,-4.2975,-4.2368,-4.1026,-4.0104,-4.0104,-3.8986,-3.8052,-3.7649,-3.7625,-3.7419,-3.7017,-3.6978,-3.7245,-3.7864,-3.851,-3.9183,-3.976,-4.0378,-4.0487,-3.9996,-3.9996,-3.9777,-3.9305,-3.8993,-3.8563,-3.8118,-3.793,-3.7536,-4.7428,-4.8105,-4.8359,-4.7631,-4.6447,-4.5026,-4.3335,-4.1129,0.0,0.0,-3.5238,-3.4054,-3.2895,0.0,0.0,0.0,0.0,0.0,0.0,0.0,0.0,0.0,0.0,0.0,0.0,0.0,0.0,0.0,0.0,0.0,-5.6424,-5.6006,-5.5685,-5.5507,-5.5409,-5.5409,-5.5409,-5.5409,-5.5409,-5.5409,-5.5409,-5.5303,-5.5155,-5.5113,-5.5211,-5.5399,-5.5372,0.0,0.0,-5.4936,-5.462,-5.4103,-5.4103,-5.4103,-5.4103,-5.4103,-5.4103,-5.4103,-5.4103,-5.4103,-5.4103,-5.4103,-5.3165,-5.1808,-5.0835,-4.9973,-4.9194,-4.8744,-4.862,-4.862,-4.862,-4.862,-4.8578,-4.8495,-4.8244,-4.788,-4.7381,-4.7309,-4.7309,-4.7309,-4.6337,-4.5385,-4.5057,-4.3841,-4.281,-4.2447,-4.1106,-4.0104,-4.0104,-3.8986,-3.8052,-3.7649,-3.7625,-3.7419,-3.7017,-3.6978,-3.7245,-3.7864,-3.851,-3.9183,-3.976,-4.0378,-4.0487,-3.9996,-3.9996,-3.9777,-3.9305,-3.883,-3.839,-3.796,-3.758,-3.7069,-4.6515,-4.6938,-4.6819,-4.6092,-4.5297,-4.4141,-4.1914,0.0,0.0,-3.5867,-3.4072,-3.2868,-3.2735,-3.2768,-3.3243,0.0,0.0,-3.8931,0.0,0.0,0.0,0.0,0.0,0.0,0.0,0.0,0.0,0.0,0.0,0.0,0.0,-5.6006,-5.5782,-5.5782,-5.5507,-5.5409,-5.5409,-5.5409,-5.5409,-5.5409,-5.5409,-5.5369,-5.5385,-5.518,-5.5104,-5.5127,0.0,0.0,0.0,-5.4449,-5.4306,-5.4103,-5.4103,-5.4103,-5.4103,-5.4103,-5.4103,-5.4103,-5.4103,-5.4103,-5.4103,-5.4103,-5.3144,-5.1894,-5.144,-5.0351,-4.9194,-4.8744,-4.862,-4.862,-4.862,-4.862,-4.8495,-4.8133,-4.8049,-4.788,-4.7381,-4.7309,-4.7309,-4.7309,-4.6726,-4.5953,-4.5132,-4.4211,-4.3325,-4.2521,-4.1106,-4.0104,-4.0104,-3.8986,-3.8052,-3.7649,-3.7625,-3.7419,-3.7017,-3.6978,-3.7245,-3.7864,-3.851,-3.9183,-3.976,-4.0378,-4.0487,-3.9996,-3.9996,-3.9777,-3.9305,-3.9237,-3.8624,-3.7538,-3.7852,-3.7429,-4.5162,-4.5788,-4.5957,-4.5213,-4.4451,-4.3301,-4.1068,0.0,0.0,-3.5013,-3.3256,-3.1901,-3.147,-3.21,-3.2901,0.0,0.0,0.0,0.0,0.0,0.0,0.0,0.0,0.0,0.0,0.0,0.0,0.0,0.0,0.0,0.0,-5.6307,-5.6046,-5.5823,-5.5702,-5.5548,-5.5409,-5.5409,-5.5409,-5.5409,-5.5409,-5.5409,-5.5409,-5.5303,-5.5221,-5.5113,0.0,0.0,0.0,-5.4655,-5.4513,-5.4285,-5.4285,-5.4215,-5.4103,-5.4103,-5.4103,-5.4103,-5.4103,-5.4103,-5.4103,-5.4103,-5.345,-5.2507,-5.1659,-5.044,-4.9194,-4.8744,-4.862,-4.862,-4.862,-4.862,-4.8537,-4.826,-4.8091,-4.788,-4.7553,-4.7396,-4.7309,-4.7309,-4.6441,-4.5577,-4.5224,-4.4024,-4.2979,-4.2651,-4.1169,-4.011,-4.0108,-3.8986,-3.8089,-3.7815,-3.7663,-3.7419,-3.7017,-3.6978,-3.7091,-3.733,-3.8354,-3.9015,-3.9268,-4.0182,-4.0487,-3.9996,-3.9996,-3.9777,-3.9305,-3.8952,-3.8532,-3.8014,-3.747,-3.6857,-4.3369,-4.413,-4.457,-4.4056,-4.3166,-4.1965,0.0,0.0,0.0,-3.4197,-3.2695,-3.1426,-3.0638,-3.1702,-3.2702,0.0,0.0,-3.7615,0.0,0.0,0.0,0.0,0.0,0.0,0.0,0.0,0.0,0.0,0.0,0.0,0.0,-5.658,-5.6346,-5.5983,-5.5943,-5.5766,-5.5507,-5.5458,-5.5401,-5.5409,-5.5409,-5.5409,-5.5409,-5.5409,-5.5344,-5.5196,0.0,0.0,0.0,-5.488,-5.4739,-5.4497,-5.4454,-5.4327,-5.4173,-5.413,-5.4103,-5.4103,-5.4103,-5.4103,-5.4103,-5.4103,-5.3645,-5.2897,-5.1768,-5.0539,-4.9459,-4.879,-4.862,-4.862,-4.862,-4.862,-4.8537,-4.8328,-4.8175,-4.7922,-4.7681,-4.7424,-4.7309,-4.7309,-4.6217,-4.5289,-4.5289,-4.3909,-4.275,-4.2729,-4.1453,-4.0383,-4.0137,-3.916,-3.8359,-3.7958,-3.7739,-3.7457,-3.7109,-3.7017,-3.6978,-3.6978,-3.8213,-3.8902,-3.8902,-4.0041,-4.0487,-3.9996,-3.9996,-3.9777,-3.9305,-3.8884,-3.8586,-3.8396,-3.7365,-3.6562,-4.1035,-4.1762,-4.232,-4.232,-4.123,-3.9943,0.0,0.0,-3.5048,-3.3448,-3.241,-3.1532,-3.0659,-3.1702,-3.2702,-3.2702,-3.5181,0.0,0.0,0.0,0.0,0.0,0.0,0.0,0.0,0.0,0.0,0.0,0.0,0.0,0.0,-5.668,-5.6603,-5.6385,-5.6205,-5.6006,-5.5782,-5.5523,-5.5385,-5.5409,-5.5409,-5.5409,-5.5409,-5.5409,-5.5409,0.0,0.0,0.0,0.0,-5.5113,-5.4964,-5.4771,-5.4497,-5.4396,-5.4354,-5.4173,-5.4103,-5.4103,-5.4103,-5.4103,-5.4103,-5.4103,-5.3645,-5.2897,-5.1768,-5.0866,-5.0066,-4.8929,-4.862,-4.862,-4.862,-4.862,-4.8537,-4.8328,-4.8175,-4.7922,-4.7681,-4.7424,-4.7309,-4.7309,-4.6217,-4.5289,-4.5289,-4.402,-4.2915,-4.2729,-4.1968,-4.1069,-4.0216,-3.9567,-3.8866,-3.8001,-3.7739,-3.7495,-3.7303,-3.7109,-3.6978,-3.6978,-3.8213,-3.8902,-3.8902,-4.0041,-4.0487,-3.9996,-3.9996,-3.9777,-3.9305,-3.9292,-3.8993,-3.841,-3.7756,-3.6751,-3.936,-3.9868,-4.0037,-4.0037,-3.9681,-3.887,-3.7094,0.0,-3.4275,-3.2672,-3.1642,-3.0933,-3.0559,-3.1702,-3.2702,-3.2702,-3.5181,0.0,0.0,0.0,0.0,0.0,0.0,0.0,0.0,0.0,0.0,0.0,0.0,0.0,0.0,0.0,-5.6619,-5.6424,-5.6346,-5.6205,-5.6023,-5.5757,-5.5677,-5.5685,-5.5507,-5.5409,-5.5409,-5.5409,0.0,0.0,0.0,0.0,0.0,-5.5303,-5.5196,-5.5005,-5.489,-5.4665,-5.4396,-5.4327,-5.4215,-5.4103,-5.4103,-5.4103,-5.4103,-5.4103,-5.3645,-5.2897,-5.1768,-5.0882,-5.0066,-4.8929,-4.862,-4.862,-4.862,-4.8266,-4.7886,-4.7845,-4.7206,-4.6613,-4.6516,-4.6184,-4.5933,-4.5933,-4.5233,-4.4624,-4.4646,-4.3717,-4.2906,-4.2714,-4.1974,-4.1242,-4.0844,-4.022,-3.9702,-3.9406,-3.9106,-3.8445,-3.7398,-3.749,-3.7611,-3.7611,-3.8791,-3.9535,-3.9535,-4.0266,-4.0487,-3.9996,-3.9996,-3.9777,-3.9305,-3.9305,-3.8993,-3.841,-3.777,-3.7052,0.0,-3.7499,-3.7719,-3.7719,-3.7499,0.0,0.0,0.0,0.0,-3.2219,-3.1349,-3.0795,-3.0912,-3.1885,-3.2884,-3.3448,-3.5545,0.0,0.0,0.0,0.0,0.0,0.0,0.0,0.0,0.0,0.0,0.0,0.0,0.0,0.0,0.0,-5.6641,-5.6541,-5.6502,-5.6424,-5.6205,-5.6086,-5.5943,-5.5782,-5.5645,-5.5507,-5.5409,-5.5409,0.0,0.0,0.0,0.0,0.0,-5.5409,-5.5344,-5.5196,-5.5129,-5.4864,-5.4513,-5.4433,-5.4247,-5.4103,-5.4103,-5.4103,-5.4103,-5.4103,-5.3343,-5.2277,-5.1278,-5.0351,-4.9491,-4.881,-4.862,-4.862,-4.862,-4.8112,-4.7563,-4.7482,-4.6732,-4.5976,-4.5895,-4.5593,-4.5289,-4.5289,-4.4769,-4.431,-4.4276,-4.3623,-4.3016,-4.2754,-4.2246,-4.1698,-4.1163,-4.0728,-4.0379,-4.0118,-3.983,-3.9208,-3.8211,-3.8206,-3.8271,-3.8271,-3.9226,-3.9788,-3.9788,-4.0378,-4.053,-4.0154,-4.0053,-3.9834,-3.9452,-3.9349,-3.8884,-3.8027,-3.7662,-3.7038,0.0,-3.481,0.0,0.0,0.0,0.0,0.0,0.0,0.0,-3.1972,-3.1377,-3.1028,-3.1508,-3.2199,-3.3176,-3.4651,-3.6191,0.0,0.0,0.0,0.0,0.0,0.0,0.0,0.0,0.0,0.0,0.0,0.0,0.0,0.0,0.0,-5.6531,-5.6531,-5.6531,-5.6503,-5.6424,-5.6424,-5.6188,-5.5823,-5.5823,-5.5685,-5.5426,-5.5409,0.0,0.0,0.0,0.0,0.0,-5.5409,-5.5409,-5.5385,-5.5171,-5.498,-5.4787,-5.4502,-5.4283,-5.4103,-5.4103,-5.4103,-5.4087,-5.3976,-5.2748,-5.1162,-5.0445,-4.9445,-4.862,-4.862,-4.862,-4.8604,-4.8558,-4.8035,-4.7486,-4.7237,-4.6473,-4.5799,-4.5611,-4.5335,-4.5155,-4.5155,-4.4661,-4.4242,-4.4242,-4.3693,-4.317,-4.2769,-4.2688,-4.232,-4.1276,-4.1163,-4.0931,-4.0307,-4.0065,-3.9865,-3.965,-3.9231,-3.8972,-3.8972,-3.9549,-3.9845,-3.9845,-4.0393,-4.0559,-4.0329,-4.0041,-3.9823,-3.9631,-3.9424,-3.8708,-3.7553,-3.7512,-3.6862,-3.1038,0.0,-3.3909,-3.3909,-3.3795,-3.3508,0.0,0.0,0.0,0.0,0.0,0.0,0.0,-3.2199,-3.3176,-3.4651,-3.6622,0.0,0.0,0.0,0.0,0.0,0.0,0.0,0.0,0.0,0.0,0.0,0.0,0.0,0.0,0.0,-5.504,-5.504,-5.504,-5.5532,-5.6603,-5.6463,-5.6346,-5.6284,-5.5943,-5.5782,-5.5702,-5.5507,0.0,0.0,0.0,0.0,-5.5409,-5.5409,-5.5409,-5.5426,-5.5344,-5.5113,-5.4771,-5.4719,-5.4433,-5.4103,-5.4103,-5.4103,-5.3913,-5.2839,-5.1617,-5.0429,-4.9727,-4.9114,-4.862,-4.862,-4.862,-4.8496,-4.7973,-4.7342,-4.6656,-4.5951,-4.5087,-4.4419,-4.4222,-4.3968,-4.3753,-4.3753,-4.3618,-4.3529,-4.3529,-4.3394,-4.317,-4.2769,-4.2688,-4.2482,-4.1915,-4.186,-4.1802,-4.1642,-4.1423,-4.1243,-4.1173,-4.0331,-3.973,-3.9605,-4.014,-4.0491,-4.0491,-4.0617,-4.0349,-3.9632,-3.9233,-3.8974,-3.8945,-3.9176,-3.8925,-3.8163,-3.7702,-3.7121,-3.0023,-3.1224,-3.2391,-3.2391,-3.2391,-3.229,-3.1904,0.0,0.0,0.0,0.0,0.0,0.0,0.0,0.0,0.0,-3.7483,0.0,0.0,0.0,0.0,0.0,0.0,0.0,0.0,0.0,0.0,0.0,0.0,0.0,0.0,0.0,-5.449,-5.449,-5.473,-5.5111,-5.5686,-5.5572,-5.5474,-5.5397,-5.5509,-5.5476,-5.5294,-5.5499,0.0,0.0,0.0,0.0,-5.5409,-5.5409,-5.5409,-5.5409,-5.5409,-5.5155,-5.4813,-5.4819,-5.4492,-5.4103,-5.4103,-5.3897,-5.3471,-5.2365,-5.124,-5.0164,-4.9478,-4.899,-4.862,-4.862,-4.862,-4.8466,-4.7773,-4.7096,-4.6355,-4.5404,-4.4591,-4.391,-4.3596,-4.3384,-4.329,-4.329,-4.329,-4.329,-4.329,-4.329,-4.317,-4.2769,-4.2688,-4.2541,-4.2133,-4.2092,-4.2092,-4.2092,-4.1968,-4.1814,-4.1702,-4.1178,-4.07,-4.0351,-4.0548,-4.0702,-4.0702,-4.0421,-3.9859,-3.8992,-3.8641,-3.843,-3.8288,-3.8415,-3.8179,-3.7582,-3.7256,-3.6782,-2.9736,-3.0463,-3.1055,-3.1157,-3.1275,-3.136,-3.134,0.0,0.0,0.0,0.0,0.0,0.0,-3.4568,0.0,0.0,0.0,0.0,0.0,0.0,0.0,0.0,0.0,0.0,0.0,0.0,0.0,0.0,0.0,0.0,0.0,0.0,0.0,-5.4195,-5.4621,-5.4638,-5.4195,-5.4324,-5.4349,-5.4244,-5.4837,-5.4941,-5.4639,-5.5317,-5.5515,0.0,0.0,0.0,-5.5409,-5.5409,-5.5409,-5.5409,-5.5409,-5.5155,-5.4787,-5.4825,-5.4481,-5.4103,-5.4103,-5.3597,-5.2839,-5.2207,-5.1177,-5.0024,-4.9447,-4.899,-4.862,-4.862,-4.862,-4.8435,-4.765,-4.7034,-4.6284,-4.5124,-4.4397,-4.3871,-4.3409,-4.329,-4.329,-4.329,-4.329,-4.329,-4.329,-4.329,-4.317,-4.2809,-4.2729,-4.2581,-4.2216,-4.2133,-4.2092,-4.2092,-4.2092,-4.1995,-4.1785,-4.1744,-4.1521,-4.1128,-4.0887,-4.0702,-4.0561,-3.9971,-3.927,-3.8434,-3.8228,-3.7965,-3.7729,-3.76,-3.7202,-3.6605,-3.6687,-3.6415,-2.8941,-2.9702,-3.0429,-3.1038,-3.1684,-3.21,-3.1995,0.0,0.0,0.0,0.0,0.0,0.0,0.0,0.0,0.0,0.0,0.0,0.0,0.0,0.0,0.0,0.0,0.0,0.0,0.0,0.0,0.0,0.0,0.0,0.0,0.0,0.0,-5.2705,-5.279,-5.2807,-5.2705,-5.3522,-5.4097,-5.4452,-5.4418,-5.4316,-5.4273,-5.4685,-5.4834,0.0,0.0,-5.5409,-5.5409,-5.5409,-5.5409,-5.5409,-5.5409,-5.5155,-5.4813,-5.4787,-5.4518,-5.4103,-5.4103,-5.325,-5.2159,-5.2049,-5.0847,-4.9415,-4.9347,-4.899,-4.862,-4.862,-4.862,-4.8327,-4.7065,-4.668,-4.6217,-4.4545,-4.4063,-4.3871,-4.3409,-4.329,-4.329,-4.329,-4.329,-4.329,-4.329,-4.329,-4.321,-4.2996,-4.2795,-4.2622,-4.2392,-4.2216,-4.2092,-4.2092,-4.2092,-4.2092,-4.2036,-4.1841,-4.1646,-4.1604,-4.117,-4.0647,-3.9985,-3.938,-3.8707,-3.802,-3.7792,-3.7604,-3.74,-3.7633,-3.7343,-3.6605,-3.7134,-3.7053,-2.8146,-2.8924,-2.977,-3.092,-3.1752,-3.2253,-3.2143,-3.2945,0.0,0.0,0.0,0.0,0.0,0.0,0.0,0.0,0.0,0.0,0.0,0.0,0.0,0.0,0.0,0.0,0.0,0.0,0.0,0.0,0.0,0.0,0.0,0.0,0.0,0.0,-5.2409,-5.2409,-5.2409,-5.2851,-5.3129,-5.3367,-5.3638,-5.3705,-5.36,-5.4159,-5.4323,-5.4132,0.0,-5.498,-5.4891,-5.5264,-5.5409,-5.5409,-5.5409,-5.5155,-5.4771,-5.4502,-5.4274,-5.4103,-5.4103,-5.3186,-5.196,-5.1877,-5.0687,-4.9275,-4.9184,-4.8883,-4.8543,-4.8173,-4.8065,-4.7835,-4.685,-4.6326,-4.5725,-4.4332,-4.3988,-4.3871,-4.3409,-4.329,-4.3185,-4.288,-4.2806,-4.2701,-4.2342,-4.2282,-4.2309,-4.2456,-4.2382,-4.233,-4.2389,-4.2325,-4.2201,-4.2092,-4.2092,-4.2092,-4.2092,-4.1995,-4.1758,-4.1353,-4.1128,-4.0491,-3.9366,-3.9057,-3.8438,-3.7428,-3.7205,-3.7059,-3.6979,-3.6919,-3.6853,-3.677,-3.6945,-3.7053,-2.7604,-2.8383,-2.9348,-3.0818,0.0,-3.2587,-3.2774,-3.3806,0.0,0.0,0.0,0.0,0.0,0.0,0.0,0.0,0.0,0.0,0.0,0.0,0.0,0.0,0.0,0.0,0.0,0.0,0.0,0.0,0.0,0.0,0.0,0.0,0.0,0.0,-5.2409,-5.2409,-5.2409,-5.2409,-5.2409,-5.2426,-5.292,-5.3089,-5.2984,-5.3646,-5.3738,-5.3464,-5.414,-5.4426,-5.4438,-5.4956,-5.528,-5.5409,-5.5409,-5.5155,-5.4729,-5.4274,-5.4103,-5.4071,-5.3913,-5.306,-5.1944,-5.158,-5.0479,-4.9275,-4.9078,-4.8692,-4.8266,-4.7758,-4.7373,-4.7004,-4.6496,-4.5972,-4.5341,-4.4334,-4.4011,-4.391,-4.3503,-4.3329,-4.3135,-4.253,-4.2396,-4.2186,-4.1527,-4.1422,-4.1511,-4.1796,-4.1831,-4.1829,-4.1986,-4.1979,-4.1857,-4.1668,-4.1628,-4.1628,-4.1628,-4.1773,-4.1598,-4.1013,-4.0958,-4.0435,-3.9169,-3.9127,-3.8522,-3.7217,-3.706,-3.69,-3.6721,-3.6503,-3.6551,-3.6894,-3.6973,-3.7284,-2.7604,-2.8383,-2.9348,-3.0818,-3.2273,0.0,-3.4717,-3.5619,0.0,-3.7733,0.0,0.0,0.0,0.0,0.0,0.0,0.0,0.0,0.0,0.0,0.0,0.0,0.0,0.0,0.0,0.0,0.0,0.0,0.0,0.0,0.0,0.0,0.0,0.0,0.0,-5.2409,-5.2409,-5.2409,-5.2409,-5.2409,-5.2459,-5.2456,-5.2454,-5.2966,-5.3058,-5.2882,-5.3449,-5.3955,-5.4405,-5.4454,-5.4843,-5.5409,-5.5409,-5.5155,-5.4729,-5.4274,-5.4103,-5.4008,-5.3392,-5.2665,-5.1865,-5.1045,-5.0119,-4.9275,-4.9078,-4.8368,-4.7665,-4.7619,-4.6696,-4.5726,-4.5664,-4.5634,-4.538,-4.4473,-4.4143,-4.3949,-4.3729,-4.3463,-4.3135,-4.253,-4.2396,-4.2186,-4.1527,-4.1422,-4.1399,-4.1444,-4.1269,-4.1092,-4.0943,-4.0695,-4.0485,-4.0288,-4.0234,-4.0234,-4.0234,-4.08,-4.1056,-4.0826,-4.0913,-4.0633,-3.9788,-3.9718,-3.9128,-3.7864,-3.7835,-3.745,-3.6721,-3.7052,-3.7125,-3.6907,-3.7844,-3.8315,-2.6928,-2.8027,-2.9348,-3.0818,-3.26,0.0,0.0,-3.6475,-3.7878,-3.8712,-3.9802,0.0,0.0,0.0,0.0,0.0,0.0,0.0,0.0,0.0,0.0,0.0,0.0,0.0,0.0,0.0,0.0,0.0,0.0,0.0,0.0,0.0,0.0,0.0,0.0,-5.1032,-5.1032,-5.1045,-5.1045,-5.1048,-5.1943,-5.2409,-5.239,-5.2583,-5.2571,-5.2401,-5.2887,-5.3155,-5.3233,-5.3587,-5.4146,-5.4786,-5.4952,-5.4633,-5.4083,-5.364,-5.3186,-5.276,-5.2507,-5.1954,-5.1281,-5.0646,-4.9653,-4.8627,-4.8248,-4.7608,-4.688,-4.6465,-4.5972,-4.5588,-4.5588,-4.528,-4.4857,-4.4419,-4.4127,-4.3949,-4.3729,-4.3503,-4.3015,-4.1991,-4.1771,-4.1435,-4.033,-4.0172,-4.0307,-4.0711,-4.0718,-4.0694,-4.0805,-4.0713,-4.0529,-4.0128,-4.0104,-4.0104,-4.0104,-4.0713,-4.1024,-4.0809,-4.108,-4.0886,-4.0026,-3.9872,-3.9381,-3.8524,-3.8496,-3.8357,-3.8052,-3.8059,-3.8104,-3.8282,-3.8536,-3.8744,-2.6776,-2.7994,-2.9416,-3.1125,0.0,0.0,-3.5944,-3.7528,-3.8975,-3.9806,-4.111,0.0,0.0,0.0,0.0,0.0,0.0,0.0,0.0,0.0,0.0,0.0,0.0,0.0,0.0,0.0,0.0,0.0,0.0,0.0,0.0,0.0,0.0,0.0,0.0,0.0,-5.0206,-5.0201,-5.0201,-5.0222,-5.1232,-5.1694,-5.1694,-5.1962,-5.1936,-5.1786,-5.2261,-5.2501,-5.252,-5.2848,-5.3402,-5.4058,-5.4195,-5.3862,-5.3348,-5.2952,-5.2485,-5.1986,-5.1764,-5.1369,-5.0855,-4.9969,-4.9057,-4.8166,-4.7478,-4.6819,-4.6188,-4.5711,-4.5434,-4.5264,-4.5264,-4.4926,-4.4587,-4.4435,-4.4243,-4.4026,-4.3847,-4.3596,-4.3094,-4.1946,-4.1547,-4.1039,-3.9911,-3.9559,-3.9574,-4.0023,-4.0069,-4.0137,-4.026,-4.0193,-3.9988,-3.9533,-3.9494,-3.9494,-3.9494,-4.0292,-4.0746,-4.0599,-4.1173,-4.1154,-4.042,-4.0196,-3.9788,-3.9211,-3.9197,-3.9099,-3.8902,-3.8824,-3.8922,-3.9197,-3.9133,-3.9188,-2.7401,-2.8399,-2.9534,0.0,0.0,0.0,-3.7828,-3.9013,-3.9864,-4.1172,0.0,-4.3598,-4.3598,0.0,0.0,0.0,0.0,0.0,0.0,0.0,0.0,0.0,0.0,0.0,0.0,0.0,0.0,0.0,0.0,0.0,0.0,0.0,0.0,0.0,0.0,0.0,-5.0175,-5.0189,-5.0189,-5.0175,-5.0189,-5.0204,-5.0237,-5.0949,-5.1159,-5.1032,-5.1576,-5.206,-5.2471,-5.2264,-5.2641,-5.3265,-5.3068,-5.2869,-5.2645,-5.2386,-5.2166,-5.1891,-5.1195,-5.0999,-5.0681,-4.8889,-4.8292,-4.8073,-4.6923,-4.6111,-4.5572,-4.5572,-4.5095,-4.461,-4.461,-4.461,-4.461,-4.461,-4.4473,-4.4243,-4.405,-4.3832,-4.344,-4.2569,-4.1871,-4.1175,-4.0516,-3.9858,-3.9388,-3.9388,-3.9388,-3.9337,-3.9104,-3.8907,-3.8634,-3.824,-3.8202,-3.8202,-3.8202,-3.9363,-4.0089,-4.0104,-4.1105,-4.1464,-4.1043,-4.0802,-4.0407,-3.9802,-3.9788,-3.9535,-3.893,-3.9243,-3.9409,-3.9423,-3.9631,-3.97,-2.7249,-2.8772,0.0,-3.1887,0.0,0.0,0.0,-3.9361,0.0,0.0,0.0,0.0,0.0,0.0,0.0,0.0,0.0,0.0,0.0,0.0,0.0,0.0,0.0,0.0,0.0,0.0,0.0,0.0,0.0,0.0,0.0,0.0,0.0,0.0,0.0,0.0,-4.8663,-4.863,-4.863,-4.8663,-4.863,-4.921,-5.022,-5.0436,-5.0484,-5.0464,-5.1015,-5.1248,-5.1292,-5.1934,-5.2333,-5.2537,-5.2875,-5.2564,-5.1917,-5.1694,-5.0818,-4.9789,-4.9584,-4.9205,-4.8669,-4.7801,-4.7216,-4.6702,-4.6059,-4.5418,-4.4918,-4.4918,-4.4764,-4.461,-4.461,-4.461,-4.461,-4.461,-4.4473,-4.4243,-4.405,-4.3832,-4.344,-4.2569,-4.1876,-4.1188,-4.0509,-3.9858,-3.9388,-3.9388,-3.9388,-3.9294,-3.8922,-3.8693,-3.8516,-3.824,-3.8202,-3.8202,-3.8202,-3.8986,-3.9654,-4.0075,-4.0715,-4.1132,-4.1283,-4.1057,-4.076,-4.0435,-4.0421,-4.0336,-4.0154,-4.0251,-4.0221,-4.012,-4.0172,-4.0007,-2.7588,-2.9178,0.0,-3.229,-3.4527,-3.6892,-3.9128,0.0,0.0,0.0,0.0,0.0,0.0,0.0,0.0,0.0,0.0,0.0,0.0,0.0,0.0,0.0,0.0,0.0,0.0,0.0,0.0,0.0,0.0,0.0,0.0,0.0,0.0,0.0,0.0,0.0,-4.8001,-4.8001,-4.8001,-4.8001,-4.8001,-4.8481,-4.9342,-4.9641,-4.9773,-4.9789,-5.0241,-5.0454,-5.0493,-5.1134,-5.1539,-5.1815,-5.1862,-5.1405,-5.0717,-5.0345,-4.9492,-4.8494,-4.8494,-4.8241,-4.777,-4.702,-4.653,-4.6064,-4.5418,-4.491,-4.461,-4.461,-4.461,-4.461,-4.461,-4.461,-4.461,-4.461,-4.4473,-4.4243,-4.405,-4.3832,-4.3515,-4.2875,-4.2025,-4.1285,-4.0876,-4.0023,-3.9388,-3.9388,-3.9388,-3.928,-3.8944,-3.8804,-3.8627,-3.8366,-3.8315,-3.8277,-3.8202,-3.8812,-3.9363,-3.9712,-4.0492,-4.1009,-4.1135,-4.1056,-4.0916,-4.0816,-4.073,-4.0702,-4.0702,-4.0702,-4.0616,-4.0515,-4.0442,-4.0168,-2.8096,0.0,0.0,-3.2865,-3.4964,0.0,-4.0641,0.0,0.0,0.0,0.0,0.0,0.0,0.0,0.0,0.0,0.0,0.0,0.0,0.0,0.0,0.0,0.0,0.0,0.0,0.0,0.0,0.0,0.0,0.0,0.0,0.0,0.0,0.0,0.0,0.0,-4.8001,-4.8001,-4.8001,0.0,-4.8001,-4.8001,-4.8017,-4.8696,-4.9044,-4.9076,-4.9362,-4.9697,-5.0038,-5.0001,-5.039,-5.0924,-5.026,-4.9763,-4.9347,-4.8738,-4.8206,-4.7798,-4.7798,-4.7767,-4.7517,-4.6479,-4.6109,-4.5908,-4.4924,-4.461,-4.461,-4.461,-4.461,-4.461,-4.461,-4.461,-4.461,-4.461,-4.4473,-4.4243,-4.405,-4.3832,-4.3596,-4.3344,-4.2282,-4.1422,-4.1422,-4.0292,-3.9388,-3.9388,-3.9388,-3.9337,-3.9141,-3.9104,-3.8958,-3.8553,-3.8516,-3.8441,-3.824,-3.8754,-3.9131,-3.9204,-4.0292,-4.0879,-4.0749,-4.0954,-4.1043,-4.1001,-4.0816,-4.0702,-4.0702,-4.0702,-4.0702,-4.0702,-4.0515,-4.0298,-2.7418,-2.9482,0.0,0.0,0.0,0.0,0.0,0.0,0.0,0.0,0.0,0.0,0.0,0.0,0.0,0.0,0.0,0.0,0.0,0.0,0.0,0.0,0.0,0.0,0.0,0.0,0.0,0.0,0.0,0.0,0.0,0.0,0.0,0.0,0.0,-4.8001,-4.8001,-4.8001,-4.8001,0.0,-4.8001,-4.8001,-4.8017,-4.8166,-4.8481,-4.8858,-4.8785,-4.9001,-4.9457,-4.9276,-4.9354,-4.9467,-4.9321,-4.9001,-4.8706,-4.8562,-4.7888,-4.704,-4.704,-4.6692,-4.6161,-4.5597,-4.5438,-4.5316,-4.4785,-4.461,-4.461,-4.461,-4.461,-4.461,-4.461,-4.461,-4.461,-4.461,-4.4473,-4.4243,-4.405,-4.3832,-4.3596,-4.3344,-4.2282,-4.1422,-4.1422,-4.0292,-3.9388,-3.9388,-3.9388,-3.9337,-3.9141,-3.9104,-3.9031,-3.876,-3.8575,-3.8478,-3.8441,-3.8408,-3.8638,-3.9175,-3.9465,-3.9789,-4.0213,-4.1083,-4.1395,-4.1001,-4.0958,-4.0845,-4.0702,-4.0702,-4.0702,-4.0702,-4.0659,-4.0501,0.0,0.0,0.0,0.0,0.0,0.0,0.0,0.0,0.0,0.0,0.0,0.0,0.0,0.0,0.0,0.0,0.0,0.0,0.0,0.0,0.0,0.0,0.0,0.0,0.0,0.0,0.0,0.0,0.0,0.0,0.0,0.0,0.0,0.0,-4.8001,-4.8001,-4.8001,-4.8001,-4.8001,-4.8001,-4.8001,-4.8001,-4.8001,-4.7886,-4.7968,-4.8163,-4.7976,-4.8162,-4.867,-4.8563,-4.8702,-4.8961,-4.8673,-4.8292,-4.7917,-4.7581,-4.6959,-4.6329,-4.6329,-4.6092,-4.5735,-4.5331,-4.5182,-4.5129,-4.4739,-4.461,-4.461,-4.461,-4.461,-4.461,-4.461,-4.461,-4.461,-4.461,-4.4358,-4.4143,-4.4026,-4.3497,-4.3037,-4.2905,-4.1803,-4.0905,-4.0905,-4.0083,-3.9388,-3.9388,-3.9388,-3.9337,-3.9265,-3.9228,-3.9177,-3.898,-3.8848,-3.8701,-3.8516,-3.8404,-3.8475,-3.8696,-3.903,-3.9349,-3.9654,-4.0477,-4.0869,-4.0729,-4.0887,-4.0887,-4.0702,-4.0702,-4.0702,-4.0702,-4.0702,-4.0587,0.0,0.0,0.0,0.0,0.0,0.0,0.0,0.0,0.0,0.0,0.0,0.0,0.0,0.0,0.0,0.0,0.0,0.0,0.0,0.0,0.0,0.0,0.0,0.0,0.0,0.0,0.0,0.0,0.0,0.0,0.0,0.0,-4.7934,-4.7819,-4.7819,-4.7752,-4.762,-4.762,-4.762,-4.762,-4.762,-4.762,-4.762,-4.7507,-4.7473,-4.747,-4.7285,-4.7422,-4.7815,-4.7815,-4.8155,-4.8592,-4.8042,-4.7552,-4.7149,-4.6522,-4.608,-4.5807,-4.5807,-4.5807,-4.5735,-4.5368,-4.522,-4.5145,-4.4776,-4.461,-4.461,-4.461,-4.461,-4.461,-4.461,-4.4533,-4.444,-4.444,-4.4022,-4.3669,-4.379,-4.2967,-4.2231,-4.2231,-4.122,-4.0367,-4.0247,-3.9783,-3.9388,-3.9388,-3.9388,-3.9388,-3.9388,-3.9388,-3.9337,-3.9177,-3.9104,-3.8958,-3.8627,-3.8553,-3.8441,-3.824,-3.8725,-3.903,-3.903,-3.9625,-3.9993,-4.0108,-4.0629,-4.0802,-4.059,-4.0688,-4.0702,-4.0702,-4.0702,-4.063,0.0,0.0,0.0,0.0,0.0,0.0,0.0,0.0,0.0,0.0,0.0,0.0,0.0,0.0,0.0,0.0,0.0,0.0,0.0,0.0,0.0,0.0,0.0,0.0,0.0,0.0,0.0,0.0,0.0,0.0,0.0,-4.8001,-4.7703,-4.7073,-4.704,-4.6742,-4.6096,-4.6079,-4.6079,-4.6079,-4.6079,-4.6079,-4.6113,-4.6437,-4.6897,-4.747,-4.7285,-4.7129,-4.7038,-4.7038,-4.7087,-4.7151,-4.707,-4.6794,-4.6426,-4.6346,-4.608,-4.5807,-4.5807,-4.5807,-4.5771,-4.5552,-4.5331,-4.5182,-4.4927,-4.4723,-4.461,-4.461,-4.461,-4.461,-4.461,-4.4178,-4.3747,-4.3747,-4.2967,-4.2424,-4.3001,-4.2289,-4.1504,-4.1504,-4.0905,-4.0217,-3.9649,-3.9448,-3.9388,-3.9388,-3.9388,-3.9388,-3.9388,-3.9388,-3.9388,-3.9337,-3.9177,-3.9068,-3.9031,-3.8701,-3.8478,-3.8441,-3.8364,-3.8333,-3.8333,-3.8971,-3.9233,-3.9042,-3.9965,-4.0388,-4.0166,-4.052,-4.0702,-4.0702,-4.0702,-4.0702,-2.5561,0.0,0.0,0.0,0.0,0.0,0.0,0.0,0.0,0.0,0.0,0.0,0.0,0.0,0.0,0.0,0.0,0.0,0.0,0.0,0.0,0.0,0.0,0.0,0.0,0.0,0.0,0.0,0.0,0.0,-4.7111,-4.7095,-4.6749,-4.6025,-4.6104,-4.6019,-4.5689,-4.5767,-4.5798,-4.5798,-4.5798,-4.5767,-4.5689,-4.5748,-4.6209,-4.6897,-4.7004,-4.6996,-4.6876,-4.6876,-4.6876,-4.6876,-4.6876,-4.6649,-4.6298,-4.6298,-4.608,-4.5807,-4.5807,-4.5807,-4.5771,-4.5552,-4.5368,-4.5182,-4.4964,-4.4761,-4.461,-4.461,-4.461,-4.4533,-4.4148,-4.3824,-4.3516,-4.311,-4.2328,-4.166,-4.1854,-4.1339,-4.0726,-4.0352,-4.0053,-3.9768,-3.9433,-3.9388,-3.9388,-3.9388,-3.9388,-3.9388,-3.9388,-3.9388,-3.9388,-3.9388,-3.9301,-3.9228,-3.9104,-3.8922,-3.8738,-3.8516,-3.8404,-3.8315,-3.8202,-3.8478,-3.86,-3.8457,-3.9398,-3.9945,-4.0081,-4.0182,-4.0364,-4.0702,-4.0702,-4.0702,0.0,0.0,0.0,0.0,0.0,0.0,0.0,0.0,0.0,0.0,0.0,0.0,0.0,0.0,0.0,0.0,0.0,0.0,0.0,0.0,0.0,0.0,0.0,0.0,0.0,0.0,0.0,0.0,0.0,0.0,-4.6143,-4.611,-4.5766,-4.5029,-4.5156,-4.5169,-4.505,-4.5158,-4.5235,-4.5235,-4.5235,-4.5158,-4.5019,-4.5043,-4.5308,-4.5816,-4.6364,-4.6601,-4.6617,-4.6811,-4.6876,-4.6876,-4.6842,-4.6615,-4.6314,-4.6243,-4.5917,-4.5539,-4.5539,-4.5539,-4.5503,-4.5358,-4.5248,-4.5182,-4.5002,-4.4814,-4.461,-4.461,-4.461,-4.4471,-4.3778,-4.3485,-4.3156,-4.2509,-4.1674,-4.099,-4.0739,-4.0398,-4.0008,-3.9514,-3.9388,-3.9388,-3.9388,-3.9388,-3.9388,-3.9388,-3.9388,-3.9388,-3.9388,-3.9388,-3.9388,-3.9388,-3.9388,-3.9337,-3.9177,-3.9141,-3.8958,-3.859,-3.8516,-3.8404,-3.8202,-3.8202,-3.8202,-3.8202,-3.8798,-3.9284,-3.9681,-3.959,-3.9859,-4.0463,-4.0463,-4.0547,0.0,0.0,0.0,0.0,0.0,0.0,0.0,0.0,0.0,0.0,0.0,0.0,0.0,0.0,0.0,0.0,0.0,0.0,0.0,0.0,0.0,0.0,0.0,0.0,0.0,0.0,0.0,0.0,0.0,0.0,-4.5357,-4.5357,-4.5013,-4.4276,-4.4259,-4.4025,-4.3534,-4.3654,-4.3698,-4.3698,-4.3698,-4.3638,-4.352,-4.4041,-4.4198,-4.417,-4.534,-4.5856,-4.5905,-4.6601,-4.6876,-4.6876,-4.6703,-4.6493,-4.6262,-4.6168,-4.556,-4.4764,-4.4764,-4.4764,-4.4764,-4.4745,-4.495,-4.5182,-4.5182,-4.4905,-4.461,-4.461,-4.461,-4.4471,-4.3778,-4.311,-4.2479,-4.1817,-4.0984,-4.0252,-3.9849,-3.9598,-3.9454,-3.9388,-3.9388,-3.9388,-3.9388,-3.9388,-3.9388,-3.9388,-3.9388,-3.9388,-3.9388,-3.9388,-3.9388,-3.9388,-3.9388,-3.9388,-3.9388,-3.9228,-3.9017,-3.8797,-3.8627,-3.8404,-3.8202,-3.8202,-3.8202,-3.8202,-3.8063,-3.8179,-3.8574,-3.8825,-3.9282,-3.9831,-3.9831,-4.014,0.0,0.0,0.0,0.0,0.0,0.0,0.0,0.0,0.0,0.0,0.0,0.0,0.0,0.0,0.0,0.0,0.0,0.0,0.0,0.0,0.0,0.0,0.0,0.0,0.0,0.0,0.0,0.0,0.0,0.0,-4.4301,-4.4285,-4.396,-4.3196,-4.3305,-4.3377,-4.3419,-4.3449,-4.3492,-4.3598,-4.3598,-4.3462,-4.3221,-4.3406,-4.3351,-4.3134,-4.4075,-4.4723,-4.5176,-4.5435,-4.5532,-4.5532,-4.533,-4.511,-4.4955,-4.4798,-4.4465,-4.4069,-4.4053,-4.4053,-4.4117,-4.4575,-4.4605,-4.4574,-4.5042,-4.4905,-4.461,-4.461,-4.4302,-4.3809,-4.3125,-4.2463,-4.1786,-4.1078,-4.048,-4.0066,-3.9925,-3.964,-3.9388,-3.9388,-3.9388,-3.9388,-3.9388,-3.9388,-3.9388,-3.9388,-3.9388,-3.9388,-3.9388,-3.9388,-3.9388,-3.9388,-3.9388,-3.9388,-3.9388,-3.9337,-3.9228,-3.9017,-3.8797,-3.8612,-3.8404,-3.8277,-3.8202,-3.8202,-3.7991,-3.8093,-3.8514,-3.8465,-3.8702,-3.924,-3.924,-3.9352,-2.1294,0.0,0.0,0.0,0.0,0.0,0.0,0.0,0.0,0.0,0.0,0.0,0.0,0.0,0.0,0.0,0.0,0.0,0.0,0.0,0.0,0.0,0.0,0.0,0.0,0.0,0.0,0.0,0.0,0.0,-4.3379,-4.3314,-4.3104,-4.2619,-4.2806,-4.3023,-4.3221,-4.3281,-4.3342,-4.3432,-4.3432,-4.3281,-4.3021,-4.3021,-4.2867,-4.2635,-4.3104,-4.3767,-4.4447,-4.469,-4.4787,-4.4754,-4.4506,-4.4338,-4.4188,-4.3965,-4.3667,-4.3374,-4.3342,-4.3342,-4.3453,-4.4078,-4.4192,-4.4232,-4.4911,-4.4852,-4.4564,-4.4348,-4.3947,-4.3408,-4.2494,-4.1755,-4.1089,-4.0543,-4.0207,-3.996,-3.9925,-3.964,-3.9388,-3.9388,-3.9388,-3.9388,-3.9388,-3.9388,-3.9388,-3.9388,-3.9388,-3.9388,-3.9388,-3.9388,-3.9388,-3.9388,-3.9388,-3.9388,-3.9388,-3.9388,-3.9301,-3.9104,-3.8907,-3.8723,-3.8516,-3.8315,-3.8202,-3.8202,-3.8066,-3.8055,-3.82,-3.8005,-3.8119,-3.8538,-3.8538,-3.8538,0.0,0.0,0.0,0.0,0.0,0.0,0.0,0.0,0.0,0.0,0.0,0.0,0.0,0.0,0.0,0.0,0.0,0.0,0.0,0.0,0.0,0.0,0.0,0.0,0.0,0.0,0.0,0.0,0.0,-4.2602,-4.2602,-4.2602,-4.2602,-4.2602,-4.2806,-4.2899,-4.2899,-4.3021,-4.3113,-4.3113,-4.3113,-4.3021,-4.2899,-4.2899,-4.2806,-4.2602,-4.2602,-4.3007,-4.3735,-4.4431,-4.4723,-4.469,-4.4308,-4.4124,-4.409,-4.3746,-4.3232,-4.2663,-4.2663,-4.2679,-4.2771,-4.3245,-4.3709,-4.4195,-4.4747,-4.4761,-4.4471,-4.3793,-4.3593,-4.327,-4.1909,-4.1047,-4.047,-4.0331,-4.0137,-3.9925,-3.9732,-3.9553,-3.9388,-3.9388,-3.9388,-3.9388,-3.9388,-3.9388,-3.9388,-3.9388,-3.9388,-3.9388,-3.9388,-3.9388,-3.9388,-3.9388,-3.9388,-3.9388,-3.9388,-3.9388,-3.9301,-3.9104,-3.8907,-3.8723,-3.8516,-3.8315,-3.8202,-3.8202,-3.8202,-3.8014,-3.7625,-3.7419,-3.7483,-3.7864,-3.7864,-3.7758,-2.0758,0.0,0.0,0.0,0.0,0.0,0.0,0.0,0.0,0.0,0.0,0.0,0.0,0.0,0.0,0.0,0.0,0.0,0.0,0.0,0.0,0.0,0.0,0.0,0.0,0.0,0.0,0.0,-4.2602,-4.2602,-4.2602,-4.2602,-4.2602,-4.2602,-4.2665,-4.2728,-4.2899,-4.293,-4.3007,-4.3113,-4.3113,-4.3021,-4.2899,-4.2899,-4.2806,-4.2602,-4.2602,-4.2716,-4.291,-4.3104,-4.3169,-4.3041,-4.2799,-4.2603,-4.2504,-4.2289,-4.2062,-4.1889,-4.1889,-4.2236,-4.2771,-4.3245,-4.3709,-4.4195,-4.4747,-4.4761,-4.4471,-4.3793,-4.3233,-4.2556,-4.1186,-4.0643,-4.047,-4.0331,-4.0137,-3.9925,-3.9732,-3.9553,-3.9388,-3.9388,-3.9388,-3.9388,-3.9388,-3.9388,-3.9388,-3.9388,-3.9388,-3.9388,-3.9388,-3.9388,-3.9388,-3.9388,-3.9388,-3.9388,-3.9388,-3.9388,-3.9388,-3.9301,-3.898,-3.8797,-3.8723,-3.8389,-3.8202,-3.8202,-3.8202,-3.8066,-3.7815,-3.7625,-3.7427,-3.7245,-3.7245,-3.7128,0.0,0.0,0.0,0.0,0.0,0.0,0.0,-2.6621,0.0,0.0,0.0,0.0,0.0,0.0,0.0,0.0,0.0,0.0,0.0,0.0,0.0,0.0,0.0,0.0,0.0,0.0,0.0,0.0,-4.2602,-4.2602,-4.2602,-4.2602,-4.2602,-4.2602,-4.2602,-4.2665,-4.2759,-4.2759,-4.2821,-4.2898,-4.2898,-4.2852,-4.2759,-4.2759,-4.2696,-4.2602,-4.2602,-4.2602,-4.2602,-4.2539,-4.2476,-4.2381,-4.2174,-4.2029,-4.1897,-4.2018,-4.2047,-4.2094,-4.2378,-4.2724,-4.3079,-4.3529,-4.38,-4.407,-4.462,-4.4685,-4.4425,-4.3433,-4.2479,-4.152,-4.0705,-4.0489,-4.047,-4.0331,-4.0137,-3.9925,-3.9732,-3.9553,-3.9388,-3.9388,-3.9388,-3.9388,-3.9388,-3.9388,-3.9388,-3.9388,-3.9388,-3.9388,-3.9388,-3.9388,-3.9388,-3.9388,-3.9388,-3.9388,-3.9388,-3.9388,-3.9388,-3.9388,-3.9104,-3.8907,-3.8782,-3.8501,-3.8277,-3.8202,-3.8202,-3.8066,-3.7777,-3.7663,-3.738,-3.6978,-3.6978,-3.6954,0.0,0.0,0.0,0.0,0.0,0.0,-2.5903,-2.6453,-2.6812,0.0,0.0,0.0,0.0,0.0,0.0,0.0,0.0,0.0,0.0,0.0,0.0,0.0,0.0,0.0,0.0,0.0,-4.1711,-4.2311,-4.2376,-4.2393,-4.249,-4.249,-4.2506,-4.2602,-4.2602,-4.2602,-4.2602,-4.2602,-4.2602,-4.2602,-4.2602,-4.2602,-4.2602,-4.2602,-4.2602,-4.2602,-4.2602,-4.2602,-4.2571,-4.2445,-4.2381,-4.2349,-4.2142,-4.206,-4.2039,-4.2525,-4.2742,-4.29,-4.35,-4.3614,-4.358,-4.3977,-4.4008,-4.401,-4.4463,-4.461,-4.4295,-4.2987,-4.1601,-4.0489,-4.0489,-4.0489,-4.047,-4.0331,-4.0172,-3.996,-3.9768,-3.9553,-3.9424,-3.9409,-3.9388,-3.9388,-3.9388,-3.9388,-3.9388,-3.9388,-3.9388,-3.9388,-3.9388,-3.9388,-3.9388,-3.9388,-3.9388,-3.9388,-3.9388,-3.9388,-3.9388,-3.9388,-3.9228,-3.9017,-3.8819,-3.8627,-3.8404,-3.8202,-3.8202,-3.8014,-3.7625,-3.7586,-3.738,-3.6978,-3.6978,-3.6978,0.0,0.0,0.0,0.0,0.0,0.0,-2.5155,-2.5642,-2.6239,0.0,0.0,0.0,0.0,0.0,0.0,0.0,0.0,0.0,0.0,0.0,0.0,0.0,0.0,0.0,0.0,0.0,-4.0756,-4.0901,-4.091,-4.1173,-4.1754,-4.1803,-4.2026,-4.2586,-4.2602,-4.2602,-4.2602,-4.2602,-4.2602,-4.2602,-4.2602,-4.2602,-4.2602,-4.2602,-4.2602,-4.2602,-4.2602,-4.2539,-4.2445,-4.2413,-4.2318,-4.2142,-4.198,-4.2182,-4.2572,-4.2665,-4.3042,-4.3497,-4.364,-4.3929,-4.4208,-4.4117,-4.4371,-4.4666,-4.4617,-4.461,-4.4295,-4.2987,-4.1601,-4.0489,-4.0489,-4.0489,-4.047,-4.0331,-4.0277,-4.0121,-3.9803,-3.9661,-3.9589,-3.9424,-3.9388,-3.9388,-3.9388,-3.9388,-3.9388,-3.9388,-3.9388,-3.9388,-3.9388,-3.9388,-3.9388,-3.9388,-3.9388,-3.9388,-3.9388,-3.9388,-3.9388,-3.9388,-3.9228,-3.9017,-3.8819,-3.8627,-3.8404,-3.8202,-3.8202,-3.8104,-3.7853,-3.7495,-3.7226,-3.6978,-3.6978,-3.6978,0.0,0.0,0.0,-2.5658,0.0,0.0,0.0,-2.5691,-2.5977,0.0,0.0,0.0,0.0,0.0,0.0,0.0,0.0,0.0,0.0,0.0,0.0,0.0,0.0,0.0,0.0,0.0,-3.9735,-4.0432,-4.0501,-4.0667,-4.1041,-4.1042,-4.1362,-4.2083,-4.2099,-4.2278,-4.2602,-4.2602,-4.2602,-4.2602,-4.2602,-4.2602,-4.2602,-4.2602,-4.2602,-4.2602,-4.2539,-4.2476,-4.2381,-4.2238,-4.2077,-4.2012,-4.2297,-4.253,-4.2774,-4.3453,-4.3911,-4.424,-4.4603,-4.4771,-4.4783,-4.4674,-4.467,-4.4723,-4.461,-4.411,-4.3464,-4.2802,-4.1601,-4.0489,-4.0489,-4.0489,-4.0489,-4.0401,-4.0347,-4.0226,-4.0051,-3.9824,-3.9661,-3.9589,-3.9445,-3.9388,-3.9388,-3.9388,-3.9388,-3.9388,-3.9388,-3.9388,-3.9388,-3.9388,-3.9388,-3.9388,-3.9388,-3.9388,-3.9388,-3.9388,-3.9388,-3.9388,-3.9301,-3.9104,-3.8819,-3.8686,-3.8501,-3.8202,-3.8202,-3.8104,-3.7891,-3.79,-3.7639,-3.7148,-3.707,-3.7147,0.0,0.0,0.0,0.0,0.0,-2.6366,0.0,0.0,0.0,0.0,0.0,0.0,0.0,0.0,0.0,0.0,0.0,0.0,0.0,0.0,0.0,0.0,0.0,0.0,0.0,0.0,-3.8355,-3.9515,-3.9744,-3.9844,-3.9971,-4.0178,-4.0582,-4.1324,-4.147,-4.181,-4.2345,-4.2459,-4.2492,-4.2492,-4.2492,-4.2492,-4.2492,-4.2492,-4.2492,-4.2508,-4.2381,-4.2318,-4.2286,-4.2028,-4.1866,-4.1881,-4.2453,-4.275,-4.3011,-4.4117,-4.4685,-4.5001,-4.553,-4.5515,-4.5182,-4.5129,-4.4905,-4.461,-4.461,-4.3648,-4.2602,-4.2602,-4.1601,-4.0489,-4.0489,-4.0489,-4.0489,-4.0489,-4.0436,-4.0331,-4.0312,-4.0016,-3.9768,-3.9717,-3.9553,-3.9388,-3.9388,-3.9388,-3.9388,-3.9388,-3.9388,-3.9388,-3.9388,-3.9388,-3.9388,-3.9388,-3.9388,-3.9388,-3.9388,-3.9388,-3.9388,-3.9388,-3.9388,-3.9228,-3.8819,-3.8841,-3.8728,-3.8391,-3.8507,-3.8504,-3.8328,-3.856,-3.8279,-3.7487,-3.7405,-3.7611,0.0,0.0,0.0,0.0,-2.7713,0.0,0.0,0.0,0.0,0.0,0.0,0.0,0.0,0.0,0.0,0.0,0.0,0.0,0.0,0.0,0.0,0.0,0.0,0.0,0.0,0.0,0.0,-3.6321,-3.6933,-3.7559,-3.8152,-3.8918,-3.9698,-4.0416,-4.1028,-4.1382,-4.1463,-4.1917,-4.2142,-4.2142,-4.2142,-4.2142,-4.2142,-4.2142,-4.2142,-4.2142,-4.2142,-4.2061,-4.1963,-4.1898,-4.1784,-4.1637,-4.1716,-4.2489,-4.3592,-4.375,-4.4622,-4.566,-4.5557,-4.5405,-4.5182,-4.5002,-4.4761,-4.461,-4.461,-4.3648,-4.2602,-4.2602,-4.1601,-4.0489,-4.0489,-4.0489,-4.0489,-4.0489,-4.0489,-4.042,-4.0347,-4.0137,-3.9925,-3.9732,-3.9553,-3.9388,-3.9388,-3.9388,-3.9388,-3.9388,-3.9388,-3.9388,-3.9388,-3.9388,-3.9388,-3.9388,-3.9388,-3.9388,-3.9388,-3.9388,-3.9388,-3.9388,-3.9388,-3.9228,-3.8819,-3.9034,-3.9126,-3.9088,-3.961,-3.9886,-3.9847,-3.9538,-3.8934,-3.8099,-3.8505,-3.8733,0.0,0.0,0.0,0.0,0.0,0.0,-2.7054,0.0,-2.5842,0.0,0.0,0.0,0.0,0.0,0.0,0.0,0.0,0.0,0.0,0.0,0.0,0.0,0.0,0.0,0.0,0.0,0.0,0.0,0.0,-3.5959,-3.665,-3.7418,-3.8184,-3.89,-3.9991,-4.0761,-4.1179,-4.1789,-4.2109,-4.2109,-4.2109,-4.2109,-4.2109,-4.2109,-4.2109,-4.2109,-4.2029,-4.1963,-4.1898,-4.1784,-4.167,-4.1588,-4.1588,-4.2457,-4.3753,-4.4148,-4.4938,-4.5771,-4.5552,-4.5368,-4.5145,-4.4814,-4.4648,-4.461,-4.461,-4.3648,-4.2602,-4.2602,-4.1601,-4.0489,-4.0489,-4.0489,-4.0489,-4.0489,-4.0489,-4.047,-4.0347,-4.0137,-3.9925,-3.9732,-3.9553,-3.9388,-3.9388,-3.9388,-3.9388,-3.9388,-3.9388,-3.9388,-3.9388,-3.9388,-3.9388,-3.9388,-3.9388,-3.9388,-3.9388,-3.9388,-3.9388,-3.9388,-3.9564,-3.975,-3.9955,-3.9813,-3.9712,-3.9712,-3.9973,-4.0104,-4.0104,-4.0041,-3.9841,-3.9463,-3.9067,-3.9099,-3.0576,0.0,0.0,0.0,0.0,0.0,0.0,0.0,0.0,0.0,0.0,0.0,0.0,0.0,0.0,0.0,0.0,0.0,0.0,0.0,0.0,0.0,0.0,0.0,0.0,0.0,0.0,0.0,-3.4175,0.0,-3.5101,-3.6214,-3.7029,-3.7524,-3.8914,-3.9984,-4.075,-4.139,-4.1789,-4.1948,-4.1948,-4.1948,-4.1948,-4.1948,-4.1948,-4.1948,-4.185,-4.1833,-4.1817,-4.167,-4.1588,-4.1588,-4.1588,-4.2331,-4.3519,-4.418,-4.5017,-4.5771,-4.5515,-4.5257,-4.498,-4.4701,-4.461,-4.461,-4.461,-4.3648,-4.2602,-4.2602,-4.1601,-4.0536,-4.0735,-4.0782,-4.0843,-4.1012,-4.1023,-4.0988,-4.0862,-4.0649,-4.0398,-4.029,-3.9959,-3.9694,-3.9694,-3.9508,-3.9388,-3.9388,-3.9388,-3.9388,-3.9388,-3.9388,-3.9388,-3.9388,-3.9388,-3.9388,-3.9388,-3.9388,-3.9499,-3.9679,-3.9973,-4.0362,-4.0781,-4.0593,-4.0444,-4.0379,-4.0554,-4.0641,-4.0655,-4.0658,-4.0681,-4.0626,-3.9771,-3.9606,0.0,0.0,0.0,-3.0456,0.0,0.0,0.0,0.0,-2.6539,0.0,0.0,0.0,0.0,0.0,0.0,-2.5597,0.0,0.0,0.0,0.0,0.0,0.0,0.0,0.0,0.0,0.0,0.0,-3.1318,-3.2566,-3.334,-3.3398,-3.5435,-3.6603,-3.6635,-3.8003,-3.9084,-3.9831,-4.0372,-4.0989,-4.1621,-4.1621,-4.1621,-4.1621,-4.1621,-4.1621,-4.1621,-4.1621,-4.1621,-4.1621,-4.1588,-4.1588,-4.1588,-4.1588,-4.2047,-4.2805,-4.35,-4.4587,-4.5735,-4.5368,-4.4942,-4.4625,-4.461,-4.461,-4.461,-4.461,-4.3648,-4.2602,-4.2602,-4.1601,-4.0659,-4.1386,-4.1555,-4.174,-4.2386,-4.2379,-4.2255,-4.2255,-4.1923,-4.1641,-4.1641,-4.0965,-4.0367,-4.0367,-3.9843,-3.9388,-3.9388,-3.9388,-3.9388,-3.9388,-3.9388,-3.9388,-3.9388,-3.9388,-3.9388,-3.9388,-3.9388,-3.9694,-4.0337,-4.0807,-4.0988,-4.0811,-4.115,-4.1288,-4.1062,-4.17,-4.2034,-4.2034,-4.1577,-4.1367,-4.1367,-4.0859,-4.0645,0.0,0.0,-3.0506,-3.0506,0.0,0.0,0.0,0.0,0.0,0.0,0.0,0.0,0.0,0.0,0.0,-2.5597,0.0,0.0,0.0,0.0,0.0,0.0,0.0,0.0,0.0,0.0,0.0,-2.9777,-3.0701,-3.1675,0.0,-3.3773,-3.4845,-3.5779,-3.7157,-3.8456,-3.9596,-4.0277,-4.0941,-4.1588,-4.1588,-4.1588,-4.1588,-4.1588,-4.1588,-4.1588,-4.1588,-4.1588,-4.1588,-4.1588,-4.1588,-4.1588,-4.1588,-4.2047,-4.2774,-4.3437,-4.4275,-4.5072,-4.5159,-4.4942,-4.461,-4.461,-4.461,-4.4533,-4.4086,-4.3294,-4.2602,-4.2602,-4.194,-4.1401,-4.2094,-4.2263,-4.2289,-4.2379,-4.2352,-4.2242,-4.1962,-4.1776,-4.1663,-4.155,-4.1242,-4.1055,-4.1055,-4.0861,-4.0427,-3.9508,-3.9388,-3.9388,-3.9388,-3.9388,-3.9388,-3.9388,-3.9388,-3.9589,-4.0023,-4.0472,-4.0995,-4.1692,-4.1701,-4.1779,-4.2065,-4.206,-4.1989,-4.1758,-4.1976,-4.2092,-4.2092,-4.162,-4.1396,-4.1396,-4.0915,-4.0702,-3.0704,-3.0506,0.0,-3.0506,-3.0054,0.0,-2.9194,0.0,0.0,0.0,0.0,0.0,0.0,0.0,0.0,0.0,-2.5429,0.0,0.0,-2.5084,0.0,0.0,0.0,0.0,0.0,0.0,-2.7921,-2.8356,-2.9279,-3.0196,0.0,0.0,-3.383,-3.4968,-3.6358,-3.7765,-3.9139,-3.985,-4.0561,-4.1241,-4.1478,-4.1588,-4.1588,-4.1588,-4.1588,-4.1588,-4.1588,-4.1588,-4.1588,-4.1588,-4.1588,-4.1588,-4.1588,-4.1873,-4.2378,-4.3108,-4.3684,-4.4169,-4.4315,-4.4192,-4.3879,-4.3879,-4.3879,-4.3802,-4.3371,-4.2771,-4.2248,-4.2248,-4.194,-4.1755,-4.2432,-4.2771,-4.2965,-4.3011,-4.296,-4.281,-4.2485,-4.2333,-4.2241,-4.2111,-4.1893,-4.1767,-4.1767,-4.1572,-4.101,-3.9933,-3.9768,-3.9694,-3.9454,-3.9388,-3.9388,-3.9388,-3.9634,-4.0038,-4.0696,-4.1354,-4.1946,-4.2366,-4.2449,-4.2525,-4.2673,-4.2581,-4.2392,-4.2092,-4.2092,-4.2092,-4.2092,-4.139,-4.1067,-4.1067,-4.0365,-4.0041]},{"header":{"parameterUnit":"m.s-1","parameterCategory":1,"la1":30.6,"la2":29.2853,"lo1":-89.7004,"lo2":-87.6739,"dy":0.0162,"dx":0.0183,"nx":112,"ny":82,"refTime":"2023-07-17T00:00:00:Z","depth":0,"parameterNumber":3,"parameterNumberName":"V-component_of_WINDS"},"data":[0.0,0.0,0.0,0.0,0.0,0.0,0.0,0.0,0.0,0.0,0.0,0.0,0.0,0.0,0.0,0.0,0.0,0.0,0.0,0.0,0.0,0.0,0.0,0.0,0.0,0.0,0.0,0.0,0.0,0.0,0.0,0.0,0.0,0.0,0.0,0.0,0.0,0.0,0.0,0.0,0.0,0.0,0.0,0.0,0.0,0.0,0.0,0.0,0.0,0.0,0.0,0.0,0.0,0.0,0.0,0.0,0.0,0.0,0.0,0.0,0.0,0.0,0.0,0.0,0.0,0.0,0.0,0.0,0.0,0.0,0.0,0.0,0.0,0.0,0.0,0.0,0.0,0.0,0.0,0.0,0.0,0.0,0.0,0.0,0.0,0.0,0.0,0.0,0.0,0.0,-1.7373,-1.8817,-2.0797,-2.1994,-2.1938,-2.096,-1.9877,-1.8746,0.0,0.0,0.0,0.0,0.0,0.0,0.0,0.0,0.0,0.0,0.0,0.0,0.0,0.0,0.0,0.0,0.0,0.0,0.0,0.0,0.0,0.0,0.0,0.0,0.0,0.0,0.0,0.0,0.0,0.0,0.0,0.0,0.0,0.0,0.0,0.0,0.0,0.0,0.0,0.0,0.0,0.0,0.0,0.0,0.0,0.0,0.0,0.0,0.0,0.0,0.0,0.0,0.0,0.0,0.0,0.0,0.0,0.0,0.0,0.0,0.0,0.0,0.0,0.0,0.0,0.0,0.0,0.0,0.0,0.0,0.0,0.0,0.0,0.0,0.0,0.0,0.0,0.0,0.0,0.0,0.0,0.0,0.0,0.0,0.0,0.0,0.0,0.0,0.0,0.0,0.0,0.0,0.0,0.0,0.0,0.0,0.0,0.0,0.0,0.0,0.0,0.0,0.0,0.0,-1.7921,-2.0376,-2.1805,-2.2431,-2.2109,-2.1489,-2.0513,-1.9021,0.0,0.0,0.0,0.0,0.0,0.0,0.0,0.0,0.0,0.0,0.0,0.0,0.0,0.0,0.0,0.0,0.0,0.0,0.0,0.0,0.0,0.0,0.0,0.0,0.0,0.0,0.0,0.0,0.0,0.0,0.0,0.0,0.0,0.0,0.0,0.0,0.0,0.0,0.0,0.0,0.0,0.0,0.0,0.0,0.0,0.0,0.0,0.0,0.0,0.0,0.0,0.0,0.0,0.0,0.0,0.0,0.0,0.0,0.0,0.0,0.0,0.0,0.0,0.0,0.0,0.0,0.0,0.0,0.0,0.0,0.0,0.0,0.0,0.0,0.0,0.0,0.0,0.0,0.0,0.0,0.0,0.0,0.0,0.0,0.0,0.0,0.0,0.0,0.0,0.0,0.0,0.0,0.0,0.0,0.0,0.0,0.0,0.0,0.0,0.0,0.0,0.0,0.0,-1.8275,-1.9692,-2.1505,-2.2424,-2.29,-2.2799,-2.2011,-2.0985,-1.9725,-1.7501,0.0,0.0,0.0,0.0,0.0,0.0,0.0,0.0,0.0,0.0,0.0,0.0,0.0,0.0,0.0,0.0,0.0,0.0,0.0,0.0,0.0,0.0,0.0,0.0,0.0,0.0,0.0,0.0,0.0,0.0,0.0,0.0,0.0,0.0,0.0,0.0,0.0,0.0,0.0,0.0,0.0,0.0,0.0,0.0,0.0,0.0,0.0,0.0,0.0,0.0,0.0,0.0,0.0,0.0,0.0,0.0,0.0,0.0,0.0,0.0,0.0,0.0,0.0,0.0,0.0,0.0,0.0,0.0,0.0,0.0,0.0,0.0,0.0,0.0,0.0,0.0,0.0,0.0,0.0,0.0,0.0,0.0,0.0,0.0,0.0,0.0,0.0,0.0,0.0,0.0,0.0,0.0,0.0,0.0,0.0,0.0,0.0,0.0,0.0,0.0,0.0,0.0,-2.0061,-2.1312,-2.2279,-2.2871,-2.3288,-2.342,-2.2407,-2.1302,-2.0284,-1.8118,0.0,0.0,0.0,0.0,0.0,0.0,0.0,0.0,0.0,0.0,0.0,0.0,0.0,0.0,0.0,0.0,0.0,0.0,0.0,0.0,0.0,0.0,0.0,0.0,0.0,0.0,0.0,0.0,0.0,0.0,0.0,0.0,0.0,0.0,0.0,0.0,0.0,0.0,0.0,0.0,0.0,0.0,0.0,0.0,0.0,0.0,0.0,0.0,0.0,0.0,0.0,0.0,0.0,0.0,0.0,0.0,0.0,0.0,0.0,0.0,0.0,0.0,0.0,0.0,0.0,0.0,0.0,0.0,0.0,0.0,0.0,0.0,0.0,0.0,0.0,0.0,0.0,0.0,0.0,0.0,0.0,0.0,0.0,0.0,0.0,0.0,0.0,0.0,0.0,0.0,0.0,0.0,0.0,0.0,0.0,0.0,0.0,0.0,0.0,0.0,0.0,0.0,-2.0532,-2.1881,-2.2502,-2.3178,-2.3569,-2.3586,-2.2536,-2.1397,-2.0271,-1.8118,0.0,0.0,0.0,0.0,0.0,0.0,0.0,0.0,0.0,0.0,0.0,0.0,0.0,0.0,0.0,0.0,0.0,0.0,0.0,0.0,0.0,0.0,0.0,0.0,0.0,0.0,0.0,0.0,0.0,0.0,0.0,0.0,0.0,0.0,0.0,0.0,0.0,0.0,0.0,0.0,0.0,0.0,0.0,0.0,0.0,0.0,0.0,0.0,0.0,0.0,0.0,0.0,0.0,0.0,0.0,0.0,0.0,0.0,0.0,0.0,0.0,0.0,0.0,0.0,0.0,0.0,0.0,0.0,0.0,0.0,0.0,0.0,0.0,0.0,0.0,0.0,0.0,0.0,0.0,0.0,0.0,0.0,0.0,0.0,0.0,0.0,0.0,0.0,0.0,0.0,0.0,0.0,0.0,0.0,0.0,0.0,0.0,0.0,0.0,0.0,0.0,0.0,-2.0932,-2.2186,0.0,-2.3441,-2.3658,-2.3789,-2.2704,-2.1571,-2.0576,0.0,0.0,0.0,0.0,0.0,0.0,0.0,0.0,0.0,0.0,0.0,0.0,0.0,0.0,0.0,0.0,0.0,0.0,0.0,0.0,0.0,0.0,0.0,0.0,0.0,0.0,0.0,0.0,0.0,0.0,0.0,0.0,0.0,0.0,0.0,0.0,0.0,0.0,0.0,0.0,0.0,0.0,0.0,0.0,0.0,0.0,0.0,0.0,0.0,0.0,0.0,0.0,0.0,0.0,0.0,0.0,0.0,0.0,0.0,0.0,0.0,0.0,0.0,0.0,0.0,0.0,0.0,0.0,0.0,0.0,0.0,0.0,0.0,0.0,0.0,0.0,0.0,0.0,0.0,0.0,0.0,0.0,0.0,0.0,0.0,0.0,0.0,0.0,0.0,0.0,0.0,0.0,0.0,0.0,0.0,0.0,0.0,0.0,0.0,0.0,0.0,0.0,-1.9838,-2.1219,-2.2444,0.0,-2.3717,-2.3819,-2.3949,-2.2886,-2.1771,-2.0752,0.0,0.0,0.0,0.0,0.0,0.0,0.0,0.0,0.0,0.0,0.0,0.0,0.0,0.0,0.0,0.0,0.0,0.0,0.0,0.0,0.0,0.0,0.0,0.0,0.0,0.0,0.0,0.0,0.0,0.0,0.0,0.0,0.0,0.0,0.0,0.0,0.0,0.0,0.0,0.0,0.0,0.0,0.0,0.0,0.0,0.0,0.0,0.0,0.0,0.0,0.0,0.0,0.0,0.0,0.0,0.0,0.0,0.0,0.0,0.0,0.0,0.0,0.0,0.0,0.0,0.0,0.0,0.0,0.0,0.0,0.0,0.0,0.0,0.0,0.0,0.0,0.0,0.0,0.0,0.0,0.0,0.0,0.0,0.0,0.0,0.0,0.0,0.0,0.0,0.0,0.0,0.0,0.0,0.0,0.0,0.0,0.0,0.0,0.0,0.0,0.0,0.0,-1.9888,-2.1352,-2.2624,-2.3803,-2.4037,-2.4083,-2.4096,-2.3068,-2.1904,0.0,0.0,0.0,0.0,0.0,0.0,0.0,0.0,0.0,0.0,0.0,0.0,0.0,0.0,0.0,0.0,0.0,0.0,0.0,0.0,0.0,0.0,0.0,0.0,0.0,0.0,0.0,0.0,0.0,0.0,0.0,0.0,0.0,0.0,0.0,0.0,0.0,0.0,0.0,0.0,0.0,0.0,0.0,0.0,0.0,0.0,0.0,0.0,0.0,0.0,0.0,0.0,0.0,0.0,0.0,0.0,0.0,0.0,0.0,0.0,0.0,0.0,0.0,0.0,0.0,0.0,0.0,0.0,0.0,0.0,0.0,0.0,0.0,0.0,0.0,0.0,0.0,0.0,0.0,0.0,0.0,0.0,0.0,0.0,0.0,0.0,0.0,0.0,0.0,0.0,0.0,0.0,0.0,0.0,0.0,0.0,0.0,0.0,0.0,0.0,0.0,0.0,0.0,-2.0114,-2.155,-2.2946,-2.4527,-2.4331,-2.4282,-2.4717,-2.3304,-2.1904,-2.0777,0.0,0.0,0.0,0.0,0.0,0.0,0.0,0.0,0.0,0.0,0.0,0.0,0.0,0.0,0.0,0.0,0.0,0.0,0.0,0.0,0.0,0.0,0.0,0.0,0.0,0.0,0.0,0.0,0.0,0.0,0.0,0.0,0.0,0.0,0.0,0.0,0.0,0.0,0.0,0.0,0.0,0.0,0.0,0.0,0.0,0.0,0.0,0.0,0.0,0.0,0.0,0.0,0.0,0.0,0.0,0.0,0.0,0.0,0.0,0.0,0.0,0.0,0.0,0.0,0.0,0.0,0.0,0.0,0.0,0.0,0.0,0.0,0.0,0.0,0.0,0.0,0.0,0.0,0.0,0.0,0.0,0.0,0.0,0.0,0.0,0.0,0.0,0.0,0.0,0.0,0.0,0.0,0.0,0.0,0.0,0.0,0.0,0.0,0.0,0.0,0.0,0.0,-2.0263,-2.1655,-2.3082,-2.4809,-2.4452,-2.4347,-2.4953,-2.3396,-2.1995,-2.108,0.0,0.0,0.0,0.0,0.0,0.0,0.0,0.0,0.0,0.0,0.0,0.0,0.0,0.0,0.0,0.0,0.0,0.0,0.0,0.0,0.0,0.0,0.0,0.0,0.0,0.0,0.0,0.0,0.0,0.0,0.0,0.0,0.0,0.0,0.0,0.0,0.0,0.0,0.0,0.0,0.0,0.0,0.0,0.0,0.0,0.0,0.0,0.0,0.0,0.0,0.0,0.0,0.0,0.0,0.0,0.0,0.0,0.0,0.0,0.0,0.0,0.0,0.0,0.0,0.0,0.0,0.0,0.0,0.0,0.0,0.0,0.0,0.0,0.0,0.0,0.0,0.0,0.0,0.0,0.0,0.0,0.0,0.0,0.0,0.0,0.0,0.0,0.0,0.0,0.0,0.0,0.0,0.0,0.0,0.0,0.0,0.0,0.0,0.0,0.0,0.0,0.0,-2.0386,-2.1708,-2.3082,-2.4887,-2.4543,-2.4426,-2.5031,-2.3526,-2.227,-2.1525,0.0,0.0,0.0,0.0,0.0,0.0,0.0,0.0,0.0,0.0,0.0,0.0,0.0,0.0,0.0,0.0,0.0,0.0,0.0,0.0,0.0,0.0,0.0,0.0,0.0,0.0,0.0,0.0,0.0,0.0,0.0,0.0,0.0,0.0,0.0,0.0,0.0,0.0,0.0,0.0,0.0,0.0,0.0,0.0,0.0,0.0,0.0,0.0,0.0,0.0,0.0,0.0,0.0,0.0,0.0,0.0,0.0,0.0,0.0,0.0,-1.872,0.0,0.0,0.0,0.0,0.0,0.0,0.0,0.0,0.0,0.0,0.0,0.0,0.0,0.0,0.0,0.0,0.0,0.0,0.0,0.0,0.0,0.0,0.0,0.0,0.0,0.0,0.0,0.0,0.0,0.0,0.0,0.0,0.0,0.0,0.0,0.0,0.0,0.0,0.0,0.0,0.0,-2.0438,-2.1708,-2.3237,-2.5406,-2.5132,-2.5014,-2.5589,-2.4478,-2.3106,-2.1603,-1.976,0.0,0.0,0.0,0.0,0.0,0.0,0.0,0.0,0.0,0.0,0.0,0.0,0.0,0.0,0.0,0.0,0.0,0.0,0.0,0.0,0.0,0.0,0.0,0.0,0.0,0.0,0.0,0.0,0.0,0.0,0.0,0.0,0.0,0.0,0.0,0.0,0.0,0.0,0.0,0.0,0.0,0.0,0.0,0.0,0.0,0.0,0.0,0.0,0.0,0.0,0.0,0.0,0.0,0.0,0.0,0.0,0.0,0.0,0.0,0.0,-2.0103,0.0,0.0,0.0,0.0,0.0,0.0,0.0,0.0,0.0,0.0,0.0,0.0,0.0,0.0,0.0,0.0,0.0,0.0,0.0,0.0,0.0,0.0,0.0,0.0,0.0,0.0,0.0,0.0,0.0,0.0,0.0,0.0,0.0,0.0,0.0,0.0,0.0,0.0,0.0,0.0,-2.0845,-2.2073,-2.3548,-2.5571,-2.5315,-2.5227,-2.5741,-2.4749,-2.3574,-2.2373,-2.0764,0.0,0.0,0.0,0.0,0.0,0.0,0.0,0.0,0.0,0.0,0.0,0.0,0.0,0.0,0.0,0.0,0.0,0.0,0.0,0.0,0.0,0.0,0.0,0.0,0.0,0.0,0.0,0.0,0.0,0.0,0.0,0.0,0.0,0.0,0.0,0.0,0.0,0.0,0.0,0.0,0.0,0.0,0.0,0.0,0.0,0.0,0.0,0.0,0.0,0.0,0.0,0.0,0.0,-2.4976,-2.5436,-2.6132,-2.6382,-2.6496,-2.6393,-2.4636,-2.3328,-2.241,0.0,0.0,0.0,0.0,0.0,0.0,0.0,0.0,0.0,0.0,0.0,0.0,0.0,0.0,0.0,0.0,0.0,0.0,0.0,0.0,0.0,0.0,0.0,0.0,0.0,-1.992,-1.967,0.0,0.0,0.0,0.0,0.0,0.0,0.0,0.0,0.0,0.0,0.0,0.0,-2.1315,-2.2596,-2.3965,-2.561,-2.5484,-2.545,-2.5754,-2.4931,-2.4044,-2.3234,-2.1852,-2.0558,0.0,0.0,0.0,0.0,0.0,0.0,0.0,0.0,0.0,0.0,0.0,0.0,0.0,0.0,0.0,0.0,0.0,0.0,0.0,0.0,0.0,0.0,0.0,0.0,0.0,0.0,0.0,0.0,0.0,0.0,0.0,0.0,-1.4914,-1.5442,0.0,0.0,0.0,0.0,0.0,0.0,0.0,0.0,0.0,0.0,0.0,0.0,0.0,0.0,-2.4734,-2.4959,-2.5691,-2.6878,-2.7524,-2.8268,-2.8967,-2.9391,-2.9619,-2.9584,-2.8896,0.0,-2.4522,-2.4522,0.0,0.0,0.0,0.0,0.0,0.0,0.0,0.0,0.0,0.0,0.0,0.0,0.0,0.0,0.0,0.0,0.0,0.0,0.0,0.0,0.0,0.0,-2.2084,-2.2216,-2.2337,-2.2412,0.0,-2.0813,-1.9271,-1.8682,-1.8204,0.0,0.0,0.0,0.0,0.0,0.0,0.0,-2.142,-2.2934,-2.4435,-2.5662,-2.6203,-2.6282,-2.5832,-2.5649,-2.4892,-2.3287,-2.2207,-2.1323,-2.069,-1.8764,0.0,0.0,0.0,0.0,0.0,0.0,0.0,0.0,0.0,0.0,0.0,0.0,0.0,0.0,0.0,0.0,0.0,0.0,0.0,0.0,0.0,0.0,0.0,0.0,0.0,0.0,0.0,0.0,0.0,-1.4935,-1.6032,-1.6757,-1.7492,-1.8084,0.0,0.0,0.0,0.0,0.0,0.0,0.0,0.0,0.0,-2.4596,-2.5349,-2.6081,-2.678,-2.7326,-2.8044,-2.897,-2.9489,-3.008,-3.0778,-3.0996,-3.1088,-3.1077,-3.087,-2.9848,-2.8253,-2.7105,-2.6175,-2.5432,0.0,0.0,0.0,0.0,-2.338,-2.3605,-2.3605,-2.3661,0.0,0.0,0.0,0.0,0.0,0.0,0.0,0.0,0.0,0.0,0.0,0.0,0.0,-2.3607,-2.3714,-2.3872,-2.4017,-2.3283,-2.2184,0.0,-1.9962,-1.9485,-1.9112,0.0,0.0,0.0,0.0,0.0,-2.2858,-2.3916,-2.5027,-2.6177,-2.6549,-2.6601,-2.6321,-2.6007,-2.5384,-2.4386,-2.3398,-2.2445,-2.1604,-2.0422,-1.9152,0.0,0.0,0.0,0.0,0.0,0.0,0.0,0.0,0.0,0.0,0.0,0.0,0.0,0.0,0.0,0.0,0.0,0.0,0.0,0.0,0.0,0.0,0.0,0.0,0.0,0.0,0.0,0.0,-1.6312,-1.7274,-1.8267,-1.9111,-1.9796,0.0,0.0,0.0,0.0,0.0,0.0,-2.4061,-2.4814,-2.571,-2.6791,-2.7621,-2.8287,-2.8721,-2.9601,-3.0384,-3.1068,-3.1394,-3.1897,-3.2595,-3.2595,-3.2595,-3.2523,-3.2319,-3.1938,-3.1444,-2.955,-2.8149,-2.7185,-2.668,-2.6332,-2.6092,-2.5541,-2.5602,-2.5959,-2.5959,-2.6032,-2.6105,-2.5973,0.0,-2.4372,-2.4239,0.0,0.0,0.0,0.0,-2.3923,-2.4447,-2.5003,-2.5342,-2.5111,-2.528,-2.5507,-2.5628,-2.5448,-2.4619,0.0,-2.1823,-2.1403,-2.0949,0.0,0.0,0.0,0.0,-2.3212,-2.4204,-2.4992,-2.5764,-2.6614,-2.6837,-2.6831,-2.6719,-2.6183,-2.5669,-2.5242,-2.4279,-2.3393,-2.26,-2.1799,-2.0595,-1.8818,0.0,0.0,0.0,0.0,0.0,0.0,0.0,0.0,0.0,0.0,0.0,0.0,0.0,0.0,0.0,0.0,0.0,0.0,0.0,0.0,0.0,0.0,0.0,0.0,0.0,0.0,0.0,0.0,0.0,-2.0096,-2.1014,0.0,0.0,0.0,0.0,-2.4268,-2.48,-2.5633,-2.702,-2.714,-2.7829,-2.9259,-2.9794,-3.0286,-3.0745,-3.179,-3.2606,-3.3048,-3.36,-3.413,-3.4647,-3.4647,-3.4647,-3.459,-3.3625,-3.3201,-3.3051,-3.1502,-3.0262,-2.9297,-2.8758,-2.8495,-2.8369,-2.7916,-2.7956,-2.8354,-2.8354,-2.8354,-2.827,-2.7726,-2.6863,-2.5889,-2.5384,-2.5192,0.0,0.0,-2.4448,-2.4249,-2.6226,-2.705,-2.7293,-2.7115,-2.7483,-2.7946,-2.7946,-2.7118,-2.5921,0.0,-2.3853,-2.3581,-2.2789,0.0,-2.2768,-2.3076,-2.3642,-2.4243,-2.4874,-2.5934,-2.6641,-2.6693,-2.7157,-2.7262,-2.6745,-2.6264,-2.5748,-2.5229,-2.4365,-2.3877,-2.3823,-2.2245,-2.1331,-2.1223,-1.96,0.0,0.0,0.0,0.0,0.0,0.0,0.0,0.0,0.0,0.0,0.0,0.0,0.0,0.0,0.0,0.0,0.0,0.0,0.0,0.0,0.0,0.0,0.0,0.0,0.0,0.0,0.0,0.0,-2.1145,-2.2345,0.0,-2.37,-2.5135,-2.6114,-2.6289,-2.7075,-2.8027,-2.9117,-2.9183,-2.9849,-3.1302,-3.152,-3.1826,-3.2285,-3.3046,-3.3496,-3.3675,-3.425,-3.4613,-3.4796,-3.4796,-3.4796,-3.4785,-3.4418,-3.4062,-3.3706,-3.3155,-3.2156,-3.0905,-3.0388,-3.0337,-3.0561,-3.0067,-3.0169,-3.0494,-3.0146,-3.0025,-2.9893,-2.9027,-2.8246,-2.7548,-2.7019,-2.6585,-2.637,-2.6602,-2.6248,-2.5956,-2.6721,-2.7693,-2.8409,-2.8027,-2.8001,-2.8109,-2.8109,-2.7795,-2.7344,-2.6753,-2.5498,-2.4488,-2.4413,-2.441,-2.4489,-2.4836,-2.5049,-2.5419,-2.6026,-2.6457,-2.6817,-2.7183,-2.7372,-2.7411,-2.7236,-2.6816,-2.6395,-2.5936,-2.536,-2.4754,-2.4054,-2.3446,-2.2578,-2.1412,-2.0799,-2.0044,0.0,0.0,0.0,0.0,0.0,0.0,0.0,0.0,0.0,0.0,0.0,0.0,0.0,0.0,0.0,0.0,0.0,0.0,0.0,0.0,0.0,0.0,0.0,0.0,0.0,0.0,-2.1197,-2.2563,-2.3787,-2.4743,-2.537,-2.6877,-2.7883,-2.8036,-2.8932,-2.9827,-3.0646,-3.0843,-3.1455,-3.2579,-3.2776,-3.3005,-3.3311,-3.4026,-3.4383,-3.4383,-3.5036,-3.529,-3.529,-3.529,-3.529,-3.529,-3.5118,-3.4842,-3.4498,-3.4337,-3.3579,-3.2454,-3.1777,-3.168,-3.1936,-3.1607,-3.1808,-3.2211,-3.1805,-3.1488,-3.1067,-3.0326,-2.9617,-2.8979,-2.8631,-2.815,-2.7753,-2.7992,-2.7746,-2.7426,-2.7426,-2.8295,-2.9101,-2.885,-2.875,-2.8674,-2.8674,-2.8524,-2.8386,-2.8386,-2.6904,-2.5686,-2.5857,-2.5717,-2.5685,-2.6048,-2.6112,-2.6321,-2.6896,-2.6961,-2.7105,-2.7451,-2.749,-2.7523,-2.759,-2.7229,-2.69,-2.6676,-2.6096,-2.5447,-2.4747,-2.4313,-2.3527,-2.2334,-2.1988,-2.1486,-2.0841,0.0,0.0,0.0,0.0,0.0,0.0,0.0,0.0,0.0,0.0,0.0,0.0,0.0,0.0,0.0,0.0,0.0,0.0,0.0,0.0,0.0,0.0,0.0,-2.0431,-2.1673,-2.3049,-2.4373,-2.5387,-2.6328,-2.7232,-2.8272,-2.9052,-2.9521,-3.0406,-3.116,-3.1662,-3.2164,-3.2645,-3.3168,-3.3595,-3.3846,-3.3868,-3.4946,-3.5468,-3.5468,-3.6039,-3.6343,-3.6343,-3.6332,-3.632,-3.6297,-3.5749,-3.5531,-3.5485,-3.5014,-3.4509,-3.3935,-3.2925,-3.2563,-3.2536,-3.2536,-3.2876,-3.3308,-3.3308,-3.2611,-3.1753,-3.1741,-3.1031,-3.0134,-3.0122,-2.9737,-2.9316,-2.9316,-2.8943,-2.8483,-2.8483,-2.8904,-2.9359,-2.9731,-2.98,-2.9792,-2.9792,-2.9352,-2.8913,-2.8913,-2.8084,-2.7296,-2.7097,-2.6568,-2.6315,-2.672,-2.6784,0.0,-2.7477,-2.7555,-2.7555,-2.7555,-2.7555,-2.7642,-2.7815,-2.7476,-2.7304,-2.7382,-2.6489,-2.5941,-2.5914,-2.4815,-2.4177,-2.4177,-2.3166,-2.2776,-2.2986,0.0,0.0,0.0,0.0,0.0,0.0,0.0,0.0,0.0,0.0,0.0,0.0,0.0,0.0,0.0,0.0,0.0,0.0,0.0,0.0,0.0,0.0,-2.1404,-2.1859,-2.2832,-2.4002,-2.5357,-2.648,-2.7425,-2.8253,-2.9354,-3.0328,-3.0946,-3.1618,-3.2328,-3.3147,-3.3333,-3.3781,-3.4589,-3.4753,-3.4993,-3.5364,-3.6136,-3.6498,-3.6487,-3.6734,-3.6828,-3.6817,-3.6438,-3.632,-3.632,-3.6128,-3.5853,-3.5508,-3.537,-3.5026,-3.4521,-3.3843,-3.363,-3.364,-3.364,-3.3731,-3.379,-3.379,-3.3392,-3.2779,-3.2394,-3.1805,-3.1199,-3.0814,-3.029,-2.9869,-2.9869,-2.9212,-2.8507,-2.8507,-2.8811,-2.9271,-2.9692,-2.98,-2.9792,-2.9792,-2.9666,-2.9553,-2.9553,-2.8963,-2.8408,-2.826,-2.81,-2.8138,-2.8521,-2.8603,0.0,-2.8778,-2.8804,-2.8804,-2.8804,-2.8804,-2.8703,-2.8475,-2.8445,-2.8145,-2.7435,-2.7286,-2.7013,-2.6579,-2.6223,-2.5902,-2.5611,-2.4572,-2.4345,0.0,0.0,0.0,0.0,0.0,0.0,0.0,0.0,0.0,0.0,0.0,0.0,0.0,0.0,0.0,0.0,0.0,0.0,0.0,0.0,0.0,0.0,-2.1776,-2.3029,-2.4053,-2.4707,-2.5412,-2.6387,-2.751,-2.8494,-2.9204,-3.0217,-3.1105,-3.1851,-3.2579,-3.3213,-3.377,-3.4174,-3.4633,-3.519,-3.5419,-3.567,-3.6023,-3.6614,-3.6901,-3.689,-3.7212,-3.7242,-3.6968,-3.6725,-3.6472,0.0,-3.632,-3.6105,-3.5841,-3.5841,-3.5543,0.0,0.0,0.0,0.0,0.0,-3.4352,-3.4318,-3.4318,-3.3982,-3.3525,-3.2996,-3.2454,-3.1958,-3.1416,-3.0874,-3.0422,-3.0422,-2.9708,-2.8899,-2.8574,-2.8769,-2.9154,-2.968,-2.9822,-2.9792,-2.9792,-2.9792,-2.9792,-2.9792,0.0,0.0,-2.9273,-2.8974,-2.8798,-2.9145,-2.9252,-2.931,-2.931,-2.931,-2.931,-2.931,-2.931,-2.9249,-2.9172,-2.901,0.0,0.0,0.0,-2.7447,-2.682,-2.6793,0.0,0.0,0.0,-2.6022,-2.6567,0.0,0.0,0.0,-2.4741,-2.4854,0.0,0.0,0.0,0.0,0.0,0.0,0.0,0.0,0.0,0.0,0.0,0.0,0.0,0.0,0.0,0.0,-2.3246,-2.4757,-2.6459,-2.6832,-2.7081,-2.7486,-2.8411,-2.9339,-3.0107,-3.082,-3.1562,-3.2427,-3.3289,-3.3846,-3.3945,0.0,0.0,0.0,0.0,-3.6074,-3.6187,-3.6769,-3.707,-3.707,-3.7622,-3.7643,-3.7207,-3.7037,-3.6782,-3.6358,-3.63,-3.632,-3.632,-3.632,-3.6002,-3.5554,-3.5067,-3.4871,-3.489,-3.4926,-3.4919,0.0,-3.4871,0.0,0.0,-3.3537,-3.302,-3.2491,-3.1925,-3.1428,-3.1007,-3.1007,-3.0433,-2.9695,-2.9026,-2.9071,-2.9391,-2.9857,-3.0002,-2.9967,-2.9967,-2.9967,-2.9967,-2.9967,-2.9967,-3.0045,-3.0227,-2.9489,-2.8967,-2.9161,-2.9363,-2.9506,-2.9506,-2.9506,-2.9506,-2.9506,0.0,0.0,-2.9896,-2.9417,-2.9254,-2.9591,-2.86,-2.7741,-2.7226,-2.7162,-2.7302,-2.7704,-2.7665,-2.7815,-2.8227,-2.8731,-2.9012,-2.8984,-2.772,-2.7158,0.0,0.0,0.0,0.0,0.0,0.0,0.0,0.0,0.0,0.0,0.0,0.0,0.0,0.0,0.0,-2.3329,-2.4966,-2.6345,-2.7071,-2.8079,-2.8804,-2.8897,-2.9113,-2.9619,-3.0543,-3.1156,-3.1879,-3.2896,-3.3464,-3.413,-3.4895,-3.5102,0.0,-3.638,-3.65,-3.673,-3.7101,-3.7781,-3.8089,-3.8089,0.0,0.0,-3.8263,-3.7414,-3.6922,-3.6863,-3.6449,-3.632,-3.632,-3.632,-3.6263,-3.609,-3.5404,-3.5235,-3.5467,-3.5678,-3.5621,-3.5473,-3.5473,-3.5063,-3.4546,-3.4018,-3.3549,-3.3044,-3.2503,-3.1949,0.0,-3.156,-3.1402,-3.1259,-3.1125,-3.142,-3.1646,-3.1249,-3.1123,-3.1085,-3.1085,-3.1085,-3.1085,-3.1085,-3.1085,-3.1125,-3.1153,-3.0559,-3.0123,-3.0337,-3.0548,-3.066,-3.066,-3.066,-3.066,-3.066,-3.066,-3.0648,-3.0521,-3.0423,-3.0298,-3.0221,-3.0011,-2.9835,-2.9726,-2.9389,-2.9544,-3.019,-2.9896,-3.0057,-3.0769,-3.0895,-3.0951,-3.0923,-2.9659,-2.9397,0.0,0.0,0.0,0.0,0.0,0.0,0.0,0.0,0.0,0.0,0.0,-2.1,0.0,0.0,-2.3815,-2.4736,-2.6065,-2.7206,-2.7841,-2.8731,-2.9301,-2.9301,-2.9508,-2.9943,-3.0713,-3.1466,-3.2234,-3.3049,-3.3748,-3.4469,-3.5168,-3.5452,-3.5932,-3.6675,-3.6915,-3.7145,-3.7374,-3.8058,-3.838,-3.838,-3.8773,-3.8814,-3.8573,-3.8045,-3.7666,-3.7379,-3.6874,-3.6656,-3.6633,-3.6381,-3.632,-3.6274,-3.5887,-3.5847,-3.6008,-3.5995,-3.5977,-3.5966,-3.5713,-3.5437,-3.5088,-3.4246,-3.3826,-3.3525,-3.2743,-3.2298,-3.2022,-3.1789,-3.1685,-3.1683,-3.1683,-3.1859,-3.1975,-3.1608,-3.1386,-3.1276,-3.1386,-3.1386,-3.1386,-3.1386,-3.1386,-3.1386,-3.1386,-3.1307,-3.1163,-3.0997,-3.098,-3.0986,-3.0986,-3.0986,-3.0986,-3.0986,-3.0986,-3.1055,-3.1133,-3.1056,-3.0818,-3.0411,-3.0405,-3.0405,-3.0405,-3.031,-3.0471,-3.0894,-3.0804,-3.1016,-3.1485,-3.1794,-3.1949,-3.1935,-3.1612,-3.1387,0.0,0.0,0.0,0.0,0.0,0.0,0.0,0.0,-2.0959,-2.0959,-2.2056,-2.3143,-2.3515,-2.4322,-2.5171,-2.5896,-2.6905,-2.7779,-2.8514,-2.9094,-2.9435,-2.9435,-2.9766,-3.0203,-3.0672,-3.1678,-3.2502,-3.2964,-3.3922,-3.4764,-3.5321,-3.5747,-3.6238,-3.6806,-3.7188,-3.7374,-3.7374,-3.8058,-3.838,-3.844,-3.9012,-3.9101,-3.8723,-3.8631,-3.8355,-3.7919,-3.7402,-3.7184,-3.715,-3.6736,-3.6507,-3.6415,-3.6415,-3.6441,-3.6432,-3.6247,-3.6343,-3.6405,-3.6023,-3.5785,-3.5473,-3.457,-3.4162,-3.3838,-3.3056,-3.2661,-3.2457,-3.203,-3.1805,-3.1713,-3.1685,-3.1739,-3.1743,-3.1694,-3.1549,-3.1477,-3.1671,-3.1712,-3.1712,-3.1712,-3.1712,-3.1754,-3.1795,-3.2059,-3.206,-3.147,-3.1254,-3.1156,-3.1156,-3.1052,-3.0986,-3.0986,-3.0986,-3.1174,-3.1572,-3.1532,-3.126,-3.0785,-3.0758,-3.0798,-3.092,-3.1164,-3.1378,-3.1613,-3.1853,-3.2072,-3.2236,-3.2707,-3.2946,-3.296,-3.3473,-3.3141,-1.852,-1.8522,-1.883,-1.9515,-2.0108,-2.0718,0.0,0.0,-2.2884,-2.2884,-2.3971,-2.49,-2.4952,-2.574,-2.6418,-2.6521,-2.7603,-2.8493,-2.8597,-2.9363,-2.9922,-2.9922,-2.9963,-3.0099,-3.0401,-3.1572,-3.2394,-3.2706,-3.3812,-3.4917,-3.5834,-3.6001,-3.6439,-3.7276,-3.7352,-3.7374,-3.7374,-3.8058,-3.838,-3.844,-3.9012,-3.9274,-3.9216,-3.878,-3.855,-3.847,-3.793,-3.7701,-3.7701,-3.7643,-3.7356,-3.6899,-3.6899,-3.6798,-3.6661,-3.6871,-3.6897,-3.6768,-3.6944,-3.6411,-3.5605,-3.5485,-3.4763,-3.397,-3.385,-3.3277,-3.2659,-3.262,-3.2175,-3.171,-3.1701,-3.1881,-3.2089,-3.2271,-3.2414,-3.258,-3.2837,-3.2893,-3.2893,-3.2893,-3.2893,-3.2965,-3.3166,-3.2982,-3.2636,-3.2072,-3.185,-3.1706,-3.1706,-3.13,-3.0986,-3.0986,-3.0986,-3.1174,-3.1572,-3.1909,-3.2083,-3.2015,-3.2015,-3.2259,-3.2789,-3.3157,-3.3615,-3.4181,-3.4561,-3.4767,-3.4781,-3.4851,-3.488,-3.488,-3.5147,-3.469,-1.9424,0.0,0.0,0.0,-2.1586,-2.2186,-2.3033,-2.3783,-2.4374,-2.4374,-2.5037,-2.5689,-2.5958,-2.6366,-2.6708,0.0,-2.7893,-2.8618,-2.8618,-2.9415,-2.9994,-2.9994,-2.9994,-3.0099,-3.0391,-3.1561,-3.2394,-3.2653,-3.3812,-3.4949,-3.5969,-3.6023,-3.6402,-3.7352,-3.7374,-3.7374,-3.7374,-3.8058,-3.838,-3.844,-3.9012,-3.9308,-3.9297,-3.9101,-3.8835,-3.8604,-3.8366,-3.808,-3.7793,-3.7793,-3.7666,-3.7471,-3.7471,-3.7389,-3.7303,-3.7138,-3.7174,-3.728,-3.7208,-3.6904,-3.6483,-3.6182,-3.5569,-3.4847,-3.4546,-3.3923,-3.3313,-3.3104,-3.2383,-3.1796,-3.219,-3.2083,-3.195,-3.2313,-3.2475,-3.2649,-3.3038,-3.3332,-3.3558,-3.3558,-3.3822,-3.4023,-3.3888,-3.3875,-3.3755,-3.3343,-3.2721,-3.2333,-3.2333,-3.2123,-3.1849,-3.1522,-3.1384,-3.1543,-3.2088,-3.2475,-3.2884,-3.3186,-3.3176,-3.3322,-3.3566,-3.4008,-3.4319,-3.4596,-3.498,-3.5189,-3.5189,-3.5189,-3.5189,-3.5189,-3.541,-3.5323,-2.043,0.0,0.0,-2.2253,-2.285,-2.3384,-2.4347,-2.5009,-2.5516,-2.5561,-2.5958,-2.6407,-2.6739,-2.6801,-2.6915,-2.7247,-2.7914,-2.8473,-2.8597,-2.9301,-2.9849,-2.9984,-2.9994,-3.0099,-3.0297,-3.1519,-3.2394,-3.2599,-3.3757,-3.4949,-3.5969,-3.6023,-3.6402,-3.7352,-3.7374,-3.7374,-3.7374,-3.7938,-3.8309,-3.838,-3.8894,-3.9238,-3.9308,-3.9308,-3.9121,-3.876,-3.8766,-3.8562,-3.8206,-3.8206,-3.8126,-3.8011,-3.8011,-3.7919,-3.7757,-3.7507,-3.7538,-3.7697,-3.7558,-3.738,-3.7132,-3.6747,-3.6266,-3.5737,-3.5232,-3.463,-3.4043,-3.3776,-3.3013,-3.2386,-3.2895,-3.2557,-3.2252,-3.2754,-3.2843,-3.2963,-3.3446,-3.3847,-3.4123,-3.4123,-3.4449,-3.4677,-3.454,-3.4568,-3.4542,-3.4471,-3.3727,-3.3104,-3.296,-3.279,-3.2529,-3.2071,-3.2049,-3.2248,-3.2661,-3.3082,-3.3485,-3.388,-3.3908,-3.3975,-3.4151,-3.4588,-3.4913,-3.5093,-3.5483,-3.5695,-3.5695,-3.5695,-3.5695,-3.5695,-3.5957,-3.6143,0.0,0.0,-2.2591,-2.3301,-2.3771,-2.4287,-2.5254,-2.5849,-2.6222,-2.6481,-2.6946,-2.7268,-2.7289,-2.7289,-2.7289,-2.7309,-2.7645,-2.81,-2.8556,-2.9021,-2.9497,-2.9942,-2.9994,-2.9994,0.0,-3.1412,-3.2296,-3.2286,-3.3647,-3.4949,-3.5969,-3.6023,-3.6402,-3.7352,-3.7374,-3.7374,-3.7374,-3.7747,-3.807,-3.838,-3.8704,-3.899,-3.9308,-3.9308,-3.9297,-3.9297,-3.9285,-3.9274,-3.9262,-3.9262,-3.8987,-3.8562,-3.8562,-3.824,-3.7838,-3.8086,-3.8041,-3.7939,-3.8188,-3.7792,-3.7192,-3.718,-3.6807,-3.629,-3.5983,-3.5348,-3.4791,-3.4787,-3.4257,-3.3743,-3.377,-3.353,-3.3375,-3.3824,-3.3961,-3.4098,-3.454,-3.4643,-3.47,-3.47,-3.4668,-3.4848,-3.5283,-3.4956,-3.477,-3.5187,-3.4737,-3.4162,-3.3626,-3.3051,-3.2685,-3.2659,-3.3027,-3.3247,-3.3261,-3.3636,-3.3894,-3.3908,-3.3908,-3.4165,-3.4748,-3.5231,-3.5753,-3.6336,-3.6741,-3.6936,-3.6936,-3.6936,-3.6936,-3.6961,-3.7362,-3.7529,-2.2555,0.0,-2.3603,-2.4712,-2.5196,-2.5603,-2.6242,-2.6752,-2.7023,-2.6822,-2.7063,-2.7309,-2.7309,-2.7309,-2.7309,-2.7309,-2.7634,-2.803,-2.8545,-2.9011,-2.9477,-2.9942,-3.0263,0.0,0.0,0.0,0.0,-3.2296,-3.3647,-3.4949,-3.5969,-3.6023,-3.6402,-3.7352,-3.7374,-3.7374,-3.7374,-3.7747,-3.807,-3.838,-3.8894,-3.9178,-3.9308,-3.9308,-3.9308,-3.9308,-3.9308,-3.9308,-3.9308,-3.9308,-3.9216,-3.9055,-3.9055,-3.8952,-3.8791,-3.8908,-3.8816,-3.8657,-3.8753,-3.858,-3.8274,-3.8274,-3.7661,-3.6979,-3.7224,-3.6107,-3.4909,-3.5367,-3.4679,-3.3803,-3.3921,-3.362,-3.3377,-3.3676,-3.3873,-3.4089,-3.4351,-3.4865,-3.5219,-3.5219,-3.5567,-3.5877,-3.5967,-3.584,-3.5633,-3.5318,-3.4789,-3.4332,-3.4149,-3.3639,-3.3367,-3.3475,-3.3383,-3.35,-3.4058,-3.4334,-3.4666,-3.5059,-3.5073,-3.5181,-3.5371,-3.5837,-3.6363,-3.6985,-3.7412,-3.7807,-3.8269,-3.8269,-3.8269,-3.8255,-3.8243,-3.82,-2.3633,-2.415,-2.4727,-2.5723,-2.6173,-2.6507,-2.6725,-2.7101,-2.7234,-2.673,-2.6882,-2.7009,-2.6843,-2.6812,-2.6864,-2.7029,-2.7251,-2.7717,-2.8504,-2.8866,-2.9352,-3.0149,-3.0501,-3.075,0.0,0.0,0.0,-3.2541,-3.3785,-3.5011,-3.5922,-3.6129,-3.6577,-3.7352,-3.7374,-3.7374,-3.7374,-3.7626,-3.7938,-3.838,-3.8894,-3.9178,-3.9308,-3.9492,-3.9581,-3.9588,-3.9765,-3.9744,-3.9572,-3.9572,-3.9469,-3.9308,-3.9308,-3.9308,-3.9308,-3.9308,-3.9277,-3.9267,-3.9255,-3.9082,-3.8892,-3.8821,-3.8359,-3.7875,-3.7983,-3.7049,-3.5937,-3.5897,-3.5209,-3.4426,-3.4318,-3.4078,-3.3884,-3.4108,-3.4389,-3.4622,-3.4854,-3.5556,-3.6069,-3.5881,-3.6282,-3.6672,-3.6627,-3.6586,-3.6263,-3.5426,-3.4959,-3.4633,-3.4424,-3.4097,-3.3957,-3.4215,-3.4046,-3.4166,-3.4754,-3.4994,-3.5276,-3.5696,-3.571,-3.5818,-3.6022,-3.6468,-3.7013,-3.7606,-3.8055,-3.8454,-3.8902,-3.8902,-3.8902,-3.8902,-3.8882,-3.8728,-2.4822,-2.5439,-2.5859,-2.6348,-2.6738,-2.6955,-2.6834,-2.6953,-2.6917,-2.6296,-2.6362,-2.6418,0.0,0.0,-2.6055,-2.6532,-2.6615,-2.7044,-2.8421,-2.8618,-2.9125,0.0,0.0,0.0,0.0,0.0,0.0,-3.2931,0.0,-3.5165,-3.5976,-3.6446,-3.6904,-3.7363,-3.7374,-3.7374,-3.7374,-3.7435,-3.7747,-3.838,-3.8633,-3.899,-3.932,-3.9825,-4.0117,-4.0143,-4.0621,-4.0548,-4.0149,-4.0126,-3.9779,-3.9342,-3.9308,-3.9308,-3.9308,-3.9308,-3.9496,-3.9732,-3.9591,-3.9347,-3.9082,-3.8856,-3.8942,-3.8917,-3.8226,-3.7974,-3.7655,-3.6323,-3.5813,-3.5497,-3.4955,-3.4799,-3.4884,-3.5151,-3.5417,-3.5718,-3.5994,-3.668,-3.7073,-3.6593,-3.6895,-3.7203,-3.7156,-3.7065,-3.6671,-3.5547,-3.5365,-3.5103,-3.4476,-3.4397,-3.4494,-3.4797,-3.5003,-3.5195,-3.5399,-3.5602,-3.571,-3.571,-3.575,-3.6008,-3.6578,-3.7071,-3.7634,-3.8228,-3.8698,-3.8972,-3.9,-3.9,-3.9,-3.9,-3.9392,-3.921,-2.5478,-2.6123,-2.6797,-2.7226,-2.7178,-2.6982,-2.6976,-2.6794,-2.6506,-2.6,-2.5722,-2.5637,0.0,0.0,0.0,-2.649,-2.6615,0.0,-2.8421,-2.8618,0.0,-3.0522,0.0,-3.1381,-3.1826,-3.2639,0.0,0.0,-3.434,-3.5306,-3.6468,-3.6631,-3.6904,-3.7363,-3.7374,-3.7374,-3.7374,-3.7626,-3.7878,-3.7998,-3.8574,-3.886,-3.8942,-3.9753,-4.01,-4.0155,-4.0579,-4.0743,-4.0594,-4.0215,-4.0045,-3.9825,-3.9457,-3.9308,-3.9308,-3.9308,-3.9367,-3.9473,-3.9651,-3.9556,-3.937,-3.9106,-3.8788,-3.8424,-3.8111,-3.7746,-3.7308,-3.6955,-3.6242,-3.5581,-3.5449,-3.5124,-3.4931,-3.5378,-3.5868,-3.6333,-3.6788,-3.7369,-3.7751,-3.7613,-3.752,-3.7533,-3.7667,-3.7521,-3.7176,-3.6627,-3.6188,-3.5534,-3.4528,-3.4397,-3.4577,-3.5003,-3.5086,-3.5236,-3.5602,-3.5669,-3.571,-3.571,-3.613,-3.6442,-3.6592,-3.7276,-3.8061,-3.8849,-3.9131,-3.9606,-4.0224,-4.0224,-4.0309,-4.0449,-4.0272,-4.0192,-2.6426,-2.6934,-2.7402,-2.7832,-2.7617,-2.7197,-2.6826,-2.6606,-2.6205,-2.5123,-2.4921,0.0,-2.4726,0.0,0.0,0.0,0.0,0.0,-2.809,-2.8483,-2.9208,0.0,-3.1215,0.0,-3.2551,-3.3078,-3.3661,0.0,-3.4912,-3.5569,-3.6416,-3.6823,-3.7112,-3.7374,-3.7374,-3.7374,-3.7374,-3.7566,-3.7758,-3.7878,-3.8227,-3.8551,-3.8814,-3.9562,-4.0056,-4.0437,0.0,-4.103,-4.08,-4.0513,-4.0135,-3.9698,-3.9411,-3.9308,-3.9308,-3.9308,-3.9308,-3.9308,-3.9496,-3.9488,-3.9418,-3.9306,-3.8864,-3.8359,-3.806,-3.7659,-3.7271,-3.7212,-3.6771,-3.6254,-3.6026,-3.5749,-3.5593,-3.5893,-3.6366,-3.6812,-3.7119,-3.7817,-3.8379,-3.8379,-3.7934,-3.768,-3.7859,-3.7693,-3.7403,-3.7045,-3.6488,-3.5783,-3.4907,-3.4554,-3.4564,-3.5031,-3.5086,-3.5277,-3.5669,-3.571,-3.5818,-3.609,-3.6415,-3.6836,-3.7379,-3.793,-3.8637,-3.9485,-3.9727,-4.0108,-4.0702,-4.0702,-4.0802,-4.0986,-4.087,-4.0834,-2.7344,-2.7757,-2.7822,-2.8135,-2.7891,-2.7353,-2.6494,-2.6259,-2.5772,-2.4129,0.0,-2.3929,-2.3308,-2.3091,-2.3339,-2.4332,0.0,-2.5819,-2.7665,-2.8317,-2.9301,-3.1153,-3.1433,-3.1971,-3.3254,-3.3492,-3.4004,-3.5045,-3.5523,-3.5866,-3.6296,-3.6975,-3.7325,-3.7374,-3.7374,-3.7374,-3.7374,-3.7374,-3.7566,-3.7818,-3.7878,-3.8182,-3.8698,-3.9311,-3.9984,-4.066,0.0,0.0,-4.0812,-4.0743,-4.0192,-3.94,-3.9331,-3.9308,-3.9308,-3.9308,-3.9308,-3.9308,-3.9308,-3.9308,-3.9288,-3.9408,-3.8936,-3.8313,-3.8113,-3.7744,-3.7388,-3.7316,-3.724,-3.7084,-3.6627,-3.6459,-3.6423,-3.6495,-3.6925,-3.7366,-3.7377,-3.8227,-3.9032,-3.9032,-3.8338,-3.7835,-3.7986,-3.7749,-3.7461,-3.7162,-3.6541,-3.5926,-3.5469,-3.4816,-3.4564,-3.5031,-3.5086,-3.5277,-3.5669,-3.571,-3.5967,-3.6564,-3.6673,-3.7229,-3.8369,-3.8708,-3.9212,-3.9996,-4.0255,-4.0457,-4.0702,-4.0702,-4.0774,-4.0887,-4.1254,-4.1178,-2.751,-2.792,-2.8115,-2.7894,-2.7451,-2.6904,-2.5996,-2.528,0.0,0.0,-2.2961,-2.247,-2.307,-2.2563,-2.2594,-2.4228,0.0,0.0,0.0,0.0,-2.9301,0.0,0.0,0.0,0.0,0.0,0.0,0.0,0.0,0.0,-3.6742,-3.6939,-3.7093,-3.7374,-3.7374,-3.7374,-3.7374,-3.7374,-3.7435,-3.7506,-3.7758,-3.7927,-3.8107,-3.9104,-3.9662,-3.9859,0.0,0.0,-4.0789,-4.0364,-4.0149,-3.9942,-3.9469,-3.9308,-3.9308,-3.9308,-3.9308,-3.9308,-3.9308,-3.9308,-3.9275,-3.9162,-3.8364,-3.7605,-3.8083,-3.7929,-3.7613,-3.7825,-3.7529,-3.7168,-3.7084,-3.6735,-3.6519,-3.6952,-3.7497,-3.8042,-3.842,-3.9059,-3.9546,-3.9546,-3.907,-3.8691,-3.8664,-3.8197,-3.7809,-3.773,-3.6815,-3.607,-3.5979,-3.5051,-3.4564,-3.5031,-3.5086,-3.5277,-3.5669,-3.571,-3.5967,-3.6564,-3.708,-3.7648,-3.8383,-3.8928,-3.9461,-3.9996,-4.0053,-4.027,-4.0702,-4.0702,-4.0562,-4.0278,-4.1027,-4.1178,-2.7549,-2.7969,-2.8193,-2.7826,-2.7178,-2.6465,-2.5586,0.0,0.0,0.0,-2.2267,-2.1797,-2.1756,0.0,0.0,0.0,0.0,0.0,0.0,0.0,0.0,0.0,0.0,0.0,0.0,0.0,0.0,0.0,0.0,0.0,-3.6361,-3.6728,-3.7032,-3.7374,-3.7374,-3.7374,-3.7374,-3.7374,-3.7374,-3.7374,-3.7566,-3.7747,-3.795,-3.8484,-3.9043,-3.9606,-4.0026,0.0,-4.0399,-4.0218,-3.9965,-3.9641,-3.94,-3.9308,-3.9308,-3.9308,-3.9308,-3.9308,-3.9308,-3.9308,-3.9262,-3.9185,-3.8401,-3.7676,-3.8217,-3.7873,-3.7411,-3.788,-3.7793,-3.7601,-3.7601,-3.7421,-3.7288,-3.7541,-3.8032,-3.8598,-3.9156,-3.9478,-3.9697,-3.9697,-3.9007,-3.8491,-3.857,-3.7999,-3.7522,-3.765,-3.6778,-3.6109,-3.6109,-3.5103,-3.4564,-3.5031,-3.5086,-3.5277,-3.5669,-3.571,-3.5967,-3.6564,-3.7189,-3.7756,-3.8396,-3.8993,-3.9526,-3.9996,-3.9996,-4.0213,-4.0702,-4.0378,-4.0196,-4.0081,-4.0232,-4.0253,-2.7383,-2.7773,-2.792,-2.75,-2.6816,-2.5996,-2.5019,-2.4227,0.0,0.0,-2.1594,-2.128,-2.0555,0.0,0.0,0.0,0.0,0.0,0.0,0.0,0.0,0.0,0.0,0.0,0.0,0.0,0.0,0.0,0.0,0.0,-3.586,-3.6545,-3.7032,-3.7264,-3.7374,-3.7374,-3.7374,-3.7374,-3.7374,-3.7374,-3.7374,-3.7566,-3.7818,-3.7878,-3.839,-3.9243,-3.9315,0.0,0.0,-3.9822,-3.9593,-3.9308,-3.9308,-3.9308,-3.9308,-3.9308,-3.9308,-3.9308,-3.9308,-3.9308,-3.9308,-3.9308,-3.8538,-3.7814,-3.8307,-3.7828,-3.7239,-3.7826,-3.7986,-3.7986,-3.7986,-3.7986,-3.8039,-3.8145,-3.8461,-3.8945,-3.9581,-3.9697,-3.9697,-3.9697,-3.8881,-3.8252,-3.8398,-3.7776,-3.7296,-3.7472,-3.6688,-3.6109,-3.6109,-3.5103,-3.4564,-3.5031,-3.5086,-3.5277,-3.5669,-3.571,-3.5967,-3.6564,-3.7189,-3.7756,-3.8396,-3.8993,-3.9526,-3.9996,-3.9996,-4.0213,-4.0702,-4.021,-3.9928,-3.9827,-3.9515,-3.9406,-2.6855,-2.71,-2.7031,-2.6611,-2.6152,-2.5421,-2.4199,0.0,0.0,-2.1498,-2.0879,-2.0488,-2.0405,-2.0426,-2.0772,0.0,0.0,-2.4386,0.0,0.0,0.0,0.0,0.0,0.0,0.0,0.0,0.0,0.0,0.0,0.0,0.0,-3.6545,-3.6921,-3.6921,-3.7264,-3.7374,-3.7374,-3.7374,-3.7374,-3.7374,-3.7374,-3.7435,-3.7445,-3.7747,-3.7961,-3.8065,0.0,0.0,0.0,-3.8928,-3.9094,-3.9308,-3.9308,-3.9308,-3.9308,-3.9308,-3.9308,-3.9308,-3.9308,-3.9308,-3.9308,-3.9308,-3.8435,-3.753,-3.8412,-3.7942,-3.7239,-3.7826,-3.7986,-3.7986,-3.7986,-3.7986,-3.8145,-3.8631,-3.8736,-3.8945,-3.9581,-3.9697,-3.9697,-3.9697,-3.9207,-3.873,-3.8461,-3.8095,-3.7745,-3.7537,-3.6688,-3.6109,-3.6109,-3.5103,-3.4564,-3.5031,-3.5086,-3.5277,-3.5669,-3.571,-3.5967,-3.6564,-3.7189,-3.7756,-3.8396,-3.8993,-3.9526,-3.9996,-3.9996,-4.0213,-4.0702,-4.0631,-4.0083,-3.9041,-3.9714,-3.9442,-2.6074,-2.6435,-2.6533,-2.6103,-2.5664,-2.5,-2.3711,0.0,0.0,-2.0986,-2.0379,-1.9934,-1.9665,-2.0058,-2.0509,0.0,0.0,0.0,0.0,0.0,0.0,0.0,0.0,0.0,0.0,0.0,0.0,0.0,0.0,0.0,0.0,-3.6044,-3.6484,-3.6861,-3.7043,-3.7203,-3.7374,-3.7374,-3.7374,-3.7374,-3.7374,-3.7374,-3.7374,-3.7566,-3.7687,-3.7878,0.0,0.0,0.0,-3.8537,-3.8704,-3.899,-3.899,-3.9119,-3.9308,-3.9308,-3.9308,-3.9308,-3.9308,-3.9308,-3.9308,-3.9308,-3.8745,-3.8149,-3.8575,-3.7923,-3.7239,-3.7826,-3.7986,-3.7986,-3.7986,-3.7986,-3.8092,-3.8473,-3.8684,-3.8945,-3.9374,-3.9594,-3.9697,-3.9697,-3.8969,-3.8328,-3.8201,-3.7683,-3.7279,-3.724,-3.7232,-3.6915,-3.6192,-3.5103,-3.4522,-3.488,-3.5044,-3.5277,-3.5669,-3.571,-3.5818,-3.6049,-3.6957,-3.7594,-3.7838,-3.8803,-3.9526,-3.9996,-3.9996,-4.0213,-4.0702,-4.0336,-3.9901,-3.9451,-3.8971,-3.8585,-2.5039,-2.5478,-2.5732,-2.5372,-2.4922,-2.4228,0.0,0.0,0.0,-2.0446,-1.9987,-1.9589,-1.9191,-1.981,-2.0385,0.0,0.0,-2.3505,0.0,0.0,0.0,0.0,0.0,0.0,0.0,0.0,0.0,0.0,0.0,0.0,0.0,-3.5613,-3.5983,-3.6617,-3.6678,-3.6911,-3.7264,-3.7231,-3.7281,-3.7374,-3.7374,-3.7374,-3.7374,-3.7374,-3.7506,-3.7758,0.0,0.0,0.0,-3.8249,-3.8418,-3.8693,-3.8752,-3.893,-3.9178,-3.9238,-3.9308,-3.9308,-3.9308,-3.9308,-3.9308,-3.9308,-3.8975,-3.8608,-3.8657,-3.8084,-3.7439,-3.7862,-3.7986,-3.7986,-3.7986,-3.7986,-3.8092,-3.8356,-3.8579,-3.8893,-3.9218,-3.953,-3.9697,-3.9697,-3.8781,-3.8002,-3.8002,-3.7336,-3.6917,-3.7062,-3.7325,-3.7166,-3.6219,-3.526,-3.469,-3.4782,-3.4962,-3.5236,-3.5602,-3.5669,-3.571,-3.571,-3.6821,-3.7485,-3.7485,-3.8667,-3.9526,-3.9996,-3.9996,-4.0213,-4.0702,-4.0266,-3.9957,-3.976,-3.8693,-3.811,-2.3691,-2.4111,-2.4434,-2.4434,-2.3744,-2.3003,0.0,0.0,-2.0697,-1.9949,-1.9667,-1.9418,-1.9158,-1.981,-2.0385,-2.0385,-2.1983,0.0,0.0,0.0,0.0,0.0,0.0,0.0,0.0,0.0,0.0,0.0,0.0,0.0,0.0,-3.5418,-3.5541,-3.5921,-3.6239,-3.6545,-3.6921,-3.6924,-3.7095,-3.7374,-3.7374,-3.7374,-3.7374,-3.7374,-3.7374,0.0,0.0,0.0,0.0,-3.7878,-3.813,-3.844,-3.8693,-3.88,-3.886,-3.9178,-3.9308,-3.9308,-3.9308,-3.9308,-3.9308,-3.9308,-3.8975,-3.8608,-3.8657,-3.833,-3.7899,-3.797,-3.7986,-3.7986,-3.7986,-3.7986,-3.8092,-3.8356,-3.8579,-3.8893,-3.9218,-3.953,-3.9697,-3.9697,-3.8781,-3.8002,-3.8002,-3.7266,-3.6815,-3.7062,-3.6805,-3.6495,-3.6131,-3.5626,-3.5149,-3.4822,-3.4962,-3.5195,-3.5399,-3.5602,-3.571,-3.571,-3.6821,-3.7485,-3.7485,-3.8667,-3.9526,-3.9996,-3.9996,-4.0213,-4.0702,-4.0688,-4.0378,-3.9774,-3.9183,-3.8307,-2.2725,-2.3018,-2.3115,-2.3115,-2.291,-2.2441,-2.1416,0.0,-2.024,-1.9534,-1.9201,-1.9049,-1.9096,-1.981,-2.0385,-2.0385,-2.1983,0.0,0.0,0.0,0.0,0.0,0.0,0.0,0.0,0.0,0.0,0.0,0.0,0.0,0.0,0.0,-3.5552,-3.586,-3.5983,-3.6239,-3.6556,-3.6818,-3.6939,-3.7032,-3.7264,-3.7374,-3.7374,-3.7374,0.0,0.0,0.0,0.0,0.0,-3.7566,-3.7758,-3.807,-3.8167,-3.8455,-3.88,-3.893,-3.9119,-3.9308,-3.9308,-3.9308,-3.9308,-3.9308,-3.8975,-3.8608,-3.8657,-3.8342,-3.7899,-3.797,-3.7986,-3.7986,-3.7986,-3.7709,-3.7497,-3.7549,-3.7633,-3.7747,-3.7836,-3.8241,-3.8542,-3.8542,-3.8039,-3.761,-3.7462,-3.6928,-3.6646,-3.7049,-3.7299,-3.7297,-3.6776,-3.6214,-3.5826,-3.5716,-3.5756,-3.5694,-3.5412,-3.5967,-3.632,-3.632,-3.746,-3.8095,-3.8095,-3.8884,-3.9526,-3.9996,-3.9996,-4.0213,-4.0702,-4.0702,-4.0378,-3.9774,-3.9197,-3.8452,0.0,-2.165,-2.1777,-2.1777,-2.165,0.0,0.0,0.0,0.0,-1.9264,-1.893,-1.8825,-1.9269,-1.9924,-2.0498,-2.085,-2.2211,0.0,0.0,0.0,0.0,0.0,0.0,0.0,0.0,0.0,0.0,0.0,0.0,0.0,0.0,0.0,-3.5479,-3.5675,-3.5737,-3.586,-3.6239,-3.6423,-3.6678,-3.6921,-3.7093,-3.7264,-3.7374,-3.7374,0.0,0.0,0.0,0.0,0.0,-3.7374,-3.7506,-3.7758,-3.7889,-3.8238,-3.8704,-3.8917,-3.9142,-3.9308,-3.9308,-3.9308,-3.9308,-3.9308,-3.9024,-3.8595,-3.8465,-3.8201,-3.7976,-3.7964,-3.7986,-3.7986,-3.7986,-3.7589,-3.7244,-3.7348,-3.7256,-3.7231,-3.7331,-3.7668,-3.8002,-3.8002,-3.7649,-3.7346,-3.7235,-3.6767,-3.6577,-3.7002,-3.7376,-3.7462,-3.7063,-3.6671,-3.6358,-3.6123,-3.6179,-3.6164,-3.5945,-3.6574,-3.6958,-3.6958,-3.7881,-3.8423,-3.8423,-3.8993,-3.9482,-3.9892,-3.9966,-4.0184,-4.0587,-4.0659,-4.0266,-3.9465,-3.9085,-3.8438,0.0,-2.0098,0.0,0.0,0.0,0.0,0.0,0.0,0.0,-1.9069,-1.8807,-1.8782,-1.9641,-2.012,-2.0731,-2.1652,-2.2615,0.0,0.0,0.0,0.0,0.0,0.0,0.0,0.0,0.0,0.0,0.0,0.0,0.0,0.0,0.0,-3.5324,-3.5324,-3.5324,-3.5479,-3.586,-3.586,-3.6228,-3.6861,-3.6861,-3.7032,-3.7385,-3.7374,0.0,0.0,0.0,0.0,0.0,-3.7374,-3.7374,-3.7445,-3.7829,-3.8141,-3.8451,-3.9055,-3.9259,-3.9308,-3.9308,-3.9308,-3.9297,-3.9216,-3.8943,-3.8554,-3.8013,-3.794,-3.7986,-3.7986,-3.7986,-3.7974,-3.7938,-3.7529,-3.7184,-3.7406,-3.7299,-3.717,-3.7432,-3.7704,-3.7889,-3.7889,-3.7475,-3.7123,-3.7123,-3.6744,-3.6546,-3.7015,-3.7108,-3.7114,-3.7084,-3.7063,-3.6854,-3.6292,-3.6472,-3.669,-3.6894,-3.7311,-3.7553,-3.7553,-3.8109,-3.8477,-3.8477,-3.9007,-3.9424,-3.9631,-3.9867,-4.0085,-4.0329,-4.0559,-4.0083,-3.8972,-3.893,-3.8255,-1.792,0.0,-1.9627,-1.9627,-1.9512,-1.9346,0.0,0.0,0.0,0.0,0.0,0.0,0.0,-2.012,-2.0731,-2.1652,-2.2884,0.0,0.0,0.0,0.0,0.0,0.0,0.0,0.0,0.0,0.0,0.0,0.0,0.0,0.0,0.0,-3.4393,-3.4393,-3.4393,-3.4785,-3.5541,-3.5798,-3.5983,-3.6116,-3.6678,-3.6921,-3.7043,-3.7264,0.0,0.0,0.0,0.0,-3.7374,-3.7374,-3.7374,-3.7385,-3.7506,-3.7878,-3.844,-3.8582,-3.8917,-3.9308,-3.9308,-3.9308,-3.917,-3.839,-3.8108,-3.8001,-3.7472,-3.7602,-3.7986,-3.7986,-3.7986,-3.789,-3.7481,-3.6988,-3.6534,-3.6387,-3.6186,-3.605,-3.6292,-3.6568,-3.6795,-3.6795,-3.6681,-3.6606,-3.6606,-3.6493,-3.6546,-3.7015,-3.7108,-3.7256,-3.7658,-3.7691,-3.7639,-3.7495,-3.7708,-3.7875,-3.7894,-3.7939,-3.8033,-3.8163,-3.8762,-3.9102,-3.9102,-3.9224,-3.922,-3.9031,-3.9405,-3.9661,-3.9717,-4.0391,-4.0308,-3.9605,-3.9127,-3.844,-1.7334,-1.8027,-1.8701,-1.8701,-1.8701,-1.8643,-1.8373,0.0,0.0,0.0,0.0,0.0,0.0,0.0,0.0,0.0,-2.3422,0.0,0.0,0.0,0.0,0.0,0.0,0.0,0.0,0.0,0.0,0.0,0.0,0.0,0.0,0.0,-3.4132,-3.4132,-3.4116,-3.4354,-3.4797,-3.4979,-3.5171,-3.5292,-3.5876,-3.6285,-3.6598,-3.6995,0.0,0.0,0.0,0.0,-3.7374,-3.7374,-3.7374,-3.7374,-3.7374,-3.7818,-3.838,-3.8474,-3.8868,-3.9308,-3.9308,-3.9159,-3.8849,-3.8045,-3.7829,-3.7801,-3.7284,-3.7507,-3.7986,-3.7986,-3.7986,-3.7866,-3.7324,-3.6795,-3.6379,-3.6197,-3.5868,-3.5716,-3.6098,-3.6323,-3.6405,-3.6405,-3.6405,-3.6405,-3.6405,-3.6405,-3.6546,-3.7015,-3.7108,-3.7307,-3.7854,-3.79,-3.79,-3.79,-3.8037,-3.8148,-3.8213,-3.8148,-3.8287,-3.8627,-3.9071,-3.9305,-3.9305,-3.9034,-3.8744,-3.8401,-3.8726,-3.8936,-3.9048,-3.9606,-3.9535,-3.8917,-3.858,-3.8088,-1.7168,-1.7588,-1.793,-1.7988,-1.8057,-1.8105,-1.814,0.0,0.0,0.0,0.0,0.0,0.0,-2.16,0.0,0.0,0.0,0.0,0.0,0.0,0.0,0.0,0.0,0.0,0.0,0.0,0.0,0.0,0.0,0.0,0.0,0.0,0.0,-3.3865,-3.3883,-3.3893,-3.3865,-3.4028,-3.4209,-3.4557,-3.4935,-3.5424,-3.5994,-3.6527,-3.7006,0.0,0.0,0.0,-3.7374,-3.7374,-3.7374,-3.7374,-3.7374,-3.7818,-3.8451,-3.8567,-3.8951,-3.9308,-3.9308,-3.8941,-3.839,-3.793,-3.7783,-3.7696,-3.7261,-3.7507,-3.7986,-3.7986,-3.7986,-3.7841,-3.7228,-3.6747,-3.6406,-3.6296,-3.5952,-3.5764,-3.6263,-3.6405,-3.6405,-3.6405,-3.6405,-3.6405,-3.6405,-3.6405,-3.6546,-3.6968,-3.7062,-3.7261,-3.7762,-3.7854,-3.79,-3.79,-3.79,-3.7979,-3.8122,-3.8167,-3.8381,-3.8774,-3.9056,-3.922,-3.9169,-3.86,-3.8088,-3.7687,-3.7896,-3.8131,-3.831,-3.8682,-3.8524,-3.7906,-3.799,-3.7709,-1.6709,-1.7148,-1.7568,-1.792,-1.8247,-1.858,-1.8799,0.0,0.0,0.0,0.0,0.0,0.0,0.0,0.0,0.0,0.0,0.0,0.0,0.0,0.0,0.0,0.0,0.0,0.0,0.0,0.0,0.0,0.0,0.0,0.0,0.0,0.0,-3.2934,-3.2907,-3.2917,-3.2934,-3.3689,-3.4132,-3.4191,-3.4501,-3.477,-3.491,-3.5853,-3.6725,0.0,0.0,-3.7374,-3.7374,-3.7374,-3.7374,-3.7374,-3.7374,-3.7818,-3.838,-3.8451,-3.8798,-3.9308,-3.9308,-3.8688,-3.7896,-3.7816,-3.7539,-3.7237,-3.7101,-3.7507,-3.7986,-3.7986,-3.7986,-3.7757,-3.6771,-3.6471,-3.6271,-3.5831,-3.5682,-3.5764,-3.6263,-3.6405,-3.6405,-3.6405,-3.6405,-3.6405,-3.6405,-3.6405,-3.6499,-3.6722,-3.6956,-3.7214,-3.7505,-3.7762,-3.79,-3.79,-3.79,-3.79,-3.7933,-3.8089,-3.8245,-3.8291,-3.8729,-3.8826,-3.8529,-3.7946,-3.7379,-3.6796,-3.7058,-3.7277,-3.7481,-3.8213,-3.8333,-3.7906,-3.8454,-3.8369,-1.625,-1.6699,-1.7187,-1.7852,-1.8286,-1.8668,-1.8934,-1.9649,0.0,0.0,0.0,0.0,0.0,0.0,0.0,0.0,0.0,0.0,0.0,0.0,0.0,0.0,0.0,0.0,0.0,0.0,0.0,0.0,0.0,0.0,0.0,0.0,0.0,0.0,-3.2669,-3.2669,-3.2669,-3.3105,-3.336,-3.3348,-3.3761,-3.4131,-3.4476,-3.5087,-3.587,-3.6857,0.0,-3.6823,-3.7025,-3.7276,-3.7374,-3.7374,-3.7374,-3.7818,-3.844,-3.8786,-3.9072,-3.9308,-3.9308,-3.8642,-3.7838,-3.7951,-3.7592,-3.7131,-3.7316,-3.7679,-3.7926,-3.7637,-3.7553,-3.7372,-3.6603,-3.6194,-3.5885,-3.566,-3.562,-3.5764,-3.6263,-3.6405,-3.6317,-3.5981,-3.5918,-3.583,-3.5529,-3.5479,-3.5659,-3.6181,-3.6358,-3.6716,-3.742,-3.7611,-3.7749,-3.79,-3.79,-3.79,-3.79,-3.7979,-3.8181,-3.8562,-3.8774,-3.8593,-3.7933,-3.7634,-3.7038,-3.6144,-3.6402,-3.6577,-3.6658,-3.7243,-3.7583,-3.7746,-3.8175,-3.8369,-1.5977,-1.6387,-1.6902,-1.7793,0.0,-1.8909,-1.9402,-2.0263,0.0,0.0,0.0,0.0,0.0,0.0,0.0,0.0,0.0,0.0,0.0,0.0,0.0,0.0,0.0,0.0,0.0,0.0,0.0,0.0,0.0,0.0,0.0,0.0,0.0,0.0,-3.2669,-3.2669,-3.2669,-3.2669,-3.2669,-3.268,-3.3068,-3.3497,-3.3917,-3.4259,-3.4981,-3.5892,-3.6005,-3.6281,-3.6719,-3.7068,-3.7287,-3.7374,-3.7374,-3.7818,-3.85,-3.9072,-3.9308,-3.9285,-3.917,-3.855,-3.7826,-3.7993,-3.7609,-3.7131,-3.7489,-3.7701,-3.7709,-3.7312,-3.7012,-3.6723,-3.6326,-3.5918,-3.5584,-3.5502,-3.556,-3.5716,-3.6181,-3.6358,-3.6194,-3.5608,-3.5495,-3.532,-3.4768,-3.468,-3.4909,-3.554,-3.5649,-3.6042,-3.6902,-3.7058,-3.7195,-3.7436,-3.7482,-3.7482,-3.7482,-3.7612,-3.7951,-3.8497,-3.8783,-3.8539,-3.7743,-3.7702,-3.7119,-3.594,-3.6102,-3.6182,-3.6086,-3.6583,-3.7113,-3.7625,-3.812,-3.8608,-1.5977,-1.6387,-1.6902,-1.7793,-1.8633,0.0,-2.0757,-2.1455,0.0,-2.3464,0.0,0.0,0.0,0.0,0.0,0.0,0.0,0.0,0.0,0.0,0.0,0.0,0.0,0.0,0.0,0.0,0.0,0.0,0.0,0.0,0.0,0.0,0.0,0.0,0.0,-3.2669,-3.2669,-3.2669,-3.2669,-3.2669,-3.27,-3.2778,-3.2856,-3.3581,-3.4128,-3.4506,-3.521,-3.5966,-3.6697,-3.673,-3.6992,-3.7374,-3.7374,-3.7818,-3.85,-3.9072,-3.9308,-3.9239,-3.8791,-3.8263,-3.7769,-3.7599,-3.7341,-3.7131,-3.7489,-3.745,-3.724,-3.7204,-3.6483,-3.5725,-3.5677,-3.5653,-3.5534,-3.5296,-3.5428,-3.5668,-3.5968,-3.6228,-3.6194,-3.5608,-3.5495,-3.532,-3.4768,-3.468,-3.4738,-3.4776,-3.5014,-3.5251,-3.5513,-3.5767,-3.5976,-3.6196,-3.6227,-3.6227,-3.6227,-3.6737,-3.7211,-3.7492,-3.8403,-3.8728,-3.8339,-3.8355,-3.7786,-3.6564,-3.6537,-3.6402,-3.6086,-3.689,-3.7369,-3.7639,-3.9017,-3.9676,-1.5547,-1.6182,-1.6902,-1.7793,-1.8964,0.0,0.0,-2.2079,-2.3155,-2.4072,-2.4871,0.0,0.0,0.0,0.0,0.0,0.0,0.0,0.0,0.0,0.0,0.0,0.0,0.0,0.0,0.0,0.0,0.0,0.0,0.0,0.0,0.0,0.0,0.0,0.0,-3.1888,-3.1888,-3.2051,-3.2051,-3.1899,-3.2457,-3.2669,-3.2737,-3.3017,-3.333,-3.3705,-3.4427,-3.5016,-3.5569,-3.606,-3.6522,-3.7041,-3.7768,-3.7989,-3.7958,-3.8615,-3.8642,-3.8332,-3.8149,-3.7747,-3.7344,-3.7647,-3.7247,-3.6726,-3.719,-3.7028,-3.6627,-3.6302,-3.5918,-3.5617,-3.5617,-3.5376,-3.5125,-3.5175,-3.5416,-3.5668,-3.5968,-3.6181,-3.6094,-3.5157,-3.5206,-3.4999,-3.3916,-3.3709,-3.3822,-3.4161,-3.4394,-3.4756,-3.5315,-3.5391,-3.5543,-3.6053,-3.6109,-3.6109,-3.6109,-3.6658,-3.7101,-3.7395,-3.8224,-3.8546,-3.8233,-3.8336,-3.803,-3.7202,-3.7175,-3.7122,-3.6988,-3.74,-3.7938,-3.8533,-3.9215,-3.9859,-1.5459,-1.6162,-1.6941,-1.7925,0.0,0.0,-2.1597,-2.2828,-2.3943,-2.4753,-2.5689,0.0,0.0,0.0,0.0,0.0,0.0,0.0,0.0,0.0,0.0,0.0,0.0,0.0,0.0,0.0,0.0,0.0,0.0,0.0,0.0,0.0,0.0,0.0,0.0,0.0,-3.122,-3.1522,-3.1522,-3.123,-3.1936,-3.2302,-3.2302,-3.239,-3.269,-3.3071,-3.3777,-3.434,-3.4844,-3.5479,-3.602,-3.6548,-3.7421,-3.7627,-3.7441,-3.8033,-3.8045,-3.777,-3.7609,-3.7322,-3.7033,-3.7313,-3.6967,-3.6461,-3.6845,-3.6579,-3.6086,-3.5713,-3.5497,-3.5364,-3.5364,-3.51,-3.4835,-3.503,-3.5271,-3.5572,-3.5824,-3.6098,-3.6,-3.5119,-3.5017,-3.4742,-3.3564,-3.3194,-3.3206,-3.3583,-3.3771,-3.4054,-3.4691,-3.4709,-3.4915,-3.5517,-3.5561,-3.5561,-3.5561,-3.6279,-3.6768,-3.6959,-3.7894,-3.8461,-3.8357,-3.8563,-3.8423,-3.7783,-3.777,-3.7675,-3.7485,-3.7903,-3.8416,-3.9026,-3.9476,-4.0053,-1.586,-1.6396,-1.7009,0.0,0.0,0.0,-2.2785,-2.3732,-2.4548,-2.5664,0.0,-2.7309,-2.7309,0.0,0.0,0.0,0.0,0.0,0.0,0.0,0.0,0.0,0.0,0.0,0.0,0.0,0.0,0.0,0.0,0.0,0.0,0.0,0.0,0.0,0.0,0.0,-3.0898,-3.121,-3.121,-3.0898,-3.121,-3.1371,-3.1391,-3.1836,-3.2201,-3.2511,-3.3254,-3.4051,-3.4812,-3.5087,-3.5506,-3.6012,-3.6302,-3.6591,-3.6948,-3.728,-3.7554,-3.7701,-3.7196,-3.6968,-3.6907,-3.6507,-3.6391,-3.639,-3.6413,-3.6026,-3.5605,-3.5605,-3.5232,-3.4775,-3.4775,-3.4775,-3.4775,-3.4775,-3.4981,-3.5271,-3.5512,-3.5812,-3.5889,-3.5562,-3.5056,-3.455,-3.3997,-3.3445,-3.3124,-3.3124,-3.3124,-3.3154,-3.3398,-3.3598,-3.3882,-3.4356,-3.4397,-3.4397,-3.4397,-3.5443,-3.6096,-3.6109,-3.7419,-3.8413,-3.8863,-3.9145,-3.902,-3.8437,-3.8423,-3.8095,-3.7512,-3.8396,-3.8812,-3.8826,-3.9891,-4.0399,-1.5772,-1.6611,0.0,-1.8364,0.0,0.0,0.0,-2.4061,0.0,0.0,0.0,0.0,0.0,0.0,0.0,0.0,0.0,0.0,0.0,0.0,0.0,0.0,0.0,0.0,0.0,0.0,0.0,0.0,0.0,0.0,0.0,0.0,0.0,0.0,0.0,0.0,-3.0261,-3.0387,-3.0387,-3.0261,-3.0387,-3.075,-3.1381,-3.1516,-3.1622,-3.1764,-3.25,-3.3043,-3.3548,-3.4701,-3.5299,-3.552,-3.617,-3.638,-3.6353,-3.6703,-3.6584,-3.6174,-3.6025,-3.5749,-3.5523,-3.5776,-3.558,-3.5353,-3.5743,-3.5485,-3.5015,-3.5015,-3.4895,-3.4775,-3.4775,-3.4775,-3.4775,-3.4775,-3.4981,-3.5271,-3.5512,-3.5812,-3.5889,-3.5562,-3.5294,-3.4868,-3.4067,-3.3445,-3.3124,-3.3124,-3.3124,-3.3265,-3.376,-3.3933,-3.4076,-3.4356,-3.4397,-3.4397,-3.4397,-3.5103,-3.5704,-3.6083,-3.7064,-3.7939,-3.8666,-3.8877,-3.9019,-3.9047,-3.9034,-3.8952,-3.8776,-3.904,-3.9267,-3.9426,-3.9736,-4.0095,-1.5928,-1.6846,0.0,-1.8643,-2.0389,-2.2332,-2.3919,0.0,0.0,0.0,0.0,0.0,0.0,0.0,0.0,0.0,0.0,0.0,0.0,0.0,0.0,0.0,0.0,0.0,0.0,0.0,0.0,0.0,0.0,0.0,0.0,0.0,0.0,0.0,0.0,0.0,-2.9994,-2.9994,-2.9994,-2.9994,-2.9994,-3.0294,-3.0833,-3.1019,-3.1102,-3.1187,-3.2007,-3.2687,-3.3341,-3.4247,-3.4764,-3.4949,-3.5229,-3.5412,-3.5512,-3.5498,-3.5384,-3.5233,-3.5233,-3.5049,-3.4866,-3.5191,-3.5063,-3.4869,-3.5167,-3.5088,-3.4775,-3.4775,-3.4775,-3.4775,-3.4775,-3.4775,-3.4775,-3.4775,-3.4981,-3.5271,-3.5512,-3.5812,-3.5951,-3.5897,-3.542,-3.4873,-3.4299,-3.3583,-3.3124,-3.3124,-3.3124,-3.3253,-3.3705,-3.3806,-3.3949,-3.4243,-3.4272,-3.4314,-3.4397,-3.4946,-3.5443,-3.5757,-3.67,-3.7495,-3.8108,-3.8622,-3.8997,-3.9158,-3.9247,-3.9305,-3.9305,-3.9305,-3.9394,-3.9554,-3.9656,-3.9906,-1.618,0.0,0.0,-1.8975,-2.0647,0.0,-2.5334,0.0,0.0,0.0,0.0,0.0,0.0,0.0,0.0,0.0,0.0,0.0,0.0,0.0,0.0,0.0,0.0,0.0,0.0,0.0,0.0,0.0,0.0,0.0,0.0,0.0,0.0,0.0,0.0,0.0,-2.9994,-2.9994,-2.9994,0.0,-2.9994,-2.9994,-3.0005,-3.0429,-3.0646,-3.0815,-3.175,-3.2738,-3.3672,-3.3726,-3.3988,-3.4349,-3.3901,-3.4042,-3.4473,-3.4048,-3.4227,-3.4727,-3.4727,-3.4705,-3.4682,-3.4707,-3.4745,-3.4752,-3.4784,-3.4775,-3.4775,-3.4775,-3.4775,-3.4775,-3.4775,-3.4775,-3.4775,-3.4775,-3.4981,-3.5271,-3.5512,-3.5812,-3.6098,-3.637,-3.5479,-3.468,-3.468,-3.3809,-3.3124,-3.3124,-3.3124,-3.3154,-3.3356,-3.3398,-3.3569,-3.4034,-3.4076,-3.416,-3.4356,-3.4894,-3.5234,-3.5299,-3.6279,-3.697,-3.7258,-3.8274,-3.8863,-3.8908,-3.9158,-3.9305,-3.9305,-3.9305,-3.9305,-3.9305,-3.9554,-3.9774,-1.583,-1.7021,0.0,0.0,0.0,0.0,0.0,0.0,0.0,0.0,0.0,0.0,0.0,0.0,0.0,0.0,0.0,0.0,0.0,0.0,0.0,0.0,0.0,0.0,0.0,0.0,0.0,0.0,0.0,0.0,0.0,0.0,0.0,0.0,0.0,-2.9994,-2.9994,-2.9994,-2.9994,0.0,-2.9994,-2.9994,-3.0005,-3.0098,-3.0442,-3.1051,-3.1455,-3.2126,-3.289,-3.3159,-3.3289,-3.3366,-3.3268,-3.3599,-3.4025,-3.3925,-3.4,-3.4176,-3.4176,-3.3924,-3.3692,-3.4126,-3.424,-3.4304,-3.4676,-3.4775,-3.4775,-3.4775,-3.4775,-3.4775,-3.4775,-3.4775,-3.4775,-3.4775,-3.4981,-3.5271,-3.5512,-3.5812,-3.6098,-3.637,-3.5479,-3.468,-3.468,-3.3809,-3.3124,-3.3124,-3.3124,-3.3154,-3.3356,-3.3398,-3.3484,-3.3768,-3.3979,-3.4118,-3.416,-3.4431,-3.4789,-3.5273,-3.5534,-3.5905,-3.6367,-3.7646,-3.8517,-3.8908,-3.8953,-3.91,-3.9305,-3.9305,-3.9305,-3.9305,-3.9349,-3.954,0.0,0.0,0.0,0.0,0.0,0.0,0.0,0.0,0.0,0.0,0.0,0.0,0.0,0.0,0.0,0.0,0.0,0.0,0.0,0.0,0.0,0.0,0.0,0.0,0.0,0.0,0.0,0.0,0.0,0.0,0.0,0.0,0.0,0.0,-2.9994,-2.9994,-2.9994,-2.9994,-2.9994,-2.9994,-2.9994,-2.9994,-2.9994,-3.0141,-3.0486,-3.0979,-3.1231,-3.1802,-3.252,-3.2679,-3.2927,-3.3103,-3.2831,-3.3113,-3.3552,-3.3317,-3.3419,-3.366,-3.366,-3.3488,-3.3381,-3.3927,-3.4125,-3.4162,-3.464,-3.4775,-3.4775,-3.4775,-3.4775,-3.4775,-3.4775,-3.4775,-3.4775,-3.4775,-3.5126,-3.5428,-3.5572,-3.5697,-3.5794,-3.5922,-3.5077,-3.4324,-3.4324,-3.3633,-3.3124,-3.3124,-3.3124,-3.3154,-3.324,-3.3283,-3.3313,-3.3513,-3.3696,-3.3865,-3.4076,-3.4202,-3.4415,-3.4842,-3.5142,-3.543,-3.5704,-3.6686,-3.7532,-3.8314,-3.8716,-3.9056,-3.9305,-3.9305,-3.9305,-3.9305,-3.9305,-3.9452,0.0,0.0,0.0,0.0,0.0,0.0,0.0,0.0,0.0,0.0,0.0,0.0,0.0,0.0,0.0,0.0,0.0,0.0,0.0,0.0,0.0,0.0,0.0,0.0,0.0,0.0,0.0,0.0,0.0,0.0,0.0,0.0,-2.9953,-2.988,-2.988,-2.9839,-2.9756,-2.9756,-2.9756,-2.9756,-2.9756,-2.9756,-2.9756,-3.0192,-3.0535,-3.0827,-3.1075,-3.1611,-3.2252,-3.2252,-3.2481,-3.2776,-3.2405,-3.2605,-3.3014,-3.265,-3.2869,-3.3281,-3.3281,-3.3281,-3.3381,-3.3878,-3.4075,-3.4174,-3.4592,-3.4775,-3.4775,-3.4775,-3.4775,-3.4775,-3.4775,-3.4715,-3.4643,-3.4643,-3.5016,-3.5362,-3.5461,-3.5419,-3.5357,-3.5357,-3.4587,-3.3872,-3.3771,-3.3382,-3.3124,-3.3124,-3.3124,-3.3124,-3.3124,-3.3124,-3.3154,-3.3313,-3.3398,-3.3569,-3.3949,-3.4034,-3.416,-3.4356,-3.4868,-3.5142,-3.5142,-3.5678,-3.6407,-3.732,-3.822,-3.8805,-3.9112,-3.9206,-3.9305,-3.9305,-3.9305,-3.9407,0.0,0.0,0.0,0.0,0.0,0.0,0.0,0.0,0.0,0.0,0.0,0.0,0.0,0.0,0.0,0.0,0.0,0.0,0.0,0.0,0.0,0.0,0.0,0.0,0.0,0.0,0.0,0.0,0.0,0.0,0.0,-2.9994,-2.9808,-2.9415,-2.9394,-2.9208,-2.8804,-2.8794,-2.8794,-2.8794,-2.8794,-2.8794,-2.8814,-2.9726,-3.0383,-3.0827,-3.1075,-3.1416,-3.1728,-3.1728,-3.176,-3.1804,-3.1749,-3.2086,-3.2583,-3.2527,-3.2869,-3.3281,-3.3281,-3.3281,-3.3331,-3.363,-3.3927,-3.4125,-3.4396,-3.4628,-3.4775,-3.4775,-3.4775,-3.4775,-3.4775,-3.4438,-3.4102,-3.4102,-3.4177,-3.4354,-3.4821,-3.486,-3.4826,-3.4826,-3.4324,-3.3746,-3.3269,-3.3174,-3.3124,-3.3124,-3.3124,-3.3124,-3.3124,-3.3124,-3.3124,-3.3154,-3.3313,-3.3441,-3.3484,-3.3865,-3.4118,-3.416,-3.4392,-3.4515,-3.4515,-3.509,-3.5558,-3.5854,-3.7187,-3.7993,-3.8283,-3.8959,-3.9305,-3.9305,-3.9305,-3.9305,-1.4907,0.0,0.0,0.0,0.0,0.0,0.0,0.0,0.0,0.0,0.0,0.0,0.0,0.0,0.0,0.0,0.0,0.0,0.0,0.0,0.0,0.0,0.0,0.0,0.0,0.0,0.0,0.0,0.0,0.0,-3.0086,-3.0075,-2.9854,-2.9392,-2.9231,-2.9036,-2.8828,-2.8668,-2.8618,-2.8618,-2.8618,-2.8668,-2.8828,-2.9426,-2.9937,-3.0455,-3.1111,-3.1476,-3.1618,-3.1618,-3.1618,-3.1618,-3.1618,-3.1986,-3.2493,-3.2493,-3.2869,-3.3281,-3.3281,-3.3281,-3.3331,-3.363,-3.3878,-3.4125,-3.4347,-3.458,-3.4775,-3.4775,-3.4775,-3.4715,-3.4414,-3.4162,-3.3922,-3.3681,-3.3443,-3.3435,-3.3817,-3.4077,-3.4173,-3.3859,-3.3608,-3.337,-3.3162,-3.3124,-3.3124,-3.3124,-3.3124,-3.3124,-3.3124,-3.3124,-3.3124,-3.3124,-3.3197,-3.3283,-3.3398,-3.3611,-3.3823,-3.4076,-3.4202,-3.4272,-3.4397,-3.4646,-3.4832,-3.4931,-3.6419,-3.7494,-3.8118,-3.855,-3.8979,-3.9305,-3.9305,-3.9305,0.0,0.0,0.0,0.0,0.0,0.0,0.0,0.0,0.0,0.0,0.0,0.0,0.0,0.0,0.0,0.0,0.0,0.0,0.0,0.0,0.0,0.0,0.0,0.0,0.0,0.0,0.0,0.0,0.0,0.0,-2.9966,-2.9944,-2.9721,-2.9242,-2.9046,-2.8845,-2.8631,-2.8424,-2.8266,-2.8266,-2.8266,-2.8424,-2.868,-2.9042,-2.9423,-2.9896,-3.0979,-3.1433,-3.1444,-3.1575,-3.1618,-3.1618,-3.1669,-3.2037,-3.2505,-3.2606,-3.2828,-3.3086,-3.3086,-3.3086,-3.3135,-3.3334,-3.3712,-3.4125,-3.4298,-3.4543,-3.4775,-3.4775,-3.4775,-3.4667,-3.4126,-3.3898,-3.3717,-3.3212,-3.2853,-3.2678,-3.299,-3.3376,-3.3571,-3.3156,-3.3124,-3.3124,-3.3124,-3.3124,-3.3124,-3.3124,-3.3124,-3.3124,-3.3124,-3.3124,-3.3124,-3.3124,-3.3124,-3.3154,-3.3313,-3.3356,-3.3569,-3.3992,-3.4076,-3.4202,-3.4397,-3.4397,-3.4397,-3.4397,-3.563,-3.6714,-3.7574,-3.7982,-3.8491,-3.9074,-3.9074,-3.9156,0.0,0.0,0.0,0.0,0.0,0.0,0.0,0.0,0.0,0.0,0.0,0.0,0.0,0.0,0.0,0.0,0.0,0.0,0.0,0.0,0.0,0.0,0.0,0.0,0.0,0.0,0.0,0.0,0.0,0.0,-2.9455,-2.9455,-2.9232,-2.8753,-2.8742,-2.8386,-2.7667,-2.7477,-2.7372,-2.7372,-2.7372,-2.7467,-2.7725,-2.8396,-2.8908,-2.9235,-3.0438,-3.093,-3.0963,-3.1433,-3.1618,-3.1618,-3.1874,-3.2179,-3.2544,-3.2779,-3.2723,-3.2523,-3.2523,-3.2523,-3.2523,-3.2584,-3.3261,-3.4125,-3.4125,-3.4457,-3.4775,-3.4775,-3.4775,-3.4667,-3.4126,-3.3681,-3.3188,-3.2671,-3.2309,-3.2162,-3.263,-3.2934,-3.3106,-3.3124,-3.3124,-3.3124,-3.3124,-3.3124,-3.3124,-3.3124,-3.3124,-3.3124,-3.3124,-3.3124,-3.3124,-3.3124,-3.3124,-3.3124,-3.3124,-3.3283,-3.3471,-3.3725,-3.3949,-3.4202,-3.4397,-3.4397,-3.4397,-3.4397,-3.4726,-3.5292,-3.6129,-3.7086,-3.7851,-3.8464,-3.8464,-3.8762,0.0,0.0,0.0,0.0,0.0,0.0,0.0,0.0,0.0,0.0,0.0,0.0,0.0,0.0,0.0,0.0,0.0,0.0,0.0,0.0,0.0,0.0,0.0,0.0,0.0,0.0,0.0,0.0,0.0,0.0,-2.9461,-2.9451,-2.9234,-2.8795,-2.8595,-2.8237,-2.7594,-2.7547,-2.7441,-2.7309,-2.7309,-2.7489,-2.7867,-2.8121,-2.849,-2.8958,-2.9659,-3.0166,-3.0472,-3.0646,-3.0712,-3.0712,-3.1009,-3.1294,-3.1551,-3.1807,-3.1937,-3.2018,-3.2007,-3.2007,-3.2053,-3.2386,-3.3006,-3.3666,-3.4019,-3.4457,-3.4775,-3.4775,-3.4534,-3.415,-3.3693,-3.3176,-3.2647,-3.2094,-3.2127,-3.23,-3.2475,-3.2822,-3.3124,-3.3124,-3.3124,-3.3124,-3.3124,-3.3124,-3.3124,-3.3124,-3.3124,-3.3124,-3.3124,-3.3124,-3.3124,-3.3124,-3.3124,-3.3124,-3.3124,-3.3154,-3.3283,-3.3471,-3.3725,-3.3937,-3.4202,-3.4314,-3.4397,-3.4397,-3.466,-3.5213,-3.5993,-3.6502,-3.713,-3.7811,-3.7811,-3.7919,-1.2985,0.0,0.0,0.0,0.0,0.0,0.0,0.0,0.0,0.0,0.0,0.0,0.0,0.0,0.0,0.0,0.0,0.0,0.0,0.0,0.0,0.0,0.0,0.0,0.0,0.0,0.0,0.0,0.0,0.0,-2.9259,-2.9285,-2.9142,-2.8814,-2.8535,-2.8207,-2.7867,-2.7773,-2.7678,-2.7536,-2.7536,-2.7773,-2.8139,-2.8139,-2.8373,-2.8825,-2.9142,-2.9521,-2.998,-3.0144,-3.0209,-3.0258,-3.0588,-3.083,-3.1012,-3.136,-3.1508,-3.1513,-3.149,-3.149,-3.157,-3.2172,-3.2775,-3.3407,-3.3997,-3.4494,-3.4739,-3.457,-3.4258,-3.3838,-3.32,-3.2623,-3.2175,-3.189,-3.2125,-3.2431,-3.2475,-3.2822,-3.3124,-3.3124,-3.3124,-3.3124,-3.3124,-3.3124,-3.3124,-3.3124,-3.3124,-3.3124,-3.3124,-3.3124,-3.3124,-3.3124,-3.3124,-3.3124,-3.3124,-3.3124,-3.3197,-3.3398,-3.3598,-3.381,-3.4076,-3.4272,-3.4397,-3.4397,-3.4577,-3.5024,-3.57,-3.5908,-3.6411,-3.7216,-3.7216,-3.7216,0.0,0.0,0.0,0.0,0.0,0.0,0.0,0.0,0.0,0.0,0.0,0.0,0.0,0.0,0.0,0.0,0.0,0.0,0.0,0.0,0.0,0.0,0.0,0.0,0.0,0.0,0.0,0.0,0.0,-2.8803,-2.8803,-2.8803,-2.8803,-2.8803,-2.8535,-2.8395,-2.8395,-2.8139,-2.7998,-2.7998,-2.7998,-2.8139,-2.8395,-2.8395,-2.8535,-2.8803,-2.8803,-2.9077,-2.95,-2.9969,-3.0166,-3.0215,-3.0737,-3.0967,-3.1016,-3.1565,-3.141,-3.0996,-3.0996,-3.1008,-3.1146,-3.1854,-3.2639,-3.3455,-3.4181,-3.458,-3.4667,-3.4138,-3.3982,-3.373,-3.2743,-3.207,-3.1761,-3.1937,-3.2213,-3.2475,-3.268,-3.2896,-3.3124,-3.3124,-3.3124,-3.3124,-3.3124,-3.3124,-3.3124,-3.3124,-3.3124,-3.3124,-3.3124,-3.3124,-3.3124,-3.3124,-3.3124,-3.3124,-3.3124,-3.3124,-3.3197,-3.3398,-3.3598,-3.381,-3.4076,-3.4272,-3.4397,-3.4397,-3.4397,-3.4605,-3.5086,-3.5277,-3.5804,-3.6564,-3.6564,-3.6702,-1.2814,0.0,0.0,0.0,0.0,0.0,0.0,0.0,0.0,0.0,0.0,0.0,0.0,0.0,0.0,0.0,0.0,0.0,0.0,0.0,0.0,0.0,0.0,0.0,0.0,0.0,0.0,0.0,-2.8803,-2.8803,-2.8803,-2.8803,-2.8803,-2.8803,-2.871,-2.8617,-2.8395,-2.8348,-2.8196,-2.7998,-2.7998,-2.8139,-2.8395,-2.8395,-2.8535,-2.8803,-2.8803,-2.888,-2.9011,-2.9142,-2.9255,-2.9443,-2.976,-3.0039,-3.0248,-3.0514,-3.056,-3.0434,-3.0434,-3.0686,-3.1146,-3.1854,-3.2639,-3.3455,-3.4181,-3.458,-3.4667,-3.4138,-3.3777,-3.3248,-3.2178,-3.1825,-3.1761,-3.1937,-3.2213,-3.2475,-3.268,-3.2896,-3.3124,-3.3124,-3.3124,-3.3124,-3.3124,-3.3124,-3.3124,-3.3124,-3.3124,-3.3124,-3.3124,-3.3124,-3.3124,-3.3124,-3.3124,-3.3124,-3.3124,-3.3124,-3.3124,-3.3197,-3.3513,-3.3725,-3.381,-3.4189,-3.4397,-3.4397,-3.4397,-3.4577,-3.488,-3.5086,-3.5439,-3.5967,-3.5967,-3.6089,0.0,0.0,0.0,0.0,0.0,0.0,0.0,-1.6919,0.0,0.0,0.0,0.0,0.0,0.0,0.0,0.0,0.0,0.0,0.0,0.0,0.0,0.0,0.0,0.0,0.0,0.0,0.0,0.0,-2.8803,-2.8803,-2.8803,-2.8803,-2.8803,-2.8803,-2.8803,-2.871,-2.8571,-2.8571,-2.8477,-2.8326,-2.8326,-2.843,-2.8571,-2.8571,-2.8664,-2.8803,-2.8803,-2.8803,-2.8803,-2.8896,-2.8989,-2.9128,-2.9393,-2.9634,-2.9954,-3.0388,-3.0549,-3.0583,-3.079,-3.1112,-3.1586,-3.2357,-3.3006,-3.3587,-3.4315,-3.4677,-3.4631,-3.3933,-3.3188,-3.2512,-3.1874,-3.1705,-3.1761,-3.1937,-3.2213,-3.2475,-3.268,-3.2896,-3.3124,-3.3124,-3.3124,-3.3124,-3.3124,-3.3124,-3.3124,-3.3124,-3.3124,-3.3124,-3.3124,-3.3124,-3.3124,-3.3124,-3.3124,-3.3124,-3.3124,-3.3124,-3.3124,-3.3124,-3.3398,-3.3598,-3.3713,-3.4063,-3.4314,-3.4397,-3.4397,-3.4577,-3.4921,-3.5044,-3.5318,-3.571,-3.571,-3.5764,0.0,0.0,0.0,0.0,0.0,0.0,-1.6265,-1.6893,-1.7453,0.0,0.0,0.0,0.0,0.0,0.0,0.0,0.0,0.0,0.0,0.0,0.0,0.0,0.0,0.0,0.0,0.0,-2.8134,-2.8606,-2.865,-2.8729,-2.8795,-2.8795,-2.8806,-2.8803,-2.8803,-2.8803,-2.8803,-2.8803,-2.8803,-2.8803,-2.8803,-2.8803,-2.8803,-2.8803,-2.8803,-2.8803,-2.8803,-2.8803,-2.885,-2.9035,-2.9128,-2.9174,-2.9439,-2.9725,-3.0125,-3.0754,-3.1054,-3.1169,-3.1605,-3.1979,-3.2321,-3.3064,-3.354,-3.3923,-3.4582,-3.4775,-3.4607,-3.3585,-3.2503,-3.1705,-3.1705,-3.1705,-3.1761,-3.1937,-3.2169,-3.2431,-3.2636,-3.2896,-3.3081,-3.3068,-3.3124,-3.3124,-3.3124,-3.3124,-3.3124,-3.3124,-3.3124,-3.3124,-3.3124,-3.3124,-3.3124,-3.3124,-3.3124,-3.3124,-3.3124,-3.3124,-3.3124,-3.3124,-3.3283,-3.3471,-3.367,-3.3949,-3.4202,-3.4397,-3.4397,-3.4605,-3.5086,-3.5127,-3.5318,-3.571,-3.571,-3.571,0.0,0.0,0.0,0.0,0.0,0.0,-1.5949,-1.6493,-1.708,0.0,0.0,0.0,0.0,0.0,0.0,0.0,0.0,0.0,0.0,0.0,0.0,0.0,0.0,0.0,0.0,0.0,-2.749,-2.7588,-2.7854,-2.8231,-2.8764,-2.8797,-2.8816,-2.8792,-2.8803,-2.8803,-2.8803,-2.8803,-2.8803,-2.8803,-2.8803,-2.8803,-2.8803,-2.8803,-2.8803,-2.8803,-2.8803,-2.8896,-2.9035,-2.9082,-2.922,-2.9439,-2.9737,-3.0227,-3.0789,-3.0927,-3.1272,-3.1675,-3.1779,-3.221,-3.2787,-3.3169,-3.374,-3.4351,-3.4702,-3.4775,-3.4607,-3.3585,-3.2503,-3.1705,-3.1705,-3.1705,-3.1761,-3.1937,-3.2038,-3.2201,-3.2593,-3.2766,-3.2853,-3.3081,-3.3124,-3.3124,-3.3124,-3.3124,-3.3124,-3.3124,-3.3124,-3.3124,-3.3124,-3.3124,-3.3124,-3.3124,-3.3124,-3.3124,-3.3124,-3.3124,-3.3124,-3.3124,-3.3283,-3.3471,-3.367,-3.3949,-3.4202,-3.4397,-3.4397,-3.4535,-3.4839,-3.5195,-3.548,-3.571,-3.571,-3.571,0.0,0.0,0.0,-1.5994,0.0,0.0,0.0,-1.6525,-1.691,0.0,0.0,0.0,0.0,0.0,0.0,0.0,0.0,0.0,0.0,0.0,0.0,0.0,0.0,0.0,0.0,0.0,-2.6802,-2.7272,-2.7447,-2.7689,-2.8009,-2.8076,-2.8162,-2.8386,-2.8396,-2.8517,-2.8803,-2.8803,-2.8803,-2.8803,-2.8803,-2.8803,-2.8803,-2.8803,-2.8803,-2.8803,-2.8896,-2.8989,-2.9128,-2.937,-2.96,-2.976,-3.01,-3.0547,-3.1077,-3.157,-3.1903,-3.2216,-3.248,-3.2978,-3.3518,-3.3664,-3.4122,-3.4628,-3.4775,-3.4463,-3.3958,-3.344,-3.2503,-3.1705,-3.1705,-3.1705,-3.1705,-3.1849,-3.195,-3.2069,-3.2288,-3.2537,-3.2766,-3.2853,-3.3025,-3.3124,-3.3124,-3.3124,-3.3124,-3.3124,-3.3124,-3.3124,-3.3124,-3.3124,-3.3124,-3.3124,-3.3124,-3.3124,-3.3124,-3.3124,-3.3124,-3.3124,-3.3197,-3.3398,-3.367,-3.3852,-3.4063,-3.4397,-3.4397,-3.4535,-3.4797,-3.542,-3.564,-3.5562,-3.5642,-3.5873,0.0,0.0,0.0,0.0,0.0,-1.6555,0.0,0.0,0.0,0.0,0.0,0.0,0.0,0.0,0.0,0.0,0.0,0.0,0.0,0.0,0.0,0.0,0.0,0.0,0.0,0.0,-2.6054,-2.6779,-2.6998,-2.7129,-2.7151,-2.7228,-2.7502,-2.7939,-2.8038,-2.8267,-2.8696,-2.8841,-2.8932,-2.8932,-2.8932,-2.8932,-2.8932,-2.8932,-2.8932,-2.8943,-2.9128,-2.922,-2.9266,-2.9703,-2.9931,-3.0011,-3.0352,-3.0776,-3.1249,-3.2053,-3.2466,-3.2695,-3.3231,-3.3679,-3.4125,-3.4162,-3.4457,-3.4775,-3.4775,-3.4102,-3.3284,-3.3284,-3.2503,-3.1705,-3.1705,-3.1705,-3.1705,-3.1705,-3.1805,-3.1937,-3.1994,-3.2332,-3.2636,-3.2667,-3.2896,-3.3124,-3.3124,-3.3124,-3.3124,-3.3124,-3.3124,-3.3124,-3.3124,-3.3124,-3.3124,-3.3124,-3.3124,-3.3124,-3.3124,-3.3124,-3.3124,-3.3124,-3.3124,-3.3283,-3.367,-3.3913,-3.4189,-3.4567,-3.4672,-3.4821,-3.5044,-3.5801,-3.593,-3.5574,-3.5886,-3.632,0.0,0.0,0.0,0.0,-1.7275,0.0,0.0,0.0,0.0,0.0,0.0,0.0,0.0,0.0,0.0,0.0,0.0,0.0,0.0,0.0,0.0,0.0,0.0,0.0,0.0,0.0,0.0,-2.5255,-2.5981,-2.6483,-2.659,-2.7062,-2.7411,-2.7712,-2.8132,-2.8375,-2.843,-2.9079,-2.9439,-2.9439,-2.9439,-2.9439,-2.9439,-2.9439,-2.9439,-2.9439,-2.9439,-2.9588,-2.9794,-2.9886,-3.0011,-3.0182,-3.0239,-3.087,-3.1744,-3.1859,-3.242,-3.325,-3.3557,-3.3828,-3.4125,-3.4298,-3.458,-3.4775,-3.4775,-3.4102,-3.3284,-3.3284,-3.2503,-3.1705,-3.1705,-3.1705,-3.1705,-3.1705,-3.1705,-3.1793,-3.195,-3.2213,-3.2475,-3.268,-3.2896,-3.3124,-3.3124,-3.3124,-3.3124,-3.3124,-3.3124,-3.3124,-3.3124,-3.3124,-3.3124,-3.3124,-3.3124,-3.3124,-3.3124,-3.3124,-3.3124,-3.3124,-3.3124,-3.3283,-3.367,-3.461,-3.5152,-3.5195,-3.5665,-3.5913,-3.5957,-3.6469,-3.6545,-3.6234,-3.6941,-3.7323,0.0,0.0,0.0,0.0,0.0,0.0,-1.7402,0.0,-1.6902,0.0,0.0,0.0,0.0,0.0,0.0,0.0,0.0,0.0,0.0,0.0,0.0,0.0,0.0,0.0,0.0,0.0,0.0,0.0,0.0,-2.5296,-2.5603,-2.614,-2.6613,-2.6986,-2.7743,-2.8277,-2.8567,-2.9193,-2.9485,-2.9485,-2.9485,-2.9485,-2.9485,-2.9485,-2.9485,-2.9485,-2.9634,-2.9794,-2.9886,-3.0011,-3.0136,-3.0216,-3.0216,-3.0847,-3.1789,-3.2076,-3.265,-3.3331,-3.363,-3.3878,-3.4174,-3.4543,-3.4726,-3.4775,-3.4775,-3.4102,-3.3284,-3.3284,-3.2503,-3.1705,-3.1705,-3.1705,-3.1705,-3.1705,-3.1705,-3.1761,-3.195,-3.2213,-3.2475,-3.268,-3.2896,-3.3124,-3.3124,-3.3124,-3.3124,-3.3124,-3.3124,-3.3124,-3.3124,-3.3124,-3.3124,-3.3124,-3.3124,-3.3124,-3.3124,-3.3124,-3.3124,-3.3124,-3.3642,-3.4175,-3.4656,-3.5379,-3.5757,-3.5757,-3.5992,-3.6109,-3.6109,-3.6932,-3.7234,-3.7123,-3.7398,-3.7675,-1.9106,0.0,0.0,0.0,0.0,0.0,0.0,0.0,0.0,0.0,0.0,0.0,0.0,0.0,0.0,0.0,0.0,0.0,0.0,0.0,0.0,0.0,0.0,0.0,0.0,0.0,0.0,0.0,-2.4097,0.0,-2.475,-2.5475,-2.6049,-2.6397,-2.7375,-2.8128,-2.86,-2.9184,-2.9534,-2.9715,-2.9715,-2.9715,-2.9715,-2.9715,-2.9715,-2.9715,-2.992,-2.9977,-2.9966,-3.0136,-3.0216,-3.0216,-3.0216,-3.0755,-3.1546,-3.2099,-3.2707,-3.3331,-3.3679,-3.4026,-3.4359,-3.4689,-3.4775,-3.4775,-3.4775,-3.4102,-3.3284,-3.3284,-3.2503,-3.1741,-3.1898,-3.1934,-3.1982,-3.2114,-3.2195,-3.224,-3.2431,-3.2697,-3.3007,-3.3139,-3.3233,-3.3307,-3.3307,-3.3224,-3.3124,-3.3124,-3.3124,-3.3124,-3.3124,-3.3124,-3.3124,-3.3124,-3.3124,-3.3124,-3.3124,-3.3124,-3.3144,-3.3294,-3.4216,-3.4932,-3.5372,-3.5913,-3.6257,-3.6358,-3.6515,-3.6593,-3.6606,-3.7502,-3.7936,-3.7967,-3.799,-3.8247,0.0,0.0,0.0,-1.9077,0.0,0.0,0.0,0.0,-1.7691,0.0,0.0,0.0,0.0,0.0,0.0,-1.7306,0.0,0.0,0.0,0.0,0.0,0.0,0.0,0.0,0.0,0.0,0.0,-2.2754,-2.3661,-2.4223,-2.421,-2.5392,-2.6109,-2.6132,-2.7107,-2.7878,-2.8411,-2.9131,-2.9712,-3.017,-3.017,-3.017,-3.017,-3.017,-3.017,-3.017,-3.017,-3.017,-3.017,-3.0216,-3.0216,-3.0216,-3.0216,-3.0549,-3.11,-3.1605,-3.2469,-3.3381,-3.3878,-3.4408,-3.4787,-3.4775,-3.4775,-3.4775,-3.4775,-3.4102,-3.3284,-3.3284,-3.2503,-3.1837,-3.2334,-3.2466,-3.2611,-3.3116,-3.3409,-3.3536,-3.3536,-3.3949,-3.4326,-3.4326,-3.407,-3.3872,-3.3872,-3.3432,-3.3124,-3.3124,-3.3124,-3.3124,-3.3124,-3.3124,-3.3124,-3.3124,-3.3124,-3.3124,-3.3124,-3.3124,-3.3307,-3.3847,-3.4622,-3.5162,-3.5398,-3.6167,-3.6689,-3.6972,-3.7547,-3.7848,-3.7848,-3.8349,-3.8575,-3.8575,-3.9029,-3.9251,0.0,0.0,-1.9108,-1.9108,0.0,0.0,0.0,0.0,0.0,0.0,0.0,0.0,0.0,0.0,0.0,-1.7306,0.0,0.0,0.0,0.0,0.0,0.0,0.0,0.0,0.0,0.0,0.0,-2.1684,-2.2306,-2.296,0.0,-2.4425,-2.5142,-2.5817,-2.6811,-2.7748,-2.8571,-2.9196,-2.9745,-3.0216,-3.0216,-3.0216,-3.0216,-3.0216,-3.0216,-3.0216,-3.0216,-3.0216,-3.0216,-3.0216,-3.0216,-3.0216,-3.0216,-3.0549,-3.1077,-3.1559,-3.2167,-3.2897,-3.3798,-3.4408,-3.4775,-3.4775,-3.4775,-3.4715,-3.4366,-3.3825,-3.3284,-3.3284,-3.2767,-3.2346,-3.2887,-3.302,-3.3114,-3.3409,-3.3538,-3.3676,-3.4056,-3.4284,-3.4421,-3.4557,-3.453,-3.4449,-3.4449,-3.4286,-3.3922,-3.3224,-3.3124,-3.3124,-3.3124,-3.3124,-3.3124,-3.3124,-3.3124,-3.3219,-3.3583,-3.396,-3.4399,-3.4906,-3.538,-3.592,-3.6486,-3.6967,-3.7312,-3.7599,-3.7795,-3.79,-3.79,-3.8389,-3.8602,-3.8602,-3.9083,-3.9305,-1.9233,-1.9108,0.0,-1.9108,-1.9055,0.0,-1.8913,0.0,0.0,0.0,0.0,0.0,0.0,0.0,0.0,0.0,-1.7518,0.0,0.0,-1.7975,0.0,0.0,0.0,0.0,0.0,0.0,-2.0285,-2.0649,-2.1273,-2.1939,0.0,0.0,-2.4579,-2.5406,-2.6416,-2.7438,-2.8436,-2.8953,-2.947,-2.9963,-3.0135,-3.0216,-3.0216,-3.0216,-3.0216,-3.0216,-3.0216,-3.0216,-3.0216,-3.0216,-3.0216,-3.0216,-3.0216,-3.0422,-3.079,-3.1248,-3.1884,-3.2609,-3.3394,-3.391,-3.4282,-3.4282,-3.4282,-3.4222,-3.3885,-3.3416,-3.3008,-3.3008,-3.2767,-3.2623,-3.3152,-3.3416,-3.3644,-3.4059,-3.4249,-3.4436,-3.4867,-3.5052,-3.5132,-3.5257,-3.5152,-3.4969,-3.4969,-3.4806,-3.4412,-3.3508,-3.337,-3.3307,-3.3106,-3.3124,-3.3124,-3.3124,-3.3257,-3.3596,-3.4148,-3.47,-3.5119,-3.547,-3.5856,-3.64,-3.7095,-3.7261,-3.7505,-3.79,-3.79,-3.79,-3.79,-3.8177,-3.8296,-3.8296,-3.8556,-3.8667]}]]